Date StartTime U_cm/s V_cm/s W_cm/s Ustd_cm/s Vstd_cm/s Wstd_cm/s Uvar_(cm/s)^2 Vvar_(cm/s)^2 Wvar_(cm/s)^2 KE_(m/s)^2 TurbulentKE_(m/s)^2 HorizWindSpeed_cm/s FrictionSpeec_cm/s DragCoef SpeedOfSound_m/s SonicTemperature_C Pressure_mb 
09/08/2014  00:00:00     -186.224      -52.797       -9.769       29.244       26.857       20.119      855.211      721.280      404.788        1.977        0.099      193.564       17.394        0.008      343.483       19.624      859.114
09/08/2014  00:01:00     -175.841       12.308      -11.421       26.290       31.297       16.275      691.154      979.523      264.873        1.657        0.097      176.272        9.480        0.003      343.523       19.695      859.111
09/08/2014  00:02:00     -105.836       36.264       -7.884       52.870       36.866       25.378     2795.279     1359.084      644.061        0.869        0.240      111.876       24.185        0.047      343.550       19.740      859.098
09/08/2014  00:03:00     -123.153      129.958      -29.248       32.579       56.313       20.719     1061.394     3171.194      429.284        1.879        0.233      179.041       23.870        0.018      343.861       20.270      859.092
09/08/2014  00:04:00     -107.685      129.516      -23.471       27.760       28.487       21.157      770.617      811.498      447.608        1.548        0.101      168.436       16.802        0.010      343.726       20.039      859.092
09/08/2014  00:05:00      -68.150       94.675      -14.610       34.204       29.259       18.601     1169.895      856.084      345.986        0.810        0.119      116.652       16.364        0.020      343.941       20.408      859.094
09/08/2014  00:06:00      -52.330       39.707      -13.149       30.593       65.287       14.797      935.962     4262.421      218.952        0.495        0.271       65.689       14.552        0.049      343.760       20.099      859.113
09/08/2014  00:07:00      -13.310      -25.192        9.431       42.020       22.837       19.533     1765.682      521.548      381.547        0.178        0.133       28.492       15.346        0.290      343.515       19.680      859.151
09/08/2014  00:08:00      -24.046      -52.632        1.157       54.821       41.109       24.752     3005.392     1689.916      612.681        0.433        0.265       57.864       18.520        0.102      343.381       19.452      859.184
09/08/2014  00:09:00      -70.308     -131.789       11.142       54.595       55.938       34.628     2980.632     3129.105     1199.110        1.487        0.365      149.371       31.805        0.045      343.512       19.674      859.208
09/08/2014  00:10:00      -63.231     -113.616       -1.015       48.234       62.514       23.913     2326.555     3907.997      571.835        1.186        0.340      130.026       27.804        0.046      343.927       20.381      859.227
09/08/2014  00:11:00      -17.906      -84.268       -1.113       49.872       38.515       25.370     2487.264     1483.400      643.640        0.602        0.231       86.149       17.038        0.039      344.085       20.654      859.223
09/08/2014  00:12:00      -30.541      -89.484       -2.332       34.174       34.117       19.209     1167.835     1163.958      368.984        0.582        0.135       94.553       16.497        0.030      344.191       20.835      859.193
09/08/2014  00:13:00       -5.199      -29.019       -8.082       26.956       37.431       21.832      726.629     1401.062      476.634        0.177        0.130       29.481       19.528        0.439      343.943       20.412      859.176
09/08/2014  00:14:00       13.352        1.710       13.355       14.801       18.892       14.141      219.067      356.893      199.973        0.057        0.039       13.461       14.424        1.148      343.485       19.632      859.175
09/08/2014  00:15:00      -36.924       -3.138       -5.035       22.480        5.215        6.910      505.357       27.198       47.751        0.099        0.029       37.058        9.908        0.071      343.632       19.880      859.177
09/08/2014  00:16:00      -99.047       -5.199      -12.300       17.214       23.676       12.372      296.323      560.559      153.068        0.550        0.050       99.184       10.299        0.011      343.586       19.801      859.190
09/08/2014  00:17:00     -168.596      -56.238      -17.026       42.560       40.055       25.442     1811.382     1604.405      647.291        1.797        0.203      177.728       18.926        0.011      343.252       19.231      859.198
09/08/2014  00:18:00     -116.732      -25.403        2.756       68.222       54.204       34.314     4654.296     2938.039     1177.445        1.152        0.438      119.464       37.621        0.099      343.093       18.963      859.183
09/08/2014  00:19:00     -104.215      -56.685       -4.197       33.555       26.569       20.125     1125.928      705.911      405.005        0.816        0.112      118.633       10.488        0.008      343.409       19.501      859.176
09/08/2014  00:20:00     -101.908      -43.128       -3.168       36.228       19.923       17.194     1312.448      396.941      295.628        0.713        0.100      110.658       19.151        0.030      343.489       19.638      859.176
09/08/2014  00:21:00      -46.332      -50.137        5.829       38.683       23.236       18.348     1496.346      539.927      336.657        0.353        0.119       68.267       18.467        0.073      343.725       20.038      859.168
09/08/2014  00:22:00      -43.723      -54.637       -1.942       36.466       25.959       21.159     1329.797      673.852      447.693        0.368        0.123       69.977       20.272        0.084      343.829       20.218      859.176
09/08/2014  00:23:00      -54.677      -87.842       12.675       75.783       60.054       36.925     5743.083     3606.484     1363.479        1.079        0.536      103.469       43.532        0.177      343.699       19.993      859.195
09/08/2014  00:24:00     -138.399     -136.279       -6.492       54.266       40.156       26.445     2944.747     1612.519      699.358        2.151        0.263      194.233       21.066        0.012      343.633       19.880      859.204
09/08/2014  00:25:00      -63.942      -32.439       -5.364       38.497       35.949       21.291     1482.056     1292.329      453.314        0.420        0.161       71.700       16.425        0.052      343.595       19.818      859.190
09/08/2014  00:26:00      -98.745      -36.679       -8.166       24.598       24.669       18.574      605.064      608.562      345.010        0.636        0.078      105.337       11.004        0.011      343.634       19.883      859.168
09/08/2014  00:27:00      -78.231      -15.306       -7.796       19.875       28.347       12.880      395.009      803.548      165.884        0.389        0.068       79.714       10.903        0.019      343.482       19.626      859.172
09/08/2014  00:28:00      -23.619      -36.303        9.859       48.914       26.628       29.191     2392.555      709.063      852.129        0.296        0.198       43.310       31.959        0.544      343.403       19.490      859.191
09/08/2014  00:29:00      -68.448      -49.977        2.993       32.516       25.081       19.327     1057.279      629.050      373.516        0.463        0.103       84.751       14.303        0.028      343.288       19.292      859.226
09/08/2014  00:30:00      -85.854      -83.186        0.699       51.945       44.757       24.564     2698.287     2003.227      603.380        0.980        0.265      119.544       25.640        0.046      343.488       19.634      859.264
09/08/2014  00:31:00     -151.267      -77.535      -16.891       69.393       46.368       33.272     4815.352     2149.950     1107.052        1.862        0.404      169.980       34.147        0.040      343.577       19.784      859.279
09/08/2014  00:32:00     -119.625       14.922       -6.513       64.878       41.472       28.149     4209.134     1719.907      792.342        1.065        0.336      120.552       30.589        0.064      343.321       19.350      859.245
09/08/2014  00:33:00      -96.236       68.382       -7.600       35.683       36.775       27.502     1273.285     1352.375      756.342        0.869        0.169      118.057       21.183        0.032      343.026       18.849      859.177
09/08/2014  00:34:00      -92.792       34.163       -9.126       28.859       35.320       20.948      832.853     1247.522      438.811        0.619        0.126       98.881       13.754        0.019      343.140       19.043      859.143
09/08/2014  00:35:00     -139.892      -31.801       -6.144       29.922       32.769       18.206      895.317     1073.790      331.462        1.146        0.115      143.461       13.498        0.009      343.487       19.632      859.162
09/08/2014  00:36:00      -60.748      -52.784      -10.081       61.877       33.914       28.801     3828.767     1150.172      829.499        0.619        0.290       80.477       27.779        0.119      343.187       19.122      859.216
09/08/2014  00:37:00      -81.651      -74.488        2.327       52.323       39.480       30.253     2737.691     1558.700      915.230        0.872        0.261      110.523       26.400        0.057      343.184       19.117      859.277
09/08/2014  00:38:00     -149.545     -111.233       -1.915       54.673       47.125       34.608     2989.164     2220.774     1197.742        2.057        0.320      186.377       27.913        0.022      343.401       19.485      859.310
09/08/2014  00:39:00     -122.717      -74.278       -1.392       41.819       32.700       19.731     1748.837     1069.291      389.330        1.189        0.160      143.445        6.127        0.002      343.493       19.644      859.302
09/08/2014  00:40:00     -104.490      -14.085       -5.791       26.368       23.169       13.400      695.254      536.788      179.567        0.628        0.071      105.435        8.835        0.007      343.436       19.546      859.256
09/08/2014  00:41:00      -98.601       36.406       -6.122       29.590       26.293       18.152      875.561      691.330      329.505        0.649        0.095      105.107       14.794        0.020      343.339       19.381      859.191
09/08/2014  00:42:00     -105.925       69.223      -17.892       23.423       24.385       15.682      548.624      594.617      245.932        0.886        0.069      126.538        9.344        0.005      343.428       19.533      859.139
09/08/2014  00:43:00     -133.354       36.099       -9.217       27.311       31.582       22.121      745.878      997.428      489.327        1.070        0.112      138.154       14.353        0.011      343.507       19.668      859.121
09/08/2014  00:44:00     -127.132      -42.873       -6.802       60.062       47.137       29.249     3607.469     2221.938      855.483        1.236        0.334      134.166       34.126        0.065      343.325       19.356      859.156
09/08/2014  00:45:00     -147.502      -75.453       -2.468       60.271       39.660       30.067     3632.608     1572.918      904.047        1.678        0.305      165.681       19.121        0.013      343.057       18.900      859.232
09/08/2014  00:46:00     -125.515      -80.474        7.624       67.927       56.747       33.259     4614.053     3220.244     1106.154        1.561        0.447      149.098       35.717        0.057      343.270       19.263      859.284
09/08/2014  00:47:00     -166.951      -96.620       -1.699       51.149       35.487       24.018     2616.197     1259.354      576.848        2.083        0.223      192.894       26.995        0.020      343.587       19.801      859.296
09/08/2014  00:48:00      -91.040      -68.662        4.885       58.220       40.335       25.563     3389.549     1626.902      653.475        0.935        0.283      114.029       26.595        0.054      343.585       19.800      859.302
09/08/2014  00:49:00     -143.781      -77.470       -5.616       51.865       37.982       27.144     2690.019     1442.612      736.798        1.579        0.243      163.323       28.455        0.030      343.624       19.864      859.279
09/08/2014  00:50:00     -128.480      -19.925       -1.122       36.545       30.096       20.525     1335.557      905.764      421.282        0.978        0.133      130.016       19.371        0.022      343.500       19.653      859.240
09/08/2014  00:51:00     -123.547      -15.345       -5.105       71.713       37.018       28.267     5142.825     1370.322      799.041        1.142        0.366      124.497       34.617        0.077      343.358       19.411      859.224
09/08/2014  00:52:00     -110.500      -39.208       -4.548       60.588       52.231       29.510     3670.861     2728.128      870.844        1.052        0.363      117.250       29.285        0.062      343.265       19.254      859.236
09/08/2014  00:53:00     -181.692      -53.138       -6.785       54.060       34.478       31.609     2922.512     1188.742      999.149        2.050        0.256      189.303       30.934        0.027      343.160       19.073      859.238
09/08/2014  00:54:00     -151.740      -53.177        1.095       46.599       40.344       26.513     2171.436     1627.651      702.966        1.518        0.225      160.788       25.207        0.025      343.240       19.213      859.234
09/08/2014  00:55:00     -128.907      -24.947       -7.314       38.511       42.882       25.334     1483.069     1838.908      641.799        1.063        0.198      131.299       22.599        0.030      343.080       18.940      859.235
09/08/2014  00:56:00     -154.040      -25.865       -0.021       49.990       38.670       25.578     2499.043     1495.394      654.215        1.452        0.232      156.197       26.353        0.028      342.675       18.250      859.235
09/08/2014  00:57:00     -146.081      -43.367       -6.738       38.380       30.920       23.250     1473.050      956.077      540.551        1.312        0.148      152.382       20.847        0.019      342.718       18.323      859.238
09/08/2014  00:58:00     -152.742      -57.895       -5.738       30.250       21.881       20.440      915.052      478.788      417.788        1.426        0.091      163.346       12.869        0.006      342.900       18.632      859.234
09/08/2014  00:59:00     -131.471      -35.743       -2.733       33.857       34.417       17.388     1146.282     1184.554      302.340        1.060        0.132      136.243       11.887        0.008      342.979       18.769      859.232
09/08/2014  01:00:00     -135.740        3.360       -6.586       54.418       32.509       25.046     2961.288     1056.847      627.294        1.156        0.232      135.782       27.280        0.040      342.876       18.593      859.230
09/08/2014  01:01:00     -189.846      -23.949      -10.958       59.806       29.575       23.998     3576.760      874.701      575.916        2.088        0.251      191.351       28.277        0.022      343.167       19.086      859.223
09/08/2014  01:02:00     -103.984      -31.508       -2.901       59.384       39.207       20.532     3526.454     1537.186      421.583        0.865        0.274      108.653       26.466        0.059      343.121       19.010      859.246
09/08/2014  01:03:00     -112.413      -37.356        0.337       46.127       36.117       19.822     2127.717     1304.404      392.904        0.893        0.191      118.458       18.431        0.024      342.936       18.695      859.277
09/08/2014  01:04:00     -101.384      -69.594       -0.047       52.161       35.516       23.541     2720.775     1261.377      554.187        0.983        0.227      122.972       15.880        0.017      343.039       18.870      859.287
09/08/2014  01:05:00     -133.940      -74.365        3.328       41.357       49.760       27.879     1710.361     2476.106      777.221        1.422        0.248      153.199       24.784        0.026      343.144       19.047      859.299
09/08/2014  01:06:00     -135.660      -52.417        6.444       61.480       42.600       26.333     3779.831     1814.719      693.430        1.374        0.314      145.434       31.106        0.046      343.101       18.975      859.302
09/08/2014  01:07:00     -151.220      -66.647        2.036       53.241       55.678       36.704     2834.640     3100.008     1347.213        1.730        0.364      165.255       26.784        0.026      343.102       18.976      859.299
09/08/2014  01:08:00      -91.937      -61.091       -4.769       39.163       43.449       18.317     1533.767     1887.821      335.524        0.798        0.188      110.384        7.325        0.004      343.249       19.228      859.289
09/08/2014  01:09:00      -45.625      -29.898        6.556       36.762       36.951       19.881     1351.479     1365.408      395.240        0.306        0.156       54.548       19.617        0.129      343.114       18.999      859.292
09/08/2014  01:10:00      -44.771      -14.086        0.217       16.464       18.720       10.674      271.073      350.453      113.927        0.147        0.037       46.935       11.044        0.055      343.158       19.073      859.289
09/08/2014  01:11:00       -7.367      -22.012        5.869       17.771       22.392       11.350      315.823      501.386      128.830        0.076        0.047       23.212        7.185        0.096      343.095       18.966      859.291
09/08/2014  01:12:00        1.588      -52.806       -4.876       19.171       13.250       13.046      367.512      175.565      170.187        0.176        0.036       52.830       11.784        0.050      343.291       19.298      859.305
09/08/2014  01:13:00      -20.766      -35.155        8.855       30.088       21.729       16.865      905.280      472.132      284.434        0.170        0.083       40.830       11.920        0.085      343.199       19.143      859.342
09/08/2014  01:14:00      -62.680        3.895        1.659       21.096       29.553       18.042      445.022      873.361      325.529        0.280        0.082       62.801       16.293        0.067      343.060       18.904      859.343
09/08/2014  01:15:00      -69.627       38.632       -5.101       27.979       20.522       18.567      782.839      421.136      344.730        0.396        0.077       79.626       15.627        0.039      342.555       18.046      859.324
09/08/2014  01:16:00      -63.095       46.723       -1.025       32.728       25.338       14.560     1071.097      642.003      211.989        0.404        0.096       78.512       10.053        0.016      342.870       18.585      859.296
09/08/2014  01:17:00      -65.736       72.156      -13.131       17.188       21.715       13.065      295.412      471.544      170.690        0.532        0.047       97.610        9.168        0.009      343.232       19.201      859.263
09/08/2014  01:18:00      -50.861       88.622       -9.381       27.891       25.442       12.429      777.925      647.298      154.472        0.605        0.079      102.179        7.901        0.006      343.109       18.990      859.259
09/08/2014  01:19:00      -51.962       16.706       -4.514       16.089       22.792       14.293      258.849      519.481      204.293        0.199        0.049       54.581       15.044        0.076      343.225       19.187      859.256
09/08/2014  01:20:00        4.136      -46.616       -2.408       23.345       29.425       10.934      544.996      865.850      119.548        0.186        0.077       46.799       12.484        0.071      343.213       19.165      859.266
09/08/2014  01:21:00      -27.429     -114.403       -7.939       48.913       37.770       28.162     2392.437     1426.609      793.078        0.926        0.231      117.645       25.322        0.046      343.074       18.929      859.288
09/08/2014  01:22:00     -105.189      -94.640       -2.488       56.534       44.653       28.601     3196.056     1993.868      818.004        1.302        0.300      141.497       30.009        0.045      343.007       18.816      859.291
09/08/2014  01:23:00     -132.871      -71.204       -1.273       49.187       39.719       23.737     2419.326     1577.569      563.457        1.364        0.228      150.747       22.308        0.022      343.025       18.846      859.257
09/08/2014  01:24:00     -149.288      -64.820        3.675       46.396       35.721       20.817     2152.621     1275.982      433.340        1.518        0.193      162.753       22.151        0.019      343.017       18.832      859.225
09/08/2014  01:25:00     -149.608      -49.125        1.710       56.856       36.979       25.254     3232.657     1367.449      637.760        1.502        0.262      157.466       28.389        0.033      342.959       18.733      859.211
09/08/2014  01:26:00     -122.418      -70.006        5.986       63.437       40.066       27.199     4024.199     1605.284      739.775        1.315        0.318      141.022       31.692        0.051      342.971       18.754      859.211
09/08/2014  01:27:00      -59.020      -71.482       24.322       93.203       44.668       41.409     8686.707     1995.186     1714.678        1.079        0.620       92.699       53.548        0.334      342.948       18.714      859.238
09/08/2014  01:28:00     -180.122     -116.329       -2.392       88.145       69.003       40.178     7769.476     4761.351     1614.289        3.006        0.707      214.421       38.585        0.032      342.987       18.777      859.238
09/08/2014  01:29:00     -250.561     -107.491      -11.074       64.015       64.014       37.753     4097.912     4097.770     1425.271        4.204        0.481      272.645       38.371        0.020      343.135       19.028      859.186
09/08/2014  01:30:00     -219.185      -28.704       -9.495       74.913       66.747       40.312     5611.936     4455.116     1625.079        3.032        0.585      221.057       42.305        0.037      343.068       18.916      859.116
09/08/2014  01:31:00     -279.285      -14.366      -19.930       60.430       58.699       36.147     3651.831     3445.630     1306.581        4.350        0.420      279.654       28.707        0.011      342.938       18.694      859.080
09/08/2014  01:32:00     -239.701      -45.751      -18.092       77.940       46.999       31.785     6074.651     2208.886     1010.311        3.458        0.465      244.028       30.654        0.016      342.873       18.585      859.093
09/08/2014  01:33:00     -144.901      -36.493       -6.950       54.089       47.522       28.679     2925.601     2258.332      822.457        1.419        0.300      149.425       25.481        0.029      342.825       18.507      859.123
09/08/2014  01:34:00      -75.090      -22.159        5.653       53.773       53.812       25.144     2891.561     2895.691      632.227        0.629        0.321       78.291       20.674        0.070      342.646       18.200      859.165
09/08/2014  01:35:00      -74.270      -63.230        6.719       40.262       36.310       25.659     1621.061     1318.445      658.393        0.658        0.180       97.540       24.094        0.061      342.766       18.404      859.202
09/08/2014  01:36:00     -115.013      -80.715       -7.117       54.917       47.687       29.760     3015.849     2274.031      885.677        1.298        0.309      140.510       22.935        0.027      342.869       18.580      859.217
09/08/2014  01:37:00     -176.171      -76.691      -11.641       57.909       55.397       35.195     3353.434     3068.858     1238.659        2.236        0.383      192.139       36.768        0.037      342.798       18.458      859.230
09/08/2014  01:38:00     -190.879      -39.043       -6.087       77.025       56.801       35.108     5932.922     3226.322     1232.552        2.419        0.520      194.831       37.642        0.037      342.696       18.284      859.223
09/08/2014  01:39:00     -291.406       66.341      -21.395       55.204       53.232       26.660     3047.531     2833.677      710.738        4.818        0.330      298.862       20.612        0.005      342.748       18.370      859.201
09/08/2014  01:40:00     -174.857       88.124      -14.209       74.134       34.004       27.765     5495.897     1156.282      770.916        2.298        0.371      195.808       24.222        0.015      342.732       18.345      859.175
09/08/2014  01:41:00     -153.654      109.589      -30.981       51.302       39.527       32.533     2631.938     1562.393     1058.428        2.091        0.263      188.730       28.273        0.022      342.963       18.740      859.161
09/08/2014  01:42:00     -114.195       82.505       -6.193       54.200       46.241       38.032     2937.684     2138.269     1446.424        1.320        0.326      140.881       33.613        0.057      342.906       18.643      859.177
09/08/2014  01:43:00      -83.154       12.269       -0.993       33.499       43.756       22.296     1122.174     1914.567      497.094        0.530        0.177       84.054       16.099        0.037      342.744       18.368      859.219
09/08/2014  01:44:00      -47.317      -55.694       -4.725       70.457       42.298       25.960     4964.246     1789.140      673.923        0.639        0.371       73.080       18.330        0.063      342.629       18.172      859.255
09/08/2014  01:45:00      -65.193      -73.567        0.691       52.126       48.896       28.454     2717.081     2390.790      809.651        0.779        0.296       98.297       25.980        0.070      342.509       17.968      859.296
09/08/2014  01:46:00     -111.380      -63.736        0.367       63.478       56.295       34.320     4029.433     3169.072     1177.829        1.242        0.419      128.326       28.674        0.050      342.464       17.894      859.322
09/08/2014  01:47:00     -113.268      -26.555      -17.023       31.679       22.778       16.962     1003.535      518.824      287.710        0.782        0.091      116.339       12.982        0.012      342.527       17.999      859.324
09/08/2014  01:48:00      -50.283      -37.275       -0.079       27.321       18.267       17.635      746.449      333.697      310.995        0.265        0.070       62.592       11.762        0.035      342.396       17.776      859.306
09/08/2014  01:49:00      -54.104        8.080       -9.756       21.651       27.459       16.340      468.764      753.982      266.989        0.229        0.074       54.704       15.257        0.078      342.282       17.582      859.294
09/08/2014  01:50:00      -83.163       14.342      -17.955       18.074       46.322       15.707      326.682     2145.693      246.725        0.508        0.136       84.391        9.163        0.012      342.282       17.582      859.287
09/08/2014  01:51:00     -116.673      -28.215       -9.455       48.050       48.420       23.624     2308.762     2344.509      558.107        0.985        0.261      120.036       19.934        0.028      342.225       17.485      859.274
09/08/2014  01:52:00     -136.544       10.584      -11.139       32.058       30.652       21.112     1027.704      939.553      445.719        1.065        0.121      136.953       17.873        0.017      342.112       17.293      859.286
09/08/2014  01:53:00     -161.724       46.711      -12.166       14.671       19.267       14.199      215.250      371.208      201.621        1.464        0.039      168.335        9.065        0.003      342.181       17.412      859.298
09/08/2014  01:54:00     -143.964       18.383      -10.049       18.780       24.043       11.446      352.673      578.045      131.014        1.111        0.053      145.133        8.196        0.003      342.250       17.527      859.307
09/08/2014  01:55:00      -70.784      -35.424        5.447       50.075       24.321       22.108     2507.483      591.499      488.746        0.494        0.179       79.154       29.601        0.140      342.163       17.380      859.321
09/08/2014  01:56:00      -59.910      -43.017        4.585       39.116       21.895       21.377     1530.073      479.392      456.960        0.396        0.123       73.754       22.908        0.096      342.123       17.311      859.360
09/08/2014  01:57:00      -74.492     -116.977        2.194       61.495       90.745       33.788     3781.578     8234.616     1141.613        1.620        0.658      138.682       34.111        0.060      342.257       17.539      859.385
09/08/2014  01:58:00     -113.318     -136.910       -7.133       61.805       76.993       32.996     3819.851     5927.935     1088.716        2.123        0.542      177.722       36.234        0.042      342.532       18.004      859.371
09/08/2014  01:59:00     -179.669      -65.412       -2.758       57.086       65.599       31.881     3258.842     4303.177     1016.391        2.257        0.429      191.206       29.035        0.023      342.541       18.022      859.339
09/08/2014  02:00:00     -144.390      -64.927      -15.324       56.788       68.322       31.587     3224.929     4667.856      997.714        1.709        0.445      158.316       26.084        0.027      342.582       18.091      859.304
09/08/2014  02:01:00     -185.838        8.326       -8.424       60.714       67.783       34.069     3686.174     4594.542     1160.711        2.206        0.472      186.024       31.167        0.028      342.603       18.126      859.230
09/08/2014  02:02:00     -151.448       97.680      -25.412       53.486       45.056       32.674     2860.742     2030.008     1067.600        1.954        0.298      180.216       29.889        0.028      342.342       17.682      859.179
09/08/2014  02:03:00     -167.698       61.980      -15.214       54.616       33.085       27.451     2982.874     1094.607      753.532        1.851        0.242      178.785       24.742        0.019      342.542       18.023      859.151
09/08/2014  02:04:00     -141.847       43.438      -11.816       41.870       39.429       25.612     1753.075     1554.684      655.992        1.305        0.198      148.349       16.520        0.012      342.614       18.148      859.139
09/08/2014  02:05:00     -137.735       46.057      -17.913       52.859       46.115       27.853     2794.044     2126.579      775.767        1.355        0.285      145.231       18.516        0.016      342.454       17.875      859.153
09/08/2014  02:06:00     -126.439       51.708      -14.628       44.290       59.033       24.142     1961.626     3484.917      582.845        1.245        0.301      136.603       14.050        0.011      342.283       17.584      859.185
09/08/2014  02:07:00      -81.846      -35.377      -17.461       58.190       42.527       27.810     3386.053     1808.588      773.393        0.711        0.298       89.165       18.671        0.044      342.174       17.398      859.208
09/08/2014  02:08:00      -41.131      -33.640       14.832       78.008       45.543       44.466     6085.290     2074.205     1977.265        0.659        0.507       53.135       51.997        0.958      342.023       17.143      859.223
09/08/2014  02:09:00     -134.983      -13.421       -7.756       47.812       32.694       19.999     2285.952     1068.875      399.940        1.111        0.188      135.648       12.978        0.009      342.269       17.559      859.231
09/08/2014  02:10:00      -12.902       24.702        2.986       17.754       21.928       15.308      315.205      480.853      234.339        0.091        0.052       27.868       11.605        0.173      342.357       17.709      859.214
09/08/2014  02:11:00       11.691      -34.412        4.613       25.011       35.433       26.084      625.558     1255.525      680.355        0.195        0.128       36.343       20.650        0.323      342.246       17.521      859.208
09/08/2014  02:12:00      -64.119      -28.066       -7.126       50.431       30.215       18.546     2543.285      912.971      343.950        0.437        0.190       69.992       13.330        0.036      342.298       17.609      859.263
09/08/2014  02:13:00      -42.764      -46.118        8.295       66.427       36.922       25.562     4412.513     1363.245      653.416        0.523        0.321       62.894       28.414        0.204      342.139       17.340      859.337
09/08/2014  02:14:00     -132.583     -176.977       -4.528       53.244       57.977       32.643     2834.913     3361.344     1065.584        2.809        0.363      221.132       31.295        0.020      342.129       17.319      859.401
09/08/2014  02:15:00     -155.165      -96.816      -10.955       55.003       85.301       38.728     3025.378     7276.283     1499.889        2.268        0.590      182.892       36.874        0.041      342.215       17.468      859.416
09/08/2014  02:16:00     -179.581      -79.808      -13.025       68.928       60.277       37.059     4751.079     3633.328     1373.393        2.427        0.488      196.517       27.428        0.019      342.451       17.865      859.416
09/08/2014  02:17:00     -172.332      -29.977      -21.462       54.066       49.340       27.027     2923.166     2434.454      730.461        1.857        0.304      174.920       28.114        0.026      342.588       18.101      859.379
09/08/2014  02:18:00     -121.030       11.836       -7.084       39.952       31.298       18.350     1596.141      979.567      336.704        0.888        0.146      121.608       12.049        0.010      342.322       17.650      859.340
09/08/2014  02:19:00      -86.926      -13.061       -8.604       37.123       33.022       19.182     1378.091     1090.479      367.953        0.532        0.142       87.902       17.508        0.040      342.186       17.419      859.354
09/08/2014  02:20:00      -18.344      -50.186        5.507       55.684       29.327       19.556     3100.763      860.061      382.436        0.361        0.217       53.433       15.242        0.081      342.246       17.521      859.384
09/08/2014  02:21:00      -87.411      -34.716       -4.559       42.169       33.978       17.983     1778.233     1154.473      323.371        0.606        0.163       94.052       18.697        0.040      342.171       17.393      859.401
09/08/2014  02:22:00     -143.616     -104.815       -6.097       47.076       33.691       28.429     2216.168     1135.106      808.233        1.790        0.208      177.797       27.426        0.024      342.269       17.559      859.418
09/08/2014  02:23:00     -157.757      -91.143       -0.448       65.556       45.582       30.666     4297.639     2077.713      940.385        2.025        0.366      182.193       25.212        0.019      342.216       17.468      859.423
09/08/2014  02:24:00     -153.968     -109.407       -1.256       61.469       49.704       31.364     3778.391     2470.525      983.727        2.145        0.362      188.881       34.255        0.033      342.219       17.473      859.420
09/08/2014  02:25:00     -144.797      -46.319       -5.032       44.876       74.948       30.455     2013.877     5617.161      927.487        1.585        0.428      152.025       24.115        0.025      342.250       17.527      859.407
09/08/2014  02:26:00     -181.817      -27.760       -1.187       62.413       59.041       38.422     3895.409     3485.846     1476.281        2.134        0.443      183.924       35.768        0.038      342.294       17.601      859.386
09/08/2014  02:27:00     -233.587        6.854      -24.673       43.928       37.923       28.785     1929.686     1438.122      828.564        2.971        0.210      233.687       24.087        0.011      342.048       17.180      859.355
09/08/2014  02:28:00     -214.334       38.458      -11.090       60.386       52.686       32.047     3646.459     2775.866     1027.022        2.749        0.372      217.757       25.923        0.014      341.975       17.058      859.316
09/08/2014  02:29:00     -162.817       66.431       -6.892       64.359       33.532       31.070     4142.067     1124.370      965.329        1.860        0.312      175.847       24.948        0.020      342.083       17.243      859.299
09/08/2014  02:30:00     -103.945        5.057      -12.123       48.280       48.327       24.029     2330.948     2335.503      577.410        0.811        0.262      104.067       20.568        0.039      342.052       17.193      859.299
09/08/2014  02:31:00      -84.106      -30.842       -6.743       55.153       33.985       29.124     3041.868     1155.001      848.184        0.656        0.252       89.583       29.177        0.106      342.034       17.160      859.339
09/08/2014  02:32:00      -90.685      -43.795       -4.413       74.658       37.960       22.348     5573.808     1440.942      499.421        0.884        0.376      100.707       29.102        0.084      341.824       16.805      859.403
09/08/2014  02:33:00     -119.335      -15.877        1.491       62.359       46.793       30.362     3888.630     2189.577      921.834        1.075        0.350      120.387       32.327        0.072      341.514       16.278      859.489
09/08/2014  02:34:00     -163.325       29.110      -21.314       35.884       22.268       16.828     1287.662      495.864      283.187        1.502        0.103      165.899       14.974        0.008      341.358       16.015      859.541
09/08/2014  02:35:00      -62.483       14.505       -0.644       33.600       29.187       19.932     1128.969      851.899      397.296        0.325        0.119       64.144       17.121        0.071      341.364       16.025      859.553
09/08/2014  02:36:00      -65.756       48.847      -14.068       25.053       35.868       11.287      627.644     1286.491      127.405        0.447        0.102       81.914       11.393        0.019      341.565       16.367      859.564
09/08/2014  02:37:00      -56.675       25.652      -13.088       33.431       21.074       10.555     1117.653      444.096      111.415        0.286        0.084       62.210       10.501        0.028      341.615       16.449      859.559
09/08/2014  02:38:00     -141.714       32.796       -8.159       31.490       25.215       16.610      991.595      635.793      275.877        1.156        0.095      145.460        6.990        0.002      341.461       16.190      859.555
09/08/2014  02:39:00     -120.095       -8.440      -10.437       30.811       25.290       19.523      949.337      639.574      381.162        0.829        0.099      120.391       14.501        0.015      341.345       15.993      859.563
09/08/2014  02:40:00      -73.449       -0.561       -1.425       22.418       24.294       14.560      502.581      590.203      212.005        0.335        0.065       73.451       12.517        0.029      341.352       16.005      859.572
09/08/2014  02:41:00      -34.402       -1.774       -4.773       27.178       16.116       13.477      738.651      259.712      181.622        0.119        0.059       34.448        7.045        0.042      341.546       16.332      859.556
09/08/2014  02:42:00      -48.435        1.296        2.666       63.656       36.710       23.461     4052.113     1347.615      550.419        0.415        0.298       48.452       23.723        0.240      341.570       16.375      859.544
09/08/2014  02:43:00      -94.252       34.121       -3.936       46.561       25.614       16.069     2167.907      656.069      258.215        0.657        0.154      100.238       13.847        0.019      341.533       16.311      859.550
09/08/2014  02:44:00      -37.376      -24.353        0.041       15.519       23.129       13.806      240.839      534.963      190.596        0.148        0.048       44.609        9.875        0.049      341.511       16.275      859.562
09/08/2014  02:45:00      -71.247      -46.581       -6.918       29.082       20.899       14.403      845.752      436.789      207.441        0.439        0.074       85.123        7.013        0.007      341.632       16.478      859.577
09/08/2014  02:46:00      -19.909      -38.805       15.567       41.638       25.566       22.134     1733.708      653.614      489.924        0.251        0.144       43.614       21.373        0.240      341.639       16.492      859.584
09/08/2014  02:47:00       -0.575      -17.808       17.793       21.561       16.479       17.356      464.896      271.547      301.220        0.084        0.052       17.817       15.715        0.778      341.583       16.397      859.600
09/08/2014  02:48:00      -11.576      -24.271        6.635       21.289       19.561       13.138      453.238      382.633      172.599        0.089        0.050       26.890       14.171        0.278      341.693       16.583      859.588
09/08/2014  02:49:00      -34.588      -23.294        2.433       14.406       13.078       10.537      207.524      171.028      111.028        0.112        0.024       41.701        8.258        0.039      341.784       16.736      859.553
09/08/2014  02:50:00      -83.726      -28.788       -4.846       28.643       14.444       11.701      820.412      208.625      136.905        0.451        0.058       88.537       14.336        0.026      341.705       16.604      859.537
09/08/2014  02:51:00     -133.591      -24.771      -11.128       21.800       17.301       13.230      475.238      299.337      175.036        0.977        0.047      135.868        9.780        0.005      341.619       16.458      859.533
09/08/2014  02:52:00     -141.058      -18.556       -6.454       29.452       23.593       14.417      867.401      556.627      207.840        1.096        0.082      142.273       12.483        0.008      341.560       16.356      859.529
09/08/2014  02:53:00     -152.720      -44.984       -6.585       39.758       24.219       18.609     1580.691      586.559      346.292        1.395        0.126      159.208       21.771        0.019      341.525       16.297      859.523
09/08/2014  02:54:00     -156.028      -27.488      -15.743       35.462       34.736       17.814     1257.581     1206.574      317.350        1.406        0.139      158.431       13.598        0.007      341.511       16.273      859.513
09/08/2014  02:55:00     -162.811       23.393      -13.855       36.088       30.447       20.093     1302.316      927.020      403.710        1.494        0.132      164.483       15.052        0.008      341.367       16.031      859.482
09/08/2014  02:56:00     -151.703       13.044      -15.504       26.453       25.639       14.586      699.768      657.344      212.751        1.250        0.078      152.263        9.896        0.004      341.242       15.821      859.428
09/08/2014  02:57:00     -150.238       12.931      -12.003       35.637       27.516       23.886     1269.995      757.117      570.528        1.274        0.130      150.793       17.161        0.013      341.256       15.843      859.383
09/08/2014  02:58:00     -145.314        1.012       -6.607       56.008       38.391       30.228     3136.906     1473.901      913.702        1.334        0.276      145.317       30.233        0.043      341.264       15.855      859.364
09/08/2014  02:59:00     -100.605      -20.041       -7.516       55.127       46.806       30.805     3038.983     2190.846      948.974        0.838        0.309      102.582       22.779        0.049      341.187       15.725      859.386
09/08/2014  03:00:00     -158.840      -18.522       -4.154       59.891       48.797       31.824     3586.946     2381.178     1012.761        1.628        0.349      159.916       34.446        0.046      341.154       15.670      859.424
09/08/2014  03:01:00     -143.561      -39.253        2.920       82.098       36.155       30.762     6740.018     1307.179      946.271        1.557        0.450      148.830       38.357        0.066      341.112       15.598      859.449
09/08/2014  03:02:00     -109.115      -85.793        2.816       59.506       61.867       39.348     3540.997     3827.476     1548.304        1.409        0.446      138.804       38.855        0.078      341.188       15.728      859.456
09/08/2014  03:03:00     -142.083      -46.789        0.342       39.612       35.954       25.708     1569.120     1292.669      660.904        1.295        0.176      149.589       25.087        0.028      341.244       15.822      859.435
09/08/2014  03:04:00     -141.937       -9.137      -13.599       42.375       29.881       19.239     1795.636      892.852      370.125        1.174        0.153      142.231       18.729        0.017      341.203       15.753      859.399
09/08/2014  03:05:00     -153.431       67.362      -20.531       36.422       45.930       23.452     1326.582     2109.521      550.000        1.624        0.199      167.567       21.858        0.017      341.210       15.763      859.344
09/08/2014  03:06:00     -156.480      100.033      -29.430       57.004       52.722       30.773     3249.510     2779.629      946.953        2.117        0.349      185.722       33.499        0.033      341.400       16.084      859.285
09/08/2014  03:07:00     -131.752       89.078        0.766       68.362       54.996       48.007     4673.376     3024.530     2304.643        1.765        0.500      159.039       37.821        0.057      341.700       16.595      859.240
09/08/2014  03:08:00     -122.589       87.764       -6.554       67.531       50.870       44.046     4560.411     2587.776     1940.053        1.593        0.454      150.767       32.463        0.046      341.801       16.765      859.222
09/08/2014  03:09:00     -167.055       72.618      -25.049       61.756       42.652       36.426     3813.842     1819.153     1326.879        2.038        0.348      182.156       31.479        0.030      341.870       16.883      859.224
09/08/2014  03:10:00     -112.732       13.278      -18.483       39.455       51.170       24.742     1556.668     2618.364      612.164        0.901        0.239      113.511       16.298        0.021      341.656       16.520      859.239
09/08/2014  03:11:00      -64.416      -28.249        3.795       47.252       35.001       29.621     2232.781     1225.090      877.382        0.465        0.217       70.338       32.267        0.210      341.463       16.192      859.284
09/08/2014  03:12:00      -96.785      -98.269        1.288       60.717       49.433       35.902     3686.598     2443.583     1288.936        1.322        0.371      137.928       32.841        0.057      341.239       15.814      859.323
09/08/2014  03:13:00     -166.506     -159.533       -9.141      111.922       79.365       45.148    12526.481     6298.834     2038.363        3.706        1.043      230.597       48.628        0.044      341.348       15.995      859.345
09/08/2014  03:14:00     -173.745      -98.685      -10.960       75.302       50.274       32.274     5670.398     2527.446     1041.628        2.464        0.462      199.815       37.096        0.034      341.420       16.118      859.335
09/08/2014  03:15:00     -126.519        9.629       -1.595       45.871       44.792       26.548     2104.118     2006.300      704.771        1.046        0.241      126.885       25.871        0.042      341.538       16.320      859.298
09/08/2014  03:16:00     -102.545       47.236       -6.818       46.551       26.053       21.072     2167.009      678.739      444.019        0.804        0.164      112.901       20.731        0.034      341.593       16.413      859.268
09/08/2014  03:17:00      -86.139       42.658       -5.561       34.681       25.859       21.849     1202.787      668.684      477.385        0.581        0.117       96.124       14.726        0.023      341.660       16.527      859.252
09/08/2014  03:18:00     -114.939       31.465       -9.145       42.466       33.650       21.766     1803.383     1132.348      473.751        0.885        0.170      119.168       13.598        0.013      341.973       17.056      859.233
09/08/2014  03:19:00     -107.946      -10.276      -19.217       24.892       32.176       18.150      619.616     1035.281      329.411        0.706        0.099      108.434       10.401        0.009      341.856       16.858      859.214
09/08/2014  03:20:00     -127.100      -23.741       -4.798       41.507       44.494       30.269     1722.811     1979.759      916.241        1.068        0.231      129.299       24.899        0.037      341.656       16.521      859.199
09/08/2014  03:21:00     -157.939      -26.283      -19.804       47.311       48.982       24.977     2238.334     2399.279      623.860        1.564        0.263      160.111       25.724        0.026      341.569       16.371      859.186
09/08/2014  03:22:00     -127.394      -60.166      -12.444       43.897       39.719       24.338     1926.942     1577.590      592.331        1.205        0.205      140.887       19.697        0.020      341.387       16.062      859.186
09/08/2014  03:23:00     -139.323      -76.416       -6.931       53.948       47.669       30.580     2910.340     2272.325      935.141        1.571        0.306      158.903       29.298        0.034      341.256       15.844      859.188
09/08/2014  03:24:00     -139.828      -73.676       -4.990       69.509       39.045       27.146     4831.486     1524.475      736.907        1.605        0.355      158.051       28.525        0.033      341.304       15.922      859.196
09/08/2014  03:25:00     -101.815      -29.213       -1.986       47.636       40.618       23.471     2269.143     1649.808      550.876        0.785        0.223      105.923       23.918        0.051      341.376       16.043      859.198
09/08/2014  03:26:00     -138.257      -40.639       -7.916       22.246       22.360       13.303      494.888      499.977      176.960        1.100        0.059      144.106       11.117        0.006      341.410       16.103      859.185
09/08/2014  03:27:00     -112.252      -48.272       -6.814       28.179       26.832       14.340      794.080      719.954      205.640        0.835        0.086      122.191       11.187        0.008      341.433       16.142      859.176
09/08/2014  03:28:00      -51.746      -35.725        2.240       51.475       28.454       15.903     2649.711      809.644      252.903        0.383        0.186       62.880       16.360        0.068      341.391       16.070      859.194
09/08/2014  03:29:00      -31.162      -42.240        7.793       33.288       23.026       17.025     1108.110      530.204      289.850        0.237        0.096       52.491       18.710        0.127      341.434       16.144      859.208
09/08/2014  03:30:00      -30.557      -73.894       -2.750       31.845       38.075       21.073     1014.128     1449.679      444.067        0.465        0.145       79.963       22.237        0.077      341.432       16.141      859.223
09/08/2014  03:31:00      -32.305     -123.569       -6.891       17.967       16.735       18.057      322.830      280.044      326.065        0.864        0.046      127.722       11.181        0.008      341.546       16.332      859.249
09/08/2014  03:32:00      -36.046      -59.966       -3.652       29.896       43.481       18.784      893.768     1890.612      352.838        0.402        0.157       69.966       16.754        0.057      341.577       16.384      859.275
09/08/2014  03:33:00      -39.764      -61.689        7.744       39.955       29.791       24.391     1596.383      887.515      594.897        0.426        0.154       73.394       20.795        0.080      341.525       16.298      859.284
09/08/2014  03:34:00      -88.805      -98.712       -3.345       83.347       48.378       25.867     6946.754     2340.416      669.114        1.380        0.498      132.779       25.847        0.038      341.520       16.288      859.272
09/08/2014  03:35:00     -112.818      -93.879        2.186       65.377       52.496       31.341     4274.171     2755.785      982.288        1.478        0.401      146.769       32.780        0.050      341.454       16.177      859.268
09/08/2014  03:36:00      -91.406      -54.586        3.396       44.072       25.528       21.859     1942.313      651.702      477.796        0.721        0.154      106.464       22.540        0.045      341.476       16.214      859.254
09/08/2014  03:37:00      -40.728      -56.287        2.014       45.467       34.442       23.915     2067.213     1186.273      571.932        0.433        0.191       69.476       26.365        0.144      341.620       16.458      859.245
09/08/2014  03:38:00      -58.807      -49.953       -3.471       34.472       33.609       19.791     1188.288     1129.590      391.691        0.434        0.135       77.160       16.064        0.043      341.643       16.498      859.254
09/08/2014  03:39:00      -72.148      -67.543        4.392       64.986       43.089       31.887     4223.207     1856.686     1016.789        0.844        0.355       98.830       24.029        0.059      341.600       16.424      859.261
09/08/2014  03:40:00      -93.278      -78.605        3.980       63.135       46.977       35.418     3986.028     2206.814     1254.425        1.117        0.372      121.981       30.866        0.064      341.533       16.313      859.271
09/08/2014  03:41:00     -128.815      -68.728        7.586       54.183       55.227       34.377     2935.850     3050.040     1181.800        1.427        0.358      146.002       28.738        0.039      341.485       16.230      859.268
09/08/2014  03:42:00     -130.628      -46.021        4.589       56.975       41.986       27.912     3246.175     1762.835      779.087        1.249        0.289      138.498       27.875        0.041      341.471       16.206      859.249
09/08/2014  03:43:00      -98.237      -43.285        1.591       40.482       34.925       21.726     1638.752     1219.724      472.031        0.743        0.167      107.351       21.859        0.041      341.458       16.184      859.234
09/08/2014  03:44:00      -95.964      -33.153        2.004       38.406       28.270       16.550     1474.993      799.206      273.911        0.643        0.127      101.529        9.916        0.010      341.561       16.359      859.225
09/08/2014  03:45:00      -92.013       -0.038       -8.604       25.537       18.501       11.451      652.153      342.293      131.123        0.483        0.056       92.013        8.277        0.008      341.471       16.207      859.227
09/08/2014  03:46:00     -107.919      -35.020       -5.155       28.645       18.094       15.831      820.563      327.390      250.608        0.715        0.070      113.459       11.500        0.010      341.507       16.267      859.246
09/08/2014  03:47:00      -91.372      -65.601        2.856       44.508       33.628       23.718     1980.945     1130.864      562.552        0.817        0.184      112.482       21.318        0.036      341.559       16.354      859.292
09/08/2014  03:48:00      -74.506      -75.931        1.265       50.536       58.209       28.239     2553.926     3388.248      797.454        0.903        0.337      106.380       23.890        0.050      341.479       16.219      859.335
09/08/2014  03:49:00     -103.304     -160.923       -3.781       73.676       68.015       35.089     5428.167     4626.035     1231.273        2.393        0.564      191.227       40.960        0.046      341.455       16.178      859.353
09/08/2014  03:50:00     -106.463     -143.372      -10.986       40.175       61.711       27.146     1614.022     3808.250      736.923        1.908        0.308      178.577       18.553        0.011      341.413       16.107      859.360
09/08/2014  03:51:00      -95.299      -73.651       -3.812       59.086       64.400       24.192     3491.143     4147.355      585.255        1.137        0.411      120.443       28.966        0.058      341.369       16.033      859.387
09/08/2014  03:52:00      -75.115      -18.535       -4.179       34.164       33.809       23.528     1167.210     1143.035      553.549        0.443        0.143       77.368       16.768        0.047      341.341       15.988      859.411
09/08/2014  03:53:00      -25.292       -7.083       10.953       23.685       28.911       17.957      560.967      835.861      322.442        0.126        0.086       26.265       12.119        0.213      341.307       15.928      859.429
09/08/2014  03:54:00      -14.054        6.193        4.903       12.270       17.905       11.156      150.563      320.586      124.466        0.043        0.030       15.358        4.437        0.083      341.272       15.871      859.411
09/08/2014  03:55:00       23.417       91.910      -12.256       26.063       30.007       17.103      679.260      900.449      292.503        0.551        0.094       94.846       15.853        0.028      341.264       15.855      859.378
09/08/2014  03:56:00       23.966      103.195      -16.556       24.462       21.067       14.353      598.380      443.814      206.002        0.637        0.062      105.942       10.283        0.009      341.165       15.687      859.355
09/08/2014  03:57:00      -12.896       61.410       -8.002       13.460       35.997       13.997      181.167     1295.794      195.919        0.284        0.084       62.749       18.988        0.092      341.123       15.618      859.353
09/08/2014  03:58:00      -47.919      -16.135        0.672       40.725       41.902       22.597     1658.503     1755.772      510.632        0.324        0.196       50.563       20.223        0.160      341.234       15.804      859.374
09/08/2014  03:59:00      -47.024      -43.633        4.104       50.489       29.647       20.066     2549.127      878.965      402.628        0.398        0.192       64.149       20.276        0.100      341.229       15.796      859.400
09/08/2014  04:00:00       11.252      -12.440        8.062       26.344       19.192       15.451      694.006      368.321      238.731        0.082        0.065       16.774        9.914        0.349      341.316       15.944      859.433
09/08/2014  04:01:00       11.295       10.755       -2.287        8.644       14.165        9.226       74.715      200.650       85.116        0.030        0.018       15.597        6.182        0.157      341.239       15.813      859.438
09/08/2014  04:02:00       33.015       45.343       22.549       22.861       18.674       20.152      522.646      348.731      406.101        0.247        0.064       56.089       12.839        0.052      341.160       15.679      859.423
09/08/2014  04:03:00       24.527       23.631       29.565       17.544       18.476       21.402      307.782      341.346      458.057        0.157        0.055       34.058       12.569        0.136      341.147       15.658      859.413
09/08/2014  04:04:00       -3.603       15.869       32.921       11.906       19.316       11.513      141.748      373.103      132.539        0.100        0.032       16.273        6.992        0.185      341.144       15.653      859.401
09/08/2014  04:05:00        7.103      -12.583       18.626       12.216       24.556        8.691      149.240      602.997       75.526        0.069        0.041       14.449        7.225        0.250      341.184       15.723      859.398
09/08/2014  04:06:00      -11.920      -41.349      -15.997       29.020       20.538       12.369      842.172      421.816      152.989        0.176        0.071       43.032       10.502        0.060      341.352       16.005      859.416
09/08/2014  04:07:00      -11.023      -19.250        4.917       29.541       24.938       17.250      872.644      621.922      297.580        0.115        0.090       22.183       13.573        0.374      341.334       15.974      859.426
09/08/2014  04:08:00      -66.756      -29.807       -4.383       43.970       25.093       17.483     1933.345      629.683      305.662        0.412        0.143       73.108       10.323        0.020      341.281       15.885      859.408
09/08/2014  04:09:00     -128.976      -35.879      -12.236       28.154       29.159       18.088      792.627      850.242      327.186        1.002        0.099      133.874       13.150        0.010      341.253       15.836      859.358
09/08/2014  04:10:00      -83.358        0.189       -9.298       43.708       19.720       17.319     1910.423      388.894      299.932        0.482        0.130       83.358       23.711        0.081      341.159       15.678      859.323
09/08/2014  04:11:00      -75.890        5.719       -2.956       17.836       17.524        8.914      318.137      307.100       79.463        0.325        0.035       76.105        6.334        0.007      341.192       15.735      859.326
09/08/2014  04:12:00      -98.407      -30.034       -6.291       28.137       28.199       12.213      791.710      795.211      149.147        0.618        0.087      102.888       11.124        0.012      341.153       15.668      859.345
09/08/2014  04:13:00     -157.245      -63.199       -2.591       32.368       28.809       17.046     1047.697      829.979      290.552        1.545        0.108      169.470       14.999        0.008      341.066       15.520      859.359
09/08/2014  04:14:00     -139.358      -69.622       -4.896       59.011       34.694       25.942     3482.310     1203.656      672.979        1.482        0.268      155.782       23.001        0.022      341.024       15.451      859.345
09/08/2014  04:15:00     -177.633      -28.819      -11.117       60.186       44.539       31.146     3622.402     1983.689      970.084        1.954        0.329      179.955       35.433        0.039      341.007       15.419      859.320
09/08/2014  04:16:00     -188.099      -64.333       -3.065       53.980       39.012       31.053     2913.806     1521.929      964.278        2.246        0.270      198.796       30.736        0.024      340.899       15.234      859.282
09/08/2014  04:17:00     -191.648      -51.916       -8.439       61.148       48.436       28.984     3739.061     2346.075      840.065        2.321        0.346      198.556       26.386        0.018      340.812       15.089      859.242
09/08/2014  04:18:00     -198.510        0.060      -14.584       70.491       67.881       37.385     4968.990     4607.860     1397.624        2.529        0.549      198.510       36.518        0.034      340.835       15.127      859.216
09/08/2014  04:19:00     -212.748        4.686      -17.525       54.217       47.125       31.288     2939.448     2220.747      978.969        2.586        0.307      212.800       32.280        0.023      340.793       15.054      859.196
09/08/2014  04:20:00     -163.766       -7.363      -10.979       50.454       36.800       32.419     2545.589     1354.228     1050.996        1.597        0.248      163.932       27.537        0.028      340.769       15.017      859.157
09/08/2014  04:21:00     -121.496      -31.667       -0.271       37.244       54.798       27.876     1387.097     3002.801      777.057        1.046        0.258      125.555       20.518        0.027      340.773       15.025      859.107
09/08/2014  04:22:00     -146.513       -4.027      -12.452       50.888       51.594       27.645     2589.623     2661.920      764.240        1.383        0.301      146.569       19.561        0.018      340.734       14.957      859.065
09/08/2014  04:23:00     -156.467       12.856      -20.539       38.991       38.050       25.004     1520.316     1447.824      625.198        1.433        0.180      156.994       20.287        0.017      340.748       14.985      859.040
09/08/2014  04:24:00     -147.234       21.444      -14.947       46.214       51.522       36.169     2135.727     2654.489     1308.176        1.423        0.305      148.787       27.170        0.033      340.837       15.133      859.043
09/08/2014  04:25:00     -168.600       16.598      -17.948       52.734       53.336       36.790     2780.855     2844.697     1353.498        1.800        0.349      169.415       28.842        0.029      340.853       15.159      859.051
09/08/2014  04:26:00     -123.290       20.939      -11.773       56.810       40.245       33.614     3227.347     1619.625     1129.933        1.088        0.299      125.056       33.852        0.073      340.862       15.174      859.075
09/08/2014  04:27:00     -130.145       56.649      -20.851       36.208       50.829       30.747     1311.010     2583.550      945.397        1.271        0.242      141.939       26.783        0.036      340.934       15.298      859.101
09/08/2014  04:28:00     -150.336       74.073      -21.408       51.107       34.800       32.950     2611.928     1211.043     1085.675        1.673        0.245      167.594       32.508        0.038      340.886       15.215      859.135
09/08/2014  04:29:00      -84.173       57.727      -10.614       37.712       39.277       26.588     1422.169     1542.688      706.923        0.710        0.184      102.066       22.259        0.048      340.858       15.169      859.153
09/08/2014  04:30:00      -31.284       38.352        5.589       31.060       35.372       20.608      964.736     1251.200      424.683        0.256        0.132       49.493       21.060        0.181      340.851       15.156      859.180
09/08/2014  04:31:00      -68.381      -12.060       -9.607       28.299       27.475       17.966      800.806      754.850      322.776        0.340        0.094       69.436        8.483        0.015      341.006       15.417      859.223
09/08/2014  04:32:00     -108.124      -47.037       -7.278       37.532       31.011       17.432     1408.615      961.685      303.869        0.831        0.134      117.912       12.615        0.011      341.000       15.408      859.248
09/08/2014  04:33:00     -140.644      -77.871      -14.408       30.585       28.242       18.580      935.436      797.635      345.202        1.406        0.104      160.763        5.118        0.001      340.824       15.110      859.291
09/08/2014  04:34:00      -89.663      -66.794        8.788       59.595       46.039       34.788     3551.535     2119.575     1210.183        0.973        0.344      111.807       37.359        0.112      340.807       15.083      859.318
09/08/2014  04:35:00      -88.518     -128.332      -13.897       60.108       81.616       41.771     3612.922     6661.140     1744.788        1.826        0.601      155.899       25.340        0.026      340.820       15.104      859.348
09/08/2014  04:36:00     -101.077      -74.127       14.716       60.658       43.066       30.038     3679.358     1854.652      902.290        1.118        0.322      125.345       15.718        0.016      340.766       15.012      859.341
09/08/2014  04:37:00      -28.173      -22.349        1.888       50.599       31.734       21.009     2560.217     1007.039      441.393        0.265        0.200       35.961       20.153        0.314      340.822       15.108      859.297
09/08/2014  04:38:00        4.697       33.887       13.594       25.947       34.114       22.442      673.235     1163.733      503.651        0.185        0.117       34.211       19.803        0.335      340.906       15.249      859.245
09/08/2014  04:39:00       16.797       46.693       -6.692       10.080       13.925       10.639      101.602      193.908      113.185        0.146        0.020       49.622        5.767        0.014      340.858       15.169      859.216
09/08/2014  04:40:00       -5.812       22.110       -8.133       10.510       12.383        5.487      110.459      153.327       30.104        0.044        0.015       22.861        7.494        0.107      341.059       15.510      859.210
09/08/2014  04:41:00      -56.855       -8.819       -5.461       20.715       14.651        8.114      429.132      214.663       65.838        0.202        0.035       57.535        6.674        0.013      341.048       15.488      859.256
09/08/2014  04:42:00      -69.271      -39.852       -4.437       51.287       34.362       19.922     2630.351     1180.749      396.880        0.531        0.210       79.916       19.434        0.059      340.853       15.159      859.322
09/08/2014  04:43:00     -136.025     -137.888       -5.675       57.373       81.646       40.294     3291.708     6666.038     1623.591        2.456        0.579      193.690       26.330        0.018      340.903       15.242      859.363
09/08/2014  04:44:00     -115.432     -106.435       -5.612       45.306       57.469       31.877     2052.601     3302.709     1016.131        1.553        0.319      157.013       20.760        0.017      340.922       15.276      859.370
09/08/2014  04:45:00      -46.135      -84.676        6.029       52.897       41.888       31.916     2798.079     1754.591     1018.645        0.745        0.279       96.429       30.228        0.098      340.964       15.348      859.369
09/08/2014  04:46:00      -41.238      -24.457       -4.635       18.250       37.845       19.371      333.075     1432.272      375.247        0.223        0.107       47.944       21.530        0.202      341.041       15.479      859.324
09/08/2014  04:47:00      -85.126       -3.859      -10.459       16.962       32.710       14.217      287.701     1069.919      202.110        0.446        0.078       85.214        6.569        0.006      341.135       15.639      859.259
09/08/2014  04:48:00      -48.575      -13.935       -7.231       14.964       17.720        9.829      223.913      314.010       96.613        0.162        0.032       50.535        9.785        0.037      341.223       15.786      859.213
09/08/2014  04:49:00      -63.992       13.196       -3.317       29.816       15.271       13.686      889.005      233.207      187.311        0.279        0.065       65.338       14.558        0.050      341.182       15.719      859.166
09/08/2014  04:50:00      -81.648       24.928       -5.336       19.890       10.897        9.822      395.608      118.755       96.475        0.396        0.031       85.368        8.001        0.009      341.092       15.564      859.126
09/08/2014  04:51:00      -91.188        7.994       -8.779       12.104       14.904       10.403      146.511      222.115      108.221        0.447        0.024       91.538        7.938        0.008      341.043       15.480      859.091
09/08/2014  04:52:00      -77.827      -36.603       -6.315       17.936       25.716        9.957      321.707      661.324       99.136        0.426        0.054       86.004        6.467        0.006      341.019       15.443      859.077
09/08/2014  04:53:00      -53.130      -55.512       19.042       39.622       26.681       23.638     1569.884      711.898      558.770        0.455        0.142       76.840       22.510        0.086      340.963       15.348      859.100
09/08/2014  04:54:00      -77.638      -66.936        8.797       63.231       53.941       34.577     3998.109     2909.670     1195.578        0.934        0.405      102.509       36.954        0.130      340.971       15.360      859.139
09/08/2014  04:55:00     -145.842     -116.236        2.641       99.046       95.867       45.351     9810.045     9190.490     2056.732        2.792        1.053      186.496       52.763        0.080      341.008       15.419      859.185
09/08/2014  04:56:00     -282.569     -139.510       -2.509      130.772       94.305       64.160    17101.314     8893.506     4116.546        6.471        1.506      315.132       63.946        0.041      340.864       15.174      859.189
09/08/2014  04:57:00     -272.309        0.914      -17.353       48.357       80.570       38.646     2338.395     6491.579     1493.475        4.239        0.516      272.311       24.534        0.008      340.855       15.159      859.169
09/08/2014  04:58:00     -144.938        6.526      -16.120       47.797       44.928       30.105     2284.557     2018.518      906.306        1.326        0.260      145.085       31.623        0.048      340.777       15.033      859.142
09/08/2014  04:59:00      -90.366       -8.116       -3.468       38.807       41.445       23.381     1505.955     1717.685      546.652        0.601        0.189       90.730       20.386        0.050      340.744       14.975      859.135
09/08/2014  05:00:00      -10.841      -52.600        6.333       41.814       27.446       25.983     1748.407      753.293      675.109        0.305        0.159       53.706       21.071        0.154      340.785       15.045      859.163
09/08/2014  05:01:00      -19.827     -107.320       -9.604       41.949       60.659       27.048     1759.742     3679.511      731.610        0.909        0.309      109.136       24.014        0.048      340.889       15.222      859.215
09/08/2014  05:02:00      -64.613      -59.961       -9.780       30.968       58.103       27.076      958.999     3375.954      733.117        0.647        0.253       88.148       19.295        0.048      340.902       15.243      859.256
09/08/2014  05:03:00     -149.381      -87.202      -10.810       60.546       49.613       28.497     3665.821     2461.421      812.101        1.849        0.347      172.970       18.389        0.011      340.867       15.183      859.264
09/08/2014  05:04:00     -124.032      -37.667       -8.423       48.289       53.280       29.196     2331.782     2838.753      852.390        1.145        0.301      129.625       25.895        0.040      340.932       15.294      859.217
09/08/2014  05:05:00     -125.839       55.516       -5.820       44.423       31.758       35.158     1973.424     1008.563     1236.096        1.158        0.211      137.541       20.680        0.023      340.990       15.393      859.165
09/08/2014  05:06:00     -132.433       77.026      -15.930       35.219       38.241       24.296     1240.354     1462.369      590.289        1.351        0.165      153.204       22.944        0.022      341.084       15.552      859.126
09/08/2014  05:07:00     -123.142       77.538      -19.156       31.484       47.230       22.995      991.246     2230.659      528.764        1.265        0.188      145.521       17.547        0.015      341.235       15.808      859.087
09/08/2014  05:08:00     -115.358       15.679      -16.202       37.171       45.188       26.309     1381.679     2041.951      692.162        0.897        0.206      116.419       17.023        0.021      341.171       15.699      859.061
09/08/2014  05:09:00     -112.931      -10.835       -6.654       37.262       36.313       36.522     1388.478     1318.601     1333.841        0.848        0.202      113.449       26.206        0.053      341.118       15.609      859.063
09/08/2014  05:10:00      -75.169      -44.597      -15.314       56.292       33.787       27.914     3168.816     1141.585      779.189        0.648        0.254       87.403       17.809        0.042      340.986       15.387      859.095
09/08/2014  05:11:00      -65.758      -38.872        2.980       53.110       35.279       25.643     2820.721     1244.612      657.563        0.528        0.236       76.388       25.951        0.115      340.928       15.287      859.130
09/08/2014  05:12:00     -108.365     -129.117       15.024       85.514       90.335       48.625     7312.726     8160.453     2364.403        2.324        0.892      168.565       45.386        0.072      340.891       15.223      859.175
09/08/2014  05:13:00     -223.425     -169.565       -0.445       99.521      117.640       51.502     9904.436    13839.053     2652.454        5.253        1.320      280.484       48.630        0.030      340.668       14.844      859.206
09/08/2014  05:14:00     -221.305     -144.232       -0.704      118.680       96.792       47.714    14084.941     9368.663     2276.607        4.775        1.287      264.156       53.698        0.041      340.645       14.804      859.221
09/08/2014  05:15:00     -102.638      -40.444       16.484       72.480       54.403       32.057     5253.320     2959.739     1027.664        1.084        0.462      110.319       27.926        0.064      340.815       15.097      859.204
09/08/2014  05:16:00      -77.070       19.995       -5.366       39.830       26.736       22.403     1586.418      714.810      501.895        0.459        0.140       79.622       21.399        0.072      340.944       15.314      859.182
09/08/2014  05:17:00      -90.950       10.270       -6.673       46.777       31.406       20.471     2188.128      986.318      419.079        0.601        0.180       91.528       11.401        0.016      340.813       15.093      859.197
09/08/2014  05:18:00      -40.813      -46.903        9.450       65.701       39.007       34.336     4316.667     1521.520     1178.961        0.548        0.351       62.174       34.725        0.312      340.868       15.187      859.253
09/08/2014  05:19:00     -124.953     -134.228        1.159      118.943       85.033       50.109    14147.377     7230.616     2510.941        2.876        1.194      183.386       54.047        0.087      340.858       15.166      859.319
09/08/2014  05:20:00     -281.751      -91.840       -5.568       84.703       75.891       45.578     7174.578     5759.468     2077.361        5.143        0.751      296.341       41.504        0.020      340.700       14.897      859.329
09/08/2014  05:21:00     -109.147      -62.499        8.872      111.754       60.722       45.227    12488.932     3687.147     2045.460        1.706        0.911      125.774       47.490        0.143      340.680       14.867      859.336
09/08/2014  05:22:00     -150.799      -89.951        2.817       72.458       54.087       37.985     5250.134     2925.390     1442.826        2.023        0.481      175.589       31.575        0.032      340.887       15.216      859.324
09/08/2014  05:23:00     -111.918      -26.804       -0.734       52.480       48.076       27.830     2754.176     2311.273      774.508        0.954        0.292      115.083       28.096        0.060      340.933       15.295      859.302
09/08/2014  05:24:00     -111.381      -28.044      -14.261       27.753       38.148       15.996      770.235     1455.251      255.869        0.794        0.124      114.857        8.345        0.005      340.890       15.224      859.288
09/08/2014  05:25:00     -115.711      -53.871       -5.776       20.800       19.034       15.700      432.636      362.289      246.486        0.868        0.052      127.637       13.134        0.011      340.892       15.227      859.297
09/08/2014  05:26:00      -91.689      -18.925        2.259       37.472       28.629       20.232     1404.133      819.619      409.315        0.570        0.132       93.622       20.711        0.049      340.899       15.235      859.279
09/08/2014  05:27:00     -103.732      -14.948       -9.616       22.211       40.868       17.526      493.331     1670.161      307.153        0.677        0.124      104.803       13.801        0.017      340.817       15.100      859.244
09/08/2014  05:28:00     -114.117       20.769      -13.769       37.334       21.970       17.397     1393.807      482.680      302.667        0.791        0.109      115.992       16.372        0.020      340.707       14.915      859.244
09/08/2014  05:29:00     -116.738       23.986      -13.499       46.822       41.571       22.457     2192.338     1728.124      504.302        0.940        0.221      119.177       18.806        0.025      340.548       14.645      859.238
09/08/2014  05:30:00      -90.981        9.318      -12.585       42.082       31.101       19.619     1770.888      967.276      384.904        0.582        0.156       91.456       19.994        0.048      340.548       14.644      859.241
09/08/2014  05:31:00      -88.802       19.600      -14.778       35.806       25.689       22.466     1282.071      659.899      504.738        0.547        0.122       90.939       21.056        0.054      340.630       14.785      859.247
09/08/2014  05:32:00      -67.226       -2.150       -1.875       28.040       30.004       18.491      786.222      900.212      341.905        0.328        0.101       67.260       17.407        0.067      340.611       14.751      859.240
09/08/2014  05:33:00      -58.497       30.323       -2.592       21.179       21.212       20.052      448.557      449.941      402.068        0.282        0.065       65.889       17.544        0.071      340.679       14.866      859.241
09/08/2014  05:34:00      -88.189       -4.535       -9.524       20.805       50.506       17.028      432.838     2550.860      289.963        0.558        0.164       88.305        9.518        0.012      340.687       14.880      859.232
09/08/2014  05:35:00      -45.622      -49.563        4.069       54.939       31.597       27.587     3018.263      998.389      761.066        0.467        0.239       67.364       21.526        0.102      340.680       14.869      859.214
09/08/2014  05:36:00      -55.014      -66.496       10.636       81.141       65.865       46.519     6583.821     4338.158     2164.049        1.032        0.654       86.304       49.524        0.329      340.560       14.663      859.196
09/08/2014  05:37:00     -189.270     -138.780        1.738       71.838       60.291       39.241     5160.675     3634.957     1539.883        3.271        0.517      234.698       33.996        0.021      340.463       14.496      859.192
09/08/2014  05:38:00     -198.716     -113.698       -2.392       81.093       57.111       43.632     6576.022     3261.670     1903.757        3.208        0.587      228.944       38.480        0.028      340.480       14.525      859.179
09/08/2014  05:39:00     -170.406      -44.325       -4.112       54.176       37.050       33.805     2935.042     1372.726     1142.769        1.823        0.273      176.076       32.502        0.034      340.520       14.597      859.179
09/08/2014  05:40:00      -94.415      -27.554        3.664       51.458       42.213       24.798     2647.875     1781.953      614.959        0.736        0.252       98.353       30.908        0.099      340.575       14.690      859.178
09/08/2014  05:41:00     -103.696      -14.072       -5.227       33.330       36.688       22.806     1110.918     1346.007      520.097        0.698        0.149      104.646       13.874        0.018      340.624       14.773      859.194
09/08/2014  05:42:00     -179.121      -54.059      -12.200       55.730       42.651       27.132     3105.796     1819.148      736.156        2.041        0.283      187.101       30.267        0.026      340.575       14.689      859.195
09/08/2014  05:43:00     -127.052      -80.462      -15.368       68.917       44.434       30.311     4749.494     1974.378      918.751        1.525        0.382      150.387       16.835        0.013      340.587       14.710      859.184
09/08/2014  05:44:00     -126.263      -43.531        4.974       60.315       47.097       24.073     3637.926     2218.158      579.505        1.215        0.322      133.556       27.587        0.043      340.571       14.684      859.184
09/08/2014  05:45:00     -181.616      -33.133       -0.904       50.818       34.670       26.581     2582.430     1202.031      706.543        1.929        0.225      184.613       28.994        0.025      340.491       14.545      859.175
09/08/2014  05:46:00     -132.751      -35.129       -0.479       51.606       37.655       27.665     2663.137     1417.892      765.350        1.185        0.242      137.320       28.566        0.043      340.459       14.493      859.159
09/08/2014  05:47:00     -110.877      -20.459       -7.370       38.229       33.588       17.718     1461.443     1128.159      313.935        0.783        0.145      112.748       16.601        0.022      340.492       14.549      859.159
09/08/2014  05:48:00     -106.065      -36.244        0.767       40.610       36.985       27.492     1649.163     1367.900      755.801        0.817        0.189      112.086       23.873        0.045      340.523       14.602      859.181
09/08/2014  05:49:00      -47.835      -50.649        6.448       44.613       24.910       24.059     1990.354      620.507      578.853        0.404        0.159       69.667       25.001        0.129      340.604       14.739      859.231
09/08/2014  05:50:00      -10.230     -105.836       -6.325       29.056       24.567       19.316      844.229      603.539      373.101        0.658        0.091      106.329        9.169        0.007      340.832       15.126      859.300
09/08/2014  05:51:00      -39.923      -77.395       -1.654       44.720       46.728       33.732     1999.889     2183.464     1137.876        0.645        0.266       87.085       26.097        0.090      340.868       15.185      859.353
09/08/2014  05:52:00      -38.573     -123.268      -16.064       46.802       48.478       34.631     2190.431     2350.101     1199.326        1.134        0.287      129.162       26.337        0.042      340.858       15.167      859.404
09/08/2014  05:53:00      -63.553     -124.290       -1.398       52.351       41.061       27.639     2740.631     1686.033      763.941        1.234        0.260      139.596       19.504        0.020      340.794       15.060      859.450
09/08/2014  05:54:00     -106.484      -66.087       -3.011       65.873       49.177       31.698     4339.191     2418.336     1004.792        1.174        0.388      125.325       20.441        0.027      340.670       14.851      859.457
09/08/2014  05:55:00     -150.858     -117.614       -7.803       63.650       84.804       34.905     4051.259     7191.641     1218.385        2.455        0.623      191.288       37.607        0.039      340.569       14.676      859.435
09/08/2014  05:56:00     -147.085      -85.224        6.009       74.972       59.623       43.034     5620.859     3554.844     1851.963        1.998        0.551      169.991       42.106        0.061      340.543       14.633      859.412
09/08/2014  05:57:00     -162.645      -86.433       -3.878       74.746       63.326       38.292     5586.909     4010.233     1466.243        2.250        0.553      184.185       38.700        0.044      340.622       14.769      859.405
09/08/2014  05:58:00     -123.144     -100.703       10.640       76.113       59.871       38.501     5793.165     3584.491     1482.365        1.814        0.543      159.077       41.188        0.067      340.755       14.993      859.402
09/08/2014  05:59:00      -68.044      -56.543       -0.032       47.747       35.614       21.719     2279.778     1268.347      471.736        0.592        0.201       88.471       15.235        0.030      340.752       14.989      859.401
09/08/2014  06:00:00     -101.235      -48.253       -4.376       34.457       41.440       20.061     1187.259     1717.264      402.453        0.795        0.165      112.146       17.660        0.025      340.809       15.086      859.399
09/08/2014  06:01:00      -90.350      -45.910      -11.630       22.432       30.977       19.063      503.216      959.585      363.392        0.612        0.091      101.346       15.524        0.023      340.861       15.173      859.399
09/08/2014  06:02:00      -54.718      -51.168        9.354       33.244       24.910       16.410     1105.143      620.504      269.276        0.385        0.100       74.915       17.356        0.054      340.850       15.155      859.389
09/08/2014  06:03:00     -109.513      -51.784       -6.181       35.724       29.280       15.853     1276.171      857.303      251.327        0.855        0.119      121.139       11.329        0.009      340.853       15.159      859.388
09/08/2014  06:04:00     -125.942      -48.518       -7.934       43.847       29.182       17.470     1922.564      851.612      305.187        1.068        0.154      134.964       12.552        0.009      340.754       14.992      859.391
09/08/2014  06:05:00      -72.276      -56.591        9.001       67.418       34.158       27.058     4545.130     1166.781      732.147        0.747        0.322       91.795       30.586        0.111      340.683       14.872      859.413
09/08/2014  06:06:00      -99.834      -45.255        7.231       60.100       59.734       31.473     3612.013     3568.102      990.533        1.012        0.409      109.613       29.945        0.075      340.643       14.806      859.453
09/08/2014  06:07:00     -175.879     -100.700      -14.333       49.088       49.579       30.209     2409.645     2458.076      912.579        2.353        0.289      202.667       19.253        0.009      340.628       14.778      859.503
09/08/2014  06:08:00     -135.407      -86.645       -6.587       57.250       34.484       25.561     3277.597     1189.113      653.351        1.550        0.256      160.755       18.349        0.013      340.557       14.660      859.518
09/08/2014  06:09:00     -147.378      -38.690      -20.983       69.736       44.968       25.364     4863.116     2022.122      643.308        1.559        0.376      152.372       28.340        0.035      340.633       14.787      859.517
09/08/2014  06:10:00      -90.352      -33.261       -1.570       27.159       28.481       16.189      737.617      811.166      262.075        0.554        0.091       96.279       14.347        0.022      340.601       14.734      859.488
09/08/2014  06:11:00      -45.603       21.733       -1.846       39.996       39.699       20.859     1599.697     1576.013      435.093        0.308        0.181       50.517       10.685        0.045      340.704       14.909      859.447
09/08/2014  06:12:00      -41.719       99.325      -20.007       31.676       26.500       10.829     1003.381      702.264      117.267        0.691        0.091      107.731       10.207        0.009      340.558       14.659      859.409
09/08/2014  06:13:00      -13.444      142.128      -27.152       26.616       23.114       12.692      708.398      534.243      161.096        1.126        0.070      142.763       11.202        0.006      340.479       14.528      859.353
09/08/2014  06:14:00      -58.286      153.913      -33.664       35.989       36.108       18.078     1295.224     1303.773      326.819        1.557        0.146      164.580       16.993        0.011      340.547       14.644      859.291
09/08/2014  06:15:00      -60.178      134.114      -25.292       23.377       29.638       18.295      546.467      878.417      334.720        1.200        0.088      146.996        6.733        0.002      340.500       14.563      859.227
09/08/2014  06:16:00     -101.530       93.679      -16.688       48.210       37.153       28.042     2324.206     1380.335      786.363        1.193        0.225      138.145       25.076        0.033      340.622       14.769      859.179
09/08/2014  06:17:00     -177.842      164.743      -43.141       31.512       40.208       26.571      993.028     1616.694      706.045        3.197        0.166      242.422       15.061        0.004      340.713       14.919      859.145
09/08/2014  06:18:00     -150.703       70.085      -28.834       53.326       69.799       31.103     2843.618     4871.865      967.405        1.857        0.434      166.203       37.142        0.050      340.986       15.385      859.122
09/08/2014  06:19:00      -95.503        1.178      -12.981       43.148       59.413       24.433     1861.773     3529.871      596.960        0.764        0.299       95.511       18.749        0.039      340.895       15.232      859.111
09/08/2014  06:20:00     -104.326       12.732      -15.852       57.986       48.257       27.152     3362.351     2328.763      737.218        0.886        0.321      105.100       25.686        0.060      340.924       15.280      859.094
09/08/2014  06:21:00      -57.209       18.850        8.315       42.412       54.639       29.926     1798.750     2985.453      895.587        0.469        0.284       60.234       20.123        0.112      340.951       15.327      859.066
09/08/2014  06:22:00      -73.765      -38.671        0.800       40.449       38.746       20.054     1636.099     1501.273      402.146        0.524        0.177       83.287       14.928        0.032      340.857       15.166      859.044
09/08/2014  06:23:00     -107.137      -27.168       -1.248       59.728       41.131       27.246     3567.442     1691.792      742.319        0.911        0.300      110.528       32.647        0.087      340.831       15.123      859.010
09/08/2014  06:24:00     -126.155      -50.942      -11.454       32.399       33.926       25.208     1049.694     1150.978      635.429        1.074        0.142      136.052       17.982        0.017      340.769       15.018      858.977
09/08/2014  06:25:00     -129.450       -4.827      -14.022       48.045       46.911       30.233     2308.277     2200.654      914.032        1.120        0.271      129.540       27.052        0.044      341.011       15.429      858.962
09/08/2014  06:26:00     -137.829       18.374      -22.553       48.697       51.976       31.672     2371.366     2701.475     1003.117        1.296        0.304      139.049       24.884        0.032      340.914       15.263      858.960
09/08/2014  06:27:00     -128.611       13.801      -20.675       48.956       42.070       28.035     2396.649     1769.867      785.963        1.105        0.248      129.349       12.153        0.009      340.952       15.326      858.968
09/08/2014  06:28:00     -136.355        9.412       -9.844       38.829       35.954       28.602     1507.653     1292.700      818.079        1.120        0.181      136.679       21.771        0.025      341.063       15.516      858.970
09/08/2014  06:29:00     -106.449      -36.244      -20.407       33.970       29.077       19.056     1153.987      845.497      363.134        0.771        0.118      112.450       12.522        0.012      340.891       15.225      858.973
09/08/2014  06:30:00     -112.335      -20.265      -10.734       38.025       30.287       18.674     1445.901      917.306      348.709        0.793        0.136      114.149       11.313        0.010      340.915       15.265      858.973
09/08/2014  06:31:00     -115.149      -27.160       -4.706       43.557       29.121       27.059     1897.209      848.035      732.216        0.875        0.174      118.309       27.979        0.056      340.756       14.997      858.991
09/08/2014  06:32:00      -66.674      -46.148       -1.084       76.334       29.299       25.248     5826.805      858.448      637.440        0.695        0.366       81.087       29.437        0.132      340.697       14.896      859.021
09/08/2014  06:33:00       -2.455      -79.060        2.626       23.894       26.217       22.795      570.912      687.322      519.622        0.402        0.089       79.099        6.771        0.007      340.757       15.000      859.056
09/08/2014  06:34:00       -8.985     -102.169       -7.734       18.659       20.317       16.514      348.163      412.767      272.708        0.581        0.052      102.564       10.543        0.011      340.958       15.338      859.100
09/08/2014  06:35:00       11.389      -79.542      -13.759       55.719       60.647       41.018     3104.592     3678.039     1682.505        0.755        0.423       80.353       26.335        0.107      340.816       15.097      859.137
09/08/2014  06:36:00       10.337     -111.084      -30.543       58.443       69.776       43.632     3415.638     4868.669     1903.732        1.178        0.509      111.564       37.539        0.113      340.645       14.809      859.172
09/08/2014  06:37:00        1.212      -51.050       -3.008       44.193       36.663       26.832     1953.049     1344.173      719.957        0.332        0.201       51.064       16.905        0.110      340.719       14.932      859.198
09/08/2014  06:38:00       21.310      -43.704       18.475       31.876       43.940       22.906     1016.100     1930.756      524.672        0.309        0.174       48.622       16.055        0.109      340.757       14.999      859.192
09/08/2014  06:39:00      -22.498      -11.251       12.295       38.269       25.148       20.651     1464.507      632.412      426.446        0.165        0.126       25.154       11.044        0.193      340.734       14.960      859.187
09/08/2014  06:40:00       -7.503      -23.638       -2.625       44.992       25.013       23.976     2024.303      625.670      574.828        0.192        0.161       24.800       17.992        0.526      340.796       15.065      859.188
09/08/2014  06:41:00        4.943      -34.075       21.745       35.560       57.600       35.834     1264.479     3317.794     1284.044        0.376        0.293       34.432       24.525        0.507      340.832       15.124      859.209
09/08/2014  06:42:00       60.120      -20.702       29.158       60.002       47.538       52.793     3600.196     2259.903     2787.135        0.677        0.432       63.584       45.204        0.505      340.768       15.015      859.239
09/08/2014  06:43:00       44.721      -74.055       24.334       52.673       65.255       51.996     2774.438     4258.225     2703.604        0.890        0.487       86.511       47.117        0.297      340.781       15.039      859.276
09/08/2014  06:44:00       16.344      -76.664       -8.303       38.744       41.738       34.374     1501.087     1742.037     1181.594        0.532        0.221       78.387       28.974        0.137      340.794       15.060      859.305
09/08/2014  06:45:00      -21.166      -35.626        1.087       32.334       27.875       20.660     1045.486      777.003      426.824        0.198        0.112       41.439       15.423        0.139      340.795       15.062      859.330
09/08/2014  06:46:00      -20.309        4.220       23.240       18.994       27.929       20.757      360.779      780.005      430.871        0.127        0.079       20.743       21.458        1.070      340.724       14.941      859.351
09/08/2014  06:47:00      -19.124       -9.039       28.668       23.455       37.204       18.315      550.153     1384.128      335.443        0.177        0.113       21.153       21.529        1.036      340.778       15.033      859.394
09/08/2014  06:48:00      -45.804      -48.142       -1.114       28.178       20.027       14.567      794.016      401.067      212.198        0.291        0.070       66.450       12.308        0.034      340.819       15.102      859.428
09/08/2014  06:49:00      -16.194      -10.028       -0.823       12.625       10.530       13.381      159.399      110.882      179.058        0.041        0.022       19.048        5.904        0.096      340.739       14.965      859.440
09/08/2014  06:50:00      -11.768       10.128       28.328        9.101       19.708       17.522       82.836      388.393      307.017        0.091        0.039       15.526       12.863        0.686      340.630       14.782      859.442
09/08/2014  06:51:00       30.519       22.304       22.964       31.070       21.271       26.757      965.326      452.468      715.911        0.204        0.107       37.800       20.314        0.289      340.539       14.629      859.443
09/08/2014  06:52:00       48.261       40.831       42.647       26.335       22.144       25.310      693.520      490.376      640.594        0.382        0.091       63.216        8.244        0.017      340.517       14.592      859.447
09/08/2014  06:53:00       13.527       42.686       61.584       29.313       31.368       20.896      859.230      983.981      436.663        0.404        0.114       44.778       18.791        0.176      340.486       14.539      859.484
09/08/2014  06:54:00       16.436       78.489       95.605       36.411       40.960       22.549     1325.759     1677.696      508.469        0.954        0.176       80.191       19.571        0.060      340.422       14.432      859.556
09/08/2014  06:55:00       29.551        9.912       62.440       46.610       78.416       46.094     2172.457     6149.132     2124.684        0.766        0.522       31.169       52.742        2.863      340.443       14.467      859.644
09/08/2014  06:56:00       73.733     -102.844       24.338       65.662       67.046       39.384     4311.453     4495.220     1551.092        1.348        0.518      126.544       45.392        0.129      340.588       14.711      859.734
09/08/2014  06:57:00      100.643      -62.580       19.605       75.961       84.186       53.033     5770.031     7087.265     2812.541        1.505        0.783      118.513       63.716        0.289      340.494       14.553      859.801
09/08/2014  06:58:00       61.447     -124.700        3.477       54.387       45.608       37.030     2957.923     2080.126     1371.242        1.287        0.320      139.018       33.492        0.058      340.551       14.650      859.847
09/08/2014  06:59:00      -45.332      -83.885       -0.612       79.479       47.357       34.914     6316.857     2242.719     1219.013        0.943        0.489       95.351       30.330        0.101      340.571       14.684      859.881
09/08/2014  07:00:00     -120.630      -86.256        8.548       86.688       67.898       35.087     7514.858     4610.106     1231.113        1.771        0.668      148.296       39.684        0.072      340.410       14.410      859.893
09/08/2014  07:01:00      -61.737      -38.044        7.777       78.054       42.391       35.322     6092.408     1796.996     1247.633        0.723        0.457       72.517       30.103        0.172      340.446       14.473      859.913
09/08/2014  07:02:00      -94.279      -81.419        8.140       61.516       67.500       42.645     3784.205     4556.255     1818.610        1.287        0.508      124.570       45.283        0.132      340.411       14.412      859.943
09/08/2014  07:03:00     -208.124     -115.093      -23.558       44.184       57.440       28.736     1952.230     3299.320      825.778        3.160        0.304      237.827       18.141        0.006      340.339       14.286      859.969
09/08/2014  07:04:00     -199.151     -125.488       -5.290       91.563      119.419       43.844     8383.700    14260.790     1922.332        4.000        1.228      235.390       52.965        0.051      340.373       14.347      859.990
09/08/2014  07:05:00     -234.155      -97.932      -12.392       85.415       80.767       47.899     7295.743     6523.258     2294.280        4.034        0.806      253.809       42.779        0.028      340.330       14.271      859.980
09/08/2014  07:06:00     -145.637      -37.074        3.679       73.984       62.558       42.092     5473.635     3913.469     1771.720        1.688        0.558      150.282       38.659        0.066      340.334       14.280      859.963
09/08/2014  07:07:00     -172.174      -60.032       -5.084       67.286       81.331       40.782     4527.387     6614.741     1663.210        2.304        0.640      182.340       30.670        0.028      340.262       14.160      859.938
09/08/2014  07:08:00     -223.191       24.158      -16.794       67.540       66.660       38.860     4561.639     4443.513     1510.105        3.060        0.526      224.495       39.851        0.032      340.222       14.088      859.922
09/08/2014  07:09:00     -165.843      -80.818       -4.621       50.006       60.166       29.060     2500.624     3619.965      844.504        2.051        0.348      184.487       22.092        0.014      340.201       14.055      859.935
09/08/2014  07:10:00     -186.286      -29.905      -14.145       67.714       61.973       35.175     4585.253     3840.694     1237.277        2.273        0.483      188.672       37.609        0.040      340.155       13.976      859.949
09/08/2014  07:11:00     -232.363        4.145      -18.619       67.211       63.728       32.936     4517.253     4061.302     1084.766        3.201        0.483      232.400       35.629        0.024      340.124       13.924      859.932
09/08/2014  07:12:00     -174.218      -22.035       -9.810       76.418       58.299       39.448     5839.750     3398.788     1556.181        2.086        0.540      175.606       42.366        0.058      340.140       13.953      859.892
09/08/2014  07:13:00     -222.927      -16.846      -20.389       55.127       40.705       30.407     3038.977     1656.901      924.582        2.801        0.281      223.563       28.293        0.016      340.075       13.842      859.882
09/08/2014  07:14:00     -187.680      -71.182      -24.304       64.628       52.800       29.301     4176.829     2787.870      858.561        2.435        0.391      200.725       20.203        0.010      340.067       13.830      859.908
09/08/2014  07:15:00     -182.229      -94.821       -6.177       76.152       39.216       31.826     5799.127     1537.888     1012.879        2.529        0.417      205.422       37.730        0.034      339.973       13.670      859.960
09/08/2014  07:16:00     -172.920      -67.688       -5.416       40.867       39.051       24.838     1670.086     1524.959      616.924        1.916        0.191      185.696       17.666        0.009      339.948       13.630      859.996
09/08/2014  07:17:00     -150.736       -7.429       -7.527       58.764       51.576       32.300     3453.253     2660.094     1043.287        1.499        0.358      150.919       30.469        0.041      339.948       13.631      859.997
09/08/2014  07:18:00     -157.071      -19.631      -11.906       32.794       50.662       24.690     1075.428     2566.682      609.584        1.472        0.213      158.293       16.937        0.011      339.924       13.590      860.005
09/08/2014  07:19:00     -156.950      -53.154      -18.414       45.757       58.133       29.599     2093.668     3379.430      876.092        1.707        0.317      165.707       19.924        0.014      339.960       13.652      860.029
09/08/2014  07:20:00     -216.283      -60.294      -18.062       53.683       43.789       34.651     2881.858     1917.452     1200.701        2.837        0.300      224.530       25.834        0.013      339.885       13.518      860.038
09/08/2014  07:21:00     -147.735      -31.146        1.819       70.540       50.487       37.584     4975.907     2548.975     1412.577        1.587        0.447      150.983       36.607        0.059      339.888       13.529      860.026
09/08/2014  07:22:00     -207.404      -51.076      -10.637       62.037       69.404       35.915     3848.618     4816.893     1289.854        2.785        0.498      213.601       28.795        0.018      339.876       13.506      860.007
09/08/2014  07:23:00     -198.502      -34.435      -18.072       74.196       62.917       37.938     5505.084     3958.514     1439.324        2.591        0.545      201.467       37.426        0.035      339.891       13.532      859.978
09/08/2014  07:24:00     -210.420      -79.569      -23.663       66.866       62.329       35.480     4471.017     3884.897     1258.861        3.039        0.481      224.962       34.234        0.023      339.954       13.637      859.936
09/08/2014  07:25:00     -194.318      -45.879       -4.445       78.149       67.568       36.658     6107.218     4565.453     1343.805        2.595        0.601      199.660       33.796        0.029      340.017       13.745      859.915
09/08/2014  07:26:00     -175.544      -70.496       -3.007       79.071       56.946       39.922     6252.221     3242.807     1593.728        2.344        0.554      189.171       38.917        0.042      339.991       13.701      859.903
09/08/2014  07:27:00     -113.458      -72.568       -8.129       79.079       53.801       46.562     6253.469     2894.541     2168.037        1.476        0.566      134.681       44.982        0.112      340.070       13.836      859.893
09/08/2014  07:28:00      -38.087      -11.624       -2.699       42.935       45.442       24.723     1843.454     2064.988      611.213        0.306        0.226       39.822       12.272        0.095      340.119       13.917      859.892
09/08/2014  07:29:00      -89.710       52.469      -14.803       44.703       47.492       31.728     1998.346     2255.454     1006.659        0.814        0.263      103.928       23.779        0.052      340.171       14.008      859.885
09/08/2014  07:30:00     -104.916      -27.257      -13.126       32.501       34.670       30.849     1056.307     1201.987      951.683        0.757        0.160      108.399       17.935        0.027      340.178       14.019      859.883
09/08/2014  07:31:00     -118.750       -1.221      -18.421       31.546       37.209       25.138      995.155     1384.545      631.936        0.873        0.151      118.756       11.266        0.009      340.196       14.049      859.876
09/08/2014  07:32:00     -137.515      -10.637      -21.218       34.097       32.506       26.440     1162.632     1056.652      699.068        1.120        0.146      137.926       19.544        0.020      340.231       14.109      859.853
09/08/2014  07:33:00     -107.564      -30.716      -18.474       41.751       39.670       30.181     1743.164     1573.723      910.886        0.854        0.211      111.864       23.529        0.044      340.274       14.182      859.831
09/08/2014  07:34:00     -126.323      -17.977      -18.065       52.702       50.265       37.137     2777.474     2526.561     1379.139        1.164        0.334      127.596       27.938        0.048      340.283       14.195      859.812
09/08/2014  07:35:00     -141.021       -0.539      -17.600       42.299       49.755       37.420     1789.209     2475.548     1400.272        1.293        0.283      141.022       23.296        0.027      340.408       14.409      859.801
09/08/2014  07:36:00     -117.581        0.554       -1.181       50.819       49.254       33.114     2582.582     2425.953     1096.565        0.997        0.305      117.583       21.373        0.033      340.498       14.560      859.802
09/08/2014  07:37:00     -127.168       -1.472      -13.384       34.899       57.922       22.759     1217.908     3354.902      517.977        1.072        0.255      127.177       16.368        0.017      340.594       14.723      859.803
09/08/2014  07:38:00     -150.448      -11.715      -28.028       51.677       41.022       27.760     2670.492     1682.771      770.619        1.434        0.256      150.904       23.565        0.024      340.468       14.509      859.809
09/08/2014  07:39:00      -96.368      -36.545       -1.284       33.505       42.921       22.867     1122.611     1842.248      522.886        0.706        0.174      103.065       16.701        0.026      340.400       14.394      859.805
09/08/2014  07:40:00      -81.603      -53.469      -17.675       32.436       23.213       17.909     1052.104      538.854      320.730        0.587        0.096       97.561        7.330        0.006      340.514       14.587      859.805
09/08/2014  07:41:00      -58.593      -27.323       -6.069       26.074       21.661       15.205      679.837      469.220      231.180        0.280        0.069       64.651        5.904        0.008      340.441       14.464      859.815
09/08/2014  07:42:00      -52.508      -16.372       -1.929       31.146       19.251       20.186      970.099      370.619      407.475        0.239        0.087       55.001       17.645        0.103      340.550       14.647      859.831
09/08/2014  07:43:00      -10.365       -9.409        8.553       32.869       17.151       13.760     1080.368      294.168      189.351        0.092        0.078       13.998        8.005        0.327      340.467       14.507      859.831
09/08/2014  07:44:00       17.498       -6.797       13.594       14.324       15.298       15.558      205.187      234.042      242.041        0.061        0.034       18.772       11.414        0.370      340.356       14.320      859.848
09/08/2014  07:45:00       21.118      -16.122        8.074       16.462       17.385       12.580      270.984      302.235      158.249        0.075        0.037       26.568        9.818        0.137      340.276       14.185      859.862
09/08/2014  07:46:00      -11.862       -2.173        1.472       29.106       28.492       16.406      847.186      811.767      269.149        0.104        0.096       12.059       15.058        1.559      340.775       15.028      859.875
09/08/2014  07:47:00        4.927      -16.883        1.093       49.256       18.265       14.740     2426.136      333.612      217.262        0.164        0.149       17.587       10.102        0.330      340.493       14.552      859.874
09/08/2014  07:48:00       20.596      -38.130       -5.254       39.074       19.139       18.686     1526.783      366.287      349.159        0.207        0.112       43.337       15.126        0.122      340.392       14.382      859.865
09/08/2014  07:49:00      -45.373      -27.399        4.621       36.060       24.174       16.012     1300.288      584.360      256.374        0.249        0.107       53.004       21.544        0.165      340.551       14.650      859.840
09/08/2014  07:50:00      -58.326      -36.357        1.341       22.180       19.472       16.218      491.946      379.167      263.016        0.293        0.057       68.729       13.015        0.036      340.655       14.825      859.824
09/08/2014  07:51:00      -26.149      -38.656       -2.223       32.547       22.361       10.415     1059.289      500.035      108.467        0.193        0.083       46.669        9.029        0.037      340.629       14.783      859.847
09/08/2014  07:52:00       36.203      -69.506      -18.715       46.668       52.933       33.184     2177.881     2801.938     1101.199        0.629        0.304       78.369       29.297        0.140      340.367       14.340      859.902
09/08/2014  07:53:00       40.748      -86.530      -25.891       47.220       50.674       36.254     2229.683     2567.820     1314.379        0.796        0.306       95.644       27.517        0.083      340.615       14.759      859.947
09/08/2014  07:54:00       51.193      -91.455      -20.296       50.061       38.320       34.210     2506.100     1468.388     1170.355        0.827        0.257      104.809       25.494        0.059      340.563       14.670      859.977
09/08/2014  07:55:00        1.689      -48.474        8.927       48.434       39.617       28.973     2345.886     1569.492      839.421        0.359        0.238       48.504       17.646        0.132      340.632       14.787      859.991
09/08/2014  07:56:00       -5.276      -26.365      -13.322       22.098       24.768       13.437      488.328      613.464      180.565        0.109        0.064       26.888        8.994        0.112      340.683       14.874      859.999
09/08/2014  07:57:00      -70.523      -41.204      -14.006       42.658       45.423       21.708     1819.690     2063.205      471.254        0.561        0.218       81.677       15.044        0.034      340.687       14.879      859.981
09/08/2014  07:58:00     -141.062      -67.145       -5.387       34.560       31.985       22.746     1194.362     1023.013      517.402        1.358        0.137      156.227       18.082        0.013      340.636       14.792      859.950
09/08/2014  07:59:00     -128.900      -74.932        1.150       47.673       42.575       21.707     2272.701     1812.646      471.184        1.339        0.228      149.097       22.423        0.023      340.614       14.757      859.923
09/08/2014  08:00:00     -143.080      -43.075       -6.849       37.662       36.680       18.913     1418.435     1345.426      357.713        1.275        0.156      149.424       20.098        0.018      340.686       14.877      859.888
09/08/2014  08:01:00     -153.604      -61.379       -7.289       47.294       32.242       25.756     2236.720     1039.552      663.395        1.568        0.197      165.413       22.586        0.019      340.716       14.929      859.853
09/08/2014  08:02:00     -143.284       -5.701      -17.321       63.979       40.353       27.783     4093.312     1628.394      771.917        1.368        0.325      143.398       26.295        0.034      341.070       15.528      859.822
09/08/2014  08:03:00     -170.023      -22.754      -15.298       60.444       33.200       26.081     3653.472     1102.262      680.210        1.755        0.272      171.539       23.730        0.019      340.934       15.297      859.801
09/08/2014  08:04:00     -134.569      -32.090      -10.630       50.368       50.608       28.146     2536.886     2561.199      792.223        1.257        0.295      138.342       23.887        0.030      340.921       15.275      859.770
09/08/2014  08:05:00     -145.806      -21.156      -11.490       55.918       50.043       32.347     3126.799     2504.336     1046.308        1.426        0.334      147.333       33.566        0.052      340.978       15.371      859.758
09/08/2014  08:06:00      -91.153      -29.580        3.825       44.914       43.904       32.691     2017.255     1927.555     1068.683        0.711        0.251       95.833       28.530        0.089      341.084       15.552      859.752
09/08/2014  08:07:00      -40.426      -39.804        7.143       42.838       26.884       22.547     1835.135      722.726      508.353        0.317        0.153       56.733       17.840        0.099      341.053       15.499      859.759
09/08/2014  08:08:00      -39.443      -12.829       12.656       34.203       39.138       20.964     1169.849     1531.774      439.491        0.251        0.157       41.477       21.485        0.268      341.036       15.470      859.772
09/08/2014  08:09:00      -17.847      -39.151        3.431       34.307       32.363       24.164     1177.004     1047.360      583.881        0.234        0.140       43.027       21.854        0.258      341.033       15.466      859.767
09/08/2014  08:10:00      -13.928      -38.984        9.359       29.522       28.680       23.670      871.569      822.570      560.276        0.203        0.113       41.398       22.876        0.305      341.043       15.482      859.757
09/08/2014  08:11:00      -19.343      -29.914        3.048       34.972       19.677       17.688     1223.033      387.195      312.851        0.160        0.096       35.623       14.724        0.171      341.071       15.528      859.744
09/08/2014  08:12:00      -20.328      -38.944        1.594       22.220       17.720       13.116      493.726      314.016      172.023        0.146        0.049       43.930       14.170        0.104      341.093       15.566      859.742
09/08/2014  08:13:00      -12.120      -38.069        4.083       15.214       32.320       12.968      231.470     1044.567      168.158        0.153        0.072       39.952        9.248        0.054      341.091       15.561      859.732
09/08/2014  08:14:00      -42.971      -53.328        0.898       40.866       32.300       23.747     1670.027     1043.269      563.932        0.398        0.164       68.486       21.441        0.098      341.108       15.591      859.720
09/08/2014  08:15:00      -53.613      -51.225        3.079       46.210       31.543       27.195     2135.338      994.985      739.560        0.469        0.193       74.151       30.823        0.173      341.192       15.735      859.694
09/08/2014  08:16:00      -84.120      -88.032        2.600       54.856       35.066       30.448     3009.164     1229.612      927.104        1.000        0.258      121.761       30.609        0.063      341.146       15.657      859.682
09/08/2014  08:17:00      -86.542      -50.539        2.876       64.946       55.135       34.191     4218.005     3039.869     1169.022        0.924        0.421      100.218       40.933        0.167      341.285       15.891      859.681
09/08/2014  08:18:00     -122.972      -23.280       -4.099       28.968       40.552       17.375      839.153     1644.462      301.905        0.923        0.139      125.157       11.094        0.008      341.252       15.838      859.685
09/08/2014  08:19:00      -49.078      -38.071       -4.366       35.576       21.551       15.944     1265.618      464.445      254.218        0.293        0.099       62.113       14.392        0.054      341.350       16.001      859.695
09/08/2014  08:20:00      -31.292      -33.162        2.252       36.655       22.678       19.182     1343.571      514.297      367.958        0.215        0.111       45.595       13.782        0.091      341.543       16.329      859.705
09/08/2014  08:21:00      -26.780      -20.806        5.083       20.743       21.102       17.238      430.255      445.306      297.159        0.117        0.059       33.912       14.851        0.192      341.643       16.498      859.692
09/08/2014  08:22:00        1.094      -19.837       -2.544       31.621       13.802       17.599      999.894      190.504      309.708        0.095        0.075       19.867       16.260        0.670      341.512       16.276      859.673
09/08/2014  08:23:00       31.389      -17.286       12.419       36.633       22.704       24.182     1341.950      515.476      584.784        0.194        0.122       35.834       19.904        0.309      341.451       16.173      859.650
09/08/2014  08:24:00       29.619       10.305       29.921       27.955       30.654       23.678      781.471      939.650      560.666        0.208        0.114       31.360       19.978        0.406      341.573       16.379      859.643
09/08/2014  08:25:00       63.542       51.217       22.766       28.136       35.063       29.533      791.653     1229.421      872.216        0.504        0.145       81.613       18.613        0.052      341.294       15.908      859.636
09/08/2014  08:26:00       45.329       68.398       64.769       29.715       26.538       19.464      883.003      704.273      378.867        0.645        0.098       82.055       10.475        0.016      341.551       16.343      859.632
09/08/2014  08:27:00       59.853       61.322       42.443       35.195       28.031       25.330     1238.712      785.758      641.584        0.590        0.133       85.690       12.249        0.020      341.827       16.810      859.621
09/08/2014  08:28:00       22.553       39.902       55.768       25.488       35.768       22.679      649.630     1279.358      514.330        0.383        0.122       45.834        9.206        0.040      342.251       17.529      859.611
09/08/2014  08:29:00       39.016       64.476       49.821       42.068       36.675       44.986     1769.678     1345.029     2023.722        0.665        0.257       75.362       13.587        0.033      341.985       17.078      859.607
09/08/2014  08:30:00       65.095       39.426        8.920       52.003       36.159       34.150     2704.303     1307.456     1166.234        0.552        0.259       76.103       13.065        0.029      341.855       16.856      859.611
09/08/2014  08:31:00       82.651       28.530       14.227       57.994       36.545       29.261     3363.247     1335.534      856.230        0.670        0.278       87.436       21.834        0.062      341.981       17.073      859.617
09/08/2014  08:32:00      112.561       61.230       11.717       30.678       33.093       32.024      941.132     1095.117     1025.521        0.981        0.153      128.137       17.422        0.018      341.850       16.851      859.649
09/08/2014  08:33:00       55.298       59.546       63.141       41.430       36.825       34.238     1716.454     1356.086     1172.268        0.742        0.212       81.263       23.900        0.087      342.170       17.392      859.684
09/08/2014  08:34:00       63.959       49.232       34.819       52.456       38.761       25.865     2751.635     1502.407      669.000        0.632        0.246       80.713       19.435        0.058      342.043       17.177      859.712
09/08/2014  08:35:00       42.127       24.754       26.265       46.829       50.420       31.481     2192.912     2542.134      991.045        0.440        0.286       48.861       28.846        0.349      342.036       17.166      859.721
09/08/2014  08:36:00       18.041       20.806       47.541       26.399       39.990       16.492      696.890     1599.217      271.996        0.279        0.128       27.539       10.924        0.157      342.163       17.379      859.731
09/08/2014  08:37:00       13.087        8.007       34.607       18.731       24.009       25.810      350.839      576.418      666.168        0.151        0.080       15.342        8.240        0.288      342.351       17.701      859.754
09/08/2014  08:38:00       37.169       30.610       17.334       23.076       22.391       31.899      532.506      501.340     1017.576        0.233        0.103       48.151       11.365        0.056      341.968       17.049      859.780
09/08/2014  08:39:00       10.276      -14.195       11.224       40.066       40.254       31.235     1605.252     1620.420      975.634        0.232        0.210       17.525       28.248        2.598      342.309       17.628      859.802
09/08/2014  08:40:00       35.912      -34.727       12.579       44.399       56.103       52.921     1971.251     3147.502     2800.640        0.529        0.396       49.957       51.022        1.043      342.364       17.722      859.822
09/08/2014  08:41:00        5.820       24.886       45.923       26.864       30.487       21.103      721.696      929.461      445.317        0.243        0.105       25.558       16.040        0.394      342.650       18.209      859.830
09/08/2014  08:42:00        8.341       27.819       41.961       27.722       25.696       21.830      768.507      660.277      476.563        0.225        0.095       29.043       18.013        0.385      342.472       17.905      859.840
09/08/2014  08:43:00        9.023      -32.153       26.434       34.531       53.906       32.604     1192.364     2905.805     1063.045        0.349        0.258       33.395       27.955        0.701      342.123       17.312      859.841
09/08/2014  08:44:00        8.781      -16.310       31.127       23.480       37.686       22.291      551.305     1420.218      496.893        0.189        0.123       18.524        9.649        0.271      342.370       17.734      859.837
09/08/2014  08:45:00       61.022      -64.402       -5.835       36.890       37.363       26.768     1360.869     1395.977      716.519        0.569        0.174       88.721       16.691        0.035      341.916       16.962      859.842
09/08/2014  08:46:00       27.514       -6.197       35.318       32.035       29.551       24.854     1026.265      873.249      617.699        0.228        0.126       28.204       20.622        0.535      342.181       17.412      859.844
09/08/2014  08:47:00       35.839      -20.687       21.212       30.683       38.189       27.688      941.477     1458.381      766.650        0.266        0.158       41.381       26.100        0.398      341.917       16.963      859.853
09/08/2014  08:48:00       48.679      -23.017        8.919       37.802       35.976       31.251     1428.999     1294.280      976.618        0.334        0.185       53.846       19.638        0.133      342.024       17.145      859.860
09/08/2014  08:49:00       19.495      -10.692       23.881       25.093       33.088       24.640      629.673     1094.830      607.130        0.170        0.117       22.235       19.990        0.808      342.237       17.505      859.869
09/08/2014  08:50:00       27.126       29.682       19.386       48.379       21.251       23.876     2340.574      451.620      570.049        0.268        0.168       40.210        8.391        0.044      342.236       17.503      859.875
09/08/2014  08:51:00       -2.201       35.559       66.425       35.230       40.389       26.298     1241.184     1631.299      691.562        0.462        0.178       35.627       23.862        0.449      342.322       17.651      859.887
09/08/2014  08:52:00      -10.061       43.718       82.149       21.540       37.547       25.749      463.952     1409.779      663.018        0.565        0.127       44.860       21.132        0.222      342.324       17.654      859.900
09/08/2014  08:53:00       83.159       78.866       55.213       65.920       51.423       43.970     4345.423     2644.350     1933.333        1.255        0.446      114.609       36.390        0.101      342.127       17.317      859.906
09/08/2014  08:54:00       35.600      -55.509        6.619       63.207       61.509       35.566     3995.074     3783.340     1264.936        0.672        0.452       65.944       39.927        0.367      342.199       17.441      859.889
09/08/2014  08:55:00       23.106       -6.561       27.088       23.894       25.861       29.725      570.926      668.795      883.599        0.172        0.106       24.019       16.346        0.463      342.377       17.744      859.872
09/08/2014  08:56:00       -2.008       -2.779       24.241       26.188       43.436       21.870      685.805     1886.649      478.311        0.182        0.153        3.428       20.612       36.152      342.183       17.415      859.854
09/08/2014  08:57:00       82.834      -84.596       -2.202       39.086       34.921       31.073     1527.703     1219.448      965.539        0.887        0.186      118.398       16.450        0.019      341.613       16.447      859.865
09/08/2014  08:58:00       68.619      -63.142        1.618       42.872       58.752       28.885     1837.983     3451.801      834.369        0.741        0.306       93.249       32.601        0.122      342.033       17.160      859.914
09/08/2014  08:59:00       21.524      -62.586       20.073       40.213       57.434       39.314     1617.079     3298.705     1545.561        0.562        0.323       66.183       31.042        0.220      342.371       17.733      859.978
09/08/2014  09:00:00       87.718     -104.965      -27.136       48.109       41.365       36.167     2314.431     1711.095     1308.057        1.239        0.267      136.792       19.454        0.020      342.457       17.879      860.026
09/08/2014  09:01:00       23.743      -38.127       27.556       40.062       53.160       36.908     1604.988     2826.037     1362.236        0.428        0.290       44.916       31.365        0.488      342.401       17.786      860.051
09/08/2014  09:02:00       88.937      -54.377       16.373       35.662       45.050       30.911     1271.797     2029.480      955.509        0.770        0.213      104.244       25.105        0.058      342.246       17.520      860.047
09/08/2014  09:03:00        6.742       37.946       54.748       36.307       29.323       31.975     1318.200      859.848     1022.375        0.384        0.160       38.540       23.034        0.357      342.071       17.222      860.037
09/08/2014  09:04:00        4.009       26.942       53.610       29.676       44.154       25.478      880.639     1949.566      649.105        0.355        0.174       27.239       24.868        0.833      341.955       17.028      860.016
09/08/2014  09:05:00       26.324      -28.220       -1.926       29.400       35.717       27.545      864.366     1275.739      758.725        0.220        0.145       38.592       18.268        0.224      341.867       16.878      860.001
09/08/2014  09:06:00       24.720      -42.782      -10.448       26.274       30.328       25.019      690.297      919.802      625.956        0.239        0.112       49.410       21.748        0.194      341.825       16.806      859.983
09/08/2014  09:07:00       32.350       18.331       13.839       29.908       33.551       18.580      894.468     1125.695      345.232        0.197        0.118       37.182       18.338        0.243      342.166       17.386      859.957
09/08/2014  09:08:00       66.452       44.200       19.054       28.759       22.499       26.948      827.077      506.223      726.205        0.440        0.103       79.809       13.588        0.029      342.231       17.496      859.924
09/08/2014  09:09:00       93.410       44.150        4.179       32.946       28.788       26.877     1085.469      828.741      722.389        0.666        0.132      103.318       22.753        0.048      342.230       17.495      859.915
09/08/2014  09:10:00       84.887       39.958       14.421       28.541       36.345       22.797      814.600     1320.963      519.707        0.583        0.133       93.821       12.870        0.019      342.235       17.502      859.919
09/08/2014  09:11:00       62.687       36.697        3.656       23.786       20.900       19.452      565.780      436.811      378.381        0.334        0.069       72.638        9.993        0.019      342.154       17.365      859.900
09/08/2014  09:12:00       22.940       33.200        4.616       34.868       30.958       24.648     1215.783      958.422      607.543        0.222        0.139       40.354       21.997        0.297      342.363       17.720      859.881
09/08/2014  09:13:00       52.007       30.996       -0.479       29.335       22.134       17.847      860.539      489.928      318.524        0.267        0.083       60.544       14.546        0.058      342.300       17.614      859.884
09/08/2014  09:14:00       75.332       43.241        7.854       20.018       18.760       19.236      400.720      351.953      370.007        0.436        0.056       86.860        3.723        0.002      342.214       17.467      859.896
09/08/2014  09:15:00       72.509       40.437        7.596       23.706       24.340       32.884      561.968      592.454     1081.373        0.459        0.112       83.022       11.632        0.020      341.826       16.808      859.922
09/08/2014  09:16:00       39.927       39.989       36.716       52.052       27.574       28.592     2709.368      760.352      817.508        0.441        0.214       56.510       27.199        0.232      342.176       17.402      859.931
09/08/2014  09:17:00       78.225       70.478       45.558       41.289       37.850       31.921     1704.743     1432.609     1018.970        0.866        0.208      105.292       19.529        0.034      342.015       17.129      859.932
09/08/2014  09:18:00       66.687       34.480       16.951       34.323       27.079       23.108     1178.059      733.285      533.999        0.418        0.122       75.073       15.024        0.040      342.231       17.496      859.921
09/08/2014  09:19:00       68.256       49.179       21.598       46.854       23.989       21.894     2195.269      575.477      479.334        0.540        0.163       84.128       15.535        0.034      342.282       17.583      859.913
09/08/2014  09:20:00       31.364       11.488       31.796       34.064       30.802       20.593     1160.329      948.787      424.084        0.233        0.127       33.402       17.407        0.272      342.261       17.547      859.918
09/08/2014  09:21:00      -21.778        5.651       -5.075       19.800       15.553       15.788      392.060      241.909      249.260        0.071        0.044       22.499        9.306        0.171      342.073       17.227      859.913
09/08/2014  09:22:00       -3.618       -3.127        3.926       19.730       17.017       17.044      389.262      289.588      290.492        0.050        0.048        4.782       14.866        9.666      342.122       17.312      859.889
09/08/2014  09:23:00        0.185       54.532      -11.859       22.733       29.216       14.804      516.797      853.601      219.144        0.235        0.079       54.532       12.372        0.051      342.322       17.651      859.851
09/08/2014  09:24:00        3.036      110.225      -22.627       20.156       22.337        9.510      406.246      498.934       90.436        0.683        0.050      110.267       11.509        0.011      342.352       17.703      859.816
09/08/2014  09:25:00       11.863      119.035      -26.224       14.822       16.325        8.518      219.702      266.492       72.557        0.778        0.028      119.625        7.870        0.004      342.363       17.720      859.791
09/08/2014  09:26:00      -16.345      111.311      -22.774       25.805       24.677       10.678      665.922      608.961      114.019        0.728        0.069      112.504        8.900        0.006      342.453       17.874      859.770
09/08/2014  09:27:00      -41.945       46.637      -10.667       20.671       20.426       17.654      427.296      417.213      311.664        0.260        0.058       62.725        9.301        0.022      342.591       18.108      859.775
09/08/2014  09:28:00      -23.762       29.302      -15.641       18.326       20.174       15.168      335.857      406.988      230.058        0.132        0.049       37.726       13.512        0.128      342.676       18.251      859.780
09/08/2014  09:29:00      -41.675       -8.848        0.685       27.100       28.803       18.817      734.396      829.614      354.080        0.187        0.096       42.604       21.412        0.253      342.894       18.623      859.774
09/08/2014  09:30:00      -80.195       -2.694       -0.490       57.190       25.615       22.516     3270.676      656.112      506.992        0.544        0.222       80.240       25.798        0.103      343.020       18.837      859.763
09/08/2014  09:31:00      -99.709       15.846      -25.139       46.903       42.744       24.879     2199.890     1827.060      618.963        0.773        0.232      100.960       28.658        0.081      342.794       18.454      859.761
09/08/2014  09:32:00     -136.535       10.503      -12.238       34.718       38.597       23.543     1205.317     1489.738      554.252        1.108        0.162      136.938       18.267        0.018      342.763       18.402      859.771
09/08/2014  09:33:00      -24.396      -51.537      -13.290       38.641       30.912       19.237     1493.127      955.540      370.077        0.312        0.141       57.020        6.460        0.013      342.674       18.249      859.762
09/08/2014  09:34:00        6.178      -23.543       12.274       16.522       34.967       24.243      272.974     1222.703      587.720        0.141        0.104       24.340       14.276        0.344      342.884       18.606      859.760
09/08/2014  09:35:00       -5.396      -12.627       15.880       16.548       17.282       16.952      273.850      298.652      287.375        0.065        0.043       13.732       11.365        0.685      343.023       18.843      859.751
09/08/2014  09:36:00       30.561       19.156        9.749       22.841       16.292       21.853      521.722      265.441      477.551        0.133        0.063       36.068       10.582        0.086      342.684       18.267      859.732
09/08/2014  09:37:00        0.791      103.667      -10.141       30.480       40.405       23.981      929.017     1632.531      575.086        0.699        0.157      103.670       21.397        0.043      342.895       18.626      859.725
09/08/2014  09:38:00      -62.253       87.456      -10.652       28.643       39.301       25.447      820.427     1544.564      647.562        0.732        0.151      107.350       24.208        0.051      342.941       18.704      859.718
09/08/2014  09:39:00      -68.675       73.333      -22.382       19.998       20.197       13.441      399.930      407.908      180.662        0.579        0.049      100.469        8.989        0.008      342.887       18.612      859.716
09/08/2014  09:40:00      -26.045       32.253       -0.700       25.042       29.120       18.064      627.108      847.960      326.292        0.176        0.090       41.456        9.148        0.049      343.137       19.036      859.727
09/08/2014  09:41:00      -73.061       -7.469       -5.149       21.544       39.674       17.048      464.132     1573.989      290.649        0.387        0.116       73.441       10.769        0.022      342.965       18.745      859.709
09/08/2014  09:42:00      -62.989       30.203      -18.770       26.496       29.475       12.887      702.026      868.750      166.085        0.348        0.087       69.855       13.590        0.038      342.999       18.802      859.691
09/08/2014  09:43:00      -44.867      -29.401        0.856       33.138       18.129       16.952     1098.150      328.643      287.384        0.230        0.086       53.642       21.667        0.163      342.970       18.753      859.678
09/08/2014  09:44:00      -46.149        9.628        9.147       42.125       24.596       16.511     1774.502      604.959      272.608        0.248        0.133       47.142       17.476        0.137      343.067       18.917      859.692
09/08/2014  09:45:00      -57.552      -39.012       -1.672       36.569       26.904       12.220     1337.282      723.830      149.324        0.352        0.111       69.528        6.843        0.010      342.995       18.796      859.685
09/08/2014  09:46:00      -43.698      -15.846        0.950       22.527       23.644       11.397      507.475      559.038      129.891        0.168        0.060       46.482       11.666        0.063      343.110       18.990      859.681
09/08/2014  09:47:00      -39.694       47.241       -2.962       26.801       38.276       19.928      718.307     1465.065      397.131        0.320        0.129       61.704       22.060        0.128      343.158       19.072      859.647
09/08/2014  09:48:00      -41.592       59.583       -2.146       31.925       27.218       27.505     1019.224      740.822      756.527        0.390        0.126       72.664       25.485        0.123      343.217       19.172      859.623
09/08/2014  09:49:00      -10.720       18.926       15.241       27.434       28.012       22.950      752.651      784.681      526.701        0.138        0.103       21.751       18.619        0.733      343.421       19.519      859.601
09/08/2014  09:50:00        0.213       57.598        1.018       20.618       46.087       22.161      425.084     2124.030      491.104        0.318        0.152       57.598       22.133        0.148      343.407       19.497      859.614
09/08/2014  09:51:00       26.600      -27.887       -3.173       20.526       26.000       16.149      421.332      675.992      260.779        0.143        0.068       38.539       13.214        0.118      343.138       19.039      859.661
09/08/2014  09:52:00       22.216      -64.600      -15.769       28.873       26.865       21.138      833.640      721.725      446.806        0.346        0.100       68.314       10.882        0.025      343.038       18.868      859.668
09/08/2014  09:53:00       15.640      -21.753       19.184       22.078       30.141       20.168      487.451      908.499      406.741        0.144        0.090       26.792       15.795        0.348      343.058       18.903      859.683
09/08/2014  09:54:00       55.484      -29.616        8.908       21.324       25.002       24.366      454.698      625.078      593.706        0.285        0.084       62.894       15.368        0.060      342.515       17.978      859.708
09/08/2014  09:55:00       50.841      -26.863       14.253       20.647       17.825       18.046      426.317      317.739      325.673        0.229        0.053       57.501       13.515        0.055      342.756       18.388      859.733
09/08/2014  09:56:00        2.270      -22.442       21.841       18.163       32.682       15.526      329.897     1068.085      241.070        0.131        0.082       22.557       16.465        0.533      343.236       19.205      859.770
09/08/2014  09:57:00      -24.796      -10.537       11.656       14.719       24.098       17.183      216.657      580.690      295.241        0.098        0.055       26.942       14.301        0.282      343.303       19.319      859.786
09/08/2014  09:58:00        8.769        5.215       31.071       29.764       34.660       27.017      885.886     1201.303      729.908        0.194        0.141       10.203       17.077        2.801      343.202       19.148      859.803
09/08/2014  09:59:00       26.024      -19.033       23.292       39.122       37.823       34.006     1530.526     1430.543     1156.433        0.285        0.206       32.242       24.944        0.599      343.228       19.192      859.815
09/08/2014  10:00:00       41.729      -30.868       16.046       44.010       60.503       38.265     1936.898     3660.574     1464.219        0.501        0.353       51.905       37.862        0.532      343.129       19.023      859.810
09/08/2014  10:01:00       20.307        6.631       50.950       29.587       37.599       26.814      875.381     1413.713      718.989        0.303        0.150       21.363       11.397        0.285      343.087       18.952      859.795
09/08/2014  10:02:00       25.481       -9.826       37.343       39.388       50.860       43.798     1551.447     2586.696     1918.288        0.410        0.303       27.310       43.088        2.489      343.042       18.875      859.758
09/08/2014  10:03:00       38.732      -47.135       12.705       33.662       34.366       39.661     1133.135     1180.998     1572.997        0.388        0.194       61.007       31.477        0.266      343.173       19.099      859.711
09/08/2014  10:04:00       12.628      -10.147       26.985       23.605       34.396       24.498      557.184     1183.107      600.168        0.167        0.117       16.199       26.599        2.696      343.279       19.278      859.680
09/08/2014  10:05:00       63.874      -42.712        2.145       30.055       32.396       20.772      903.275     1049.471      431.455        0.415        0.119       76.839       12.923        0.028      343.074       18.928      859.649
09/08/2014  10:06:00       41.318        1.386       31.232       25.014       18.919       22.131      625.709      357.925      489.791        0.208        0.074       41.342       13.732        0.110      342.852       18.552      859.652
09/08/2014  10:07:00       43.894      -41.732        3.454       29.246       38.439       28.339      855.320     1477.529      803.121        0.341        0.157       60.566       23.028        0.145      343.284       19.289      859.678
09/08/2014  10:08:00       31.662      -43.871        1.345       28.227       24.874       21.305      796.790      618.701      453.917        0.240        0.093       54.103       14.911        0.076      342.878       18.596      859.682
09/08/2014  10:09:00       25.733      -42.360        2.595       35.203       33.254       31.470     1239.249     1105.806      990.343        0.290        0.167       49.563       20.398        0.169      343.051       18.891      859.697
09/08/2014  10:10:00       65.877      -49.372       -3.836       39.127       44.705       33.542     1530.923     1998.556     1125.042        0.572        0.233       82.325       26.566        0.104      343.357       19.413      859.743
09/08/2014  10:11:00       28.204      -60.416        9.474       25.406       58.877       27.106      645.481     3466.479      734.748        0.469        0.242       66.675       28.497        0.183      343.600       19.826      859.790
09/08/2014  10:12:00       33.242        4.278       26.724       36.987       39.667       29.722     1368.031     1573.474      883.398        0.283        0.191       33.517       23.887        0.508      343.508       19.670      859.802
09/08/2014  10:13:00       68.583       11.358       17.741       27.387       18.860       25.350      750.034      355.715      642.616        0.345        0.087       69.517       16.895        0.059      343.231       19.197      859.783
09/08/2014  10:14:00       99.161        8.717       -7.755       26.973       23.236       23.849      727.541      539.931      568.775        0.590        0.092       99.543        7.532        0.006      343.373       19.439      859.782
09/08/2014  10:15:00       36.625       34.063       20.096       44.891       32.819       39.356     2015.233     1077.072     1548.888        0.377        0.232       50.017       33.115        0.438      343.920       20.372      859.776
09/08/2014  10:16:00        7.689       61.685       81.332       40.020       42.259       39.935     1601.620     1785.785     1594.822        0.773        0.249       62.162       28.421        0.209      344.109       20.694      859.757
09/08/2014  10:17:00       13.020       57.548       69.371       42.145       59.879       49.123     1776.222     3585.499     2413.021        0.803        0.389       59.002       39.321        0.444      344.179       20.814      859.751
09/08/2014  10:18:00       33.593       64.967       89.194       63.054       71.637       49.894     3975.801     5131.820     2489.427        1.245        0.580       73.138       40.229        0.303      344.184       20.823      859.739
09/08/2014  10:19:00       54.175       38.520       23.584       68.653       46.944       47.542     4713.282     2203.715     2260.224        0.707        0.459       66.473       26.788        0.162      344.205       20.859      859.750
09/08/2014  10:20:00       40.809      -29.645        7.936       52.856       46.521       31.613     2793.796     2164.178      999.399        0.428        0.298       50.440       29.244        0.336      344.026       20.553      859.750
09/08/2014  10:21:00       36.857      -22.727       15.527       57.270       64.114       39.913     3279.827     4110.599     1593.070        0.555        0.449       43.301       46.250        1.141      343.900       20.339      859.760
09/08/2014  10:22:00       75.582      -77.341        6.198       43.391       55.193       39.481     1882.754     3046.239     1558.719        0.911        0.324      108.140       38.582        0.127      343.486       19.632      859.767
09/08/2014  10:23:00        3.947        3.087       45.707       30.662       52.752       28.065      940.186     2782.740      787.633        0.331        0.226        5.011       14.027        7.836      344.315       21.047      859.780
09/08/2014  10:24:00       43.102      -41.545       27.147       54.606       98.348       49.867     2981.832     9672.393     2486.751        0.973        0.757       59.864       47.946        0.641      344.279       20.985      859.794
09/08/2014  10:25:00       60.140       73.765       63.661       53.219       52.402       42.827     2832.213     2745.941     1834.188        1.026        0.371       95.174       26.087        0.075      344.076       20.637      859.813
09/08/2014  10:26:00      100.095       77.863       36.716       42.773       35.846       39.188     1829.517     1284.934     1535.678        1.104        0.233      126.813       19.131        0.023      343.902       20.340      859.824
09/08/2014  10:27:00       21.667       -2.082        9.933       43.983       46.324       32.959     1934.472     2145.896     1086.321        0.287        0.258       21.767        8.446        0.151      344.101       20.680      859.818
09/08/2014  10:28:00       30.703       50.221       66.008       53.881       63.519       47.098     2903.181     4034.687     2218.256        0.849        0.458       58.863       48.608        0.682      343.614       19.851      859.818
09/08/2014  10:29:00       55.311       -6.634       15.847       53.736       51.519       41.781     2887.521     2654.176     1745.638        0.532        0.364       55.708       42.337        0.578      343.752       20.086      859.837
09/08/2014  10:30:00       68.787      -89.523       10.016       39.780       65.244       41.411     1582.484     4256.737     1714.867        1.020        0.378      112.898       36.343        0.104      343.985       20.483      859.853
09/08/2014  10:31:00       48.612      -42.476       -4.972       45.085       43.318       40.896     2032.640     1876.414     1672.485        0.489        0.279       64.554       30.789        0.227      343.939       20.404      859.885
09/08/2014  10:32:00       85.848     -118.676      -14.277       43.537       53.108       36.884     1895.443     2820.506     1360.454        1.387        0.304      146.472       24.573        0.028      343.873       20.289      859.926
09/08/2014  10:33:00       10.858      -39.027       15.220       35.757       46.893       31.719     1278.559     2198.941     1006.082        0.318        0.224       40.509       21.581        0.284      343.971       20.459      859.968
09/08/2014  10:34:00        9.398       -8.343        9.135       27.034       40.375       30.086      730.834     1630.104      905.167        0.175        0.163       12.567        9.612        0.585      343.961       20.442      859.997
09/08/2014  10:35:00       43.943      -15.633       18.248       52.668       52.862       39.780     2773.883     2794.341     1582.457        0.483        0.358       46.641       41.778        0.802      343.826       20.212      860.029
09/08/2014  10:36:00       56.868       65.942       82.484       56.303       50.156       33.549     3170.001     2515.625     1125.563        1.060        0.341       87.076       30.872        0.126      343.713       20.019      860.041
09/08/2014  10:37:00       18.487       79.968       97.770       58.970       71.360       53.378     3477.410     5092.248     2849.174        1.386        0.571       82.077       41.958        0.261      343.623       19.864      860.071
09/08/2014  10:38:00        3.592       20.489       54.618       27.049       47.490       31.554      731.651     2255.294      995.642        0.370        0.199       20.802       32.812        2.488      343.592       19.812      860.149
09/08/2014  10:39:00        7.140      -27.539       11.937       52.164       36.314       28.687     2721.039     1318.737      822.968        0.291        0.243       28.450       19.135        0.452      343.592       19.810      860.172
09/08/2014  10:40:00       -1.111        7.772       16.402       58.533       41.916       31.299     3426.109     1756.974      979.653        0.325        0.308        7.851       21.730        7.660      343.785       20.142      860.117
09/08/2014  10:41:00       88.092      -68.824       28.018      101.149      155.438       66.556    10231.143    24161.031     4429.668        2.605        1.941      111.790       91.409        0.669      343.566       19.765      860.055
09/08/2014  10:42:00       38.156       23.272      100.671       81.193      117.504       67.995     6592.288    13807.101     4623.307        1.857        1.251       44.693       79.158        3.137      343.171       19.094      859.894
09/08/2014  10:43:00      118.224      -97.564       50.367      157.857      143.774       97.475    24918.893    20671.037     9501.280        4.055        2.755      153.283      119.614        0.609      343.227       19.187      859.715
09/08/2014  10:44:00      114.146      -30.196       13.767       74.708      205.312       70.178     5581.346    42152.893     4924.963        3.339        2.633      118.073       64.199        0.296      343.183       19.112      859.599
09/08/2014  10:45:00       85.420       81.881       27.641       41.024       34.057       37.532     1682.960     1159.860     1408.628        0.951        0.213      118.326       26.653        0.051      343.259       19.245      859.560
09/08/2014  10:46:00       -2.146       11.216        9.056       38.203       31.340       33.121     1459.453      982.168     1097.030        0.187        0.177       11.420       16.271        2.030      343.172       19.096      859.667
09/08/2014  10:47:00      -44.770       59.800      -20.106       24.979       24.700       14.719      623.944      610.081      216.664        0.372        0.073       74.702       12.713        0.029      343.093       18.962      859.780
09/08/2014  10:48:00      -45.534       46.948      -24.394       18.945       32.742       17.099      358.924     1072.062      292.386        0.330        0.086       65.402        9.155        0.020      343.243       19.218      859.843
09/08/2014  10:49:00       14.200       81.450       -6.055       41.411       24.302       25.134     1714.844      590.579      631.727        0.490        0.147       82.678       20.521        0.062      343.494       19.644      859.826
09/08/2014  10:50:00       23.021       82.285       -1.532       36.709       61.646       26.402     1347.542     3800.239      697.086        0.657        0.292       85.445       28.959        0.115      343.592       19.812      859.783
09/08/2014  10:51:00      -18.116      146.431      -10.427       36.074       47.160       34.634     1301.307     2224.022     1199.529        1.330        0.236      147.547       33.479        0.051      343.555       19.750      859.773
09/08/2014  10:52:00      -79.158       55.396      -14.019       49.556       29.155       29.191     2455.805      850.037      852.093        0.684        0.208       96.616       31.607        0.107      343.505       19.663      859.776
09/08/2014  10:53:00        6.037       62.379       11.847       29.200       25.057       26.374      852.666      627.839      695.586        0.312        0.109       62.671       18.720        0.089      343.993       20.498      859.787
09/08/2014  10:54:00       42.196       46.753        7.002       69.213       46.343       25.884     4790.395     2147.649      670.005        0.581        0.380       62.979       21.954        0.122      343.746       20.075      859.797
09/08/2014  10:55:00       79.005       72.321       15.405       38.881       36.582       36.475     1511.705     1338.263     1330.443        0.794        0.209      107.109       15.343        0.021      344.032       20.565      859.829
09/08/2014  10:56:00       94.144       88.072       28.173       45.281       27.368       36.269     2050.389      749.033     1315.450        1.076        0.206      128.918       15.994        0.015      343.834       20.224      859.895
09/08/2014  10:57:00      113.046       55.432       56.798       88.826       55.928       51.801     7890.030     3127.909     2683.298        1.639        0.685      125.905       40.763        0.105      343.856       20.261      859.941
09/08/2014  10:58:00       72.034       71.456       46.143       61.706       33.335       37.804     3807.648     1111.206     1429.149        0.938        0.317      101.463       11.563        0.013      343.821       20.203      859.941
09/08/2014  10:59:00       34.360       29.337       12.789       43.940       53.296       31.297     1930.714     2840.443      979.515        0.398        0.288       45.180       16.538        0.134      344.055       20.602      859.896
09/08/2014  11:00:00       10.072      106.332      -14.258       37.064       40.011       28.076     1373.756     1600.905      788.255        0.769        0.188      106.808       27.546        0.067      344.019       20.539      859.838
09/08/2014  11:01:00      -39.479      107.522       -5.177       28.644       50.797       27.578      820.458     2580.319      760.548        0.865        0.208      114.540       29.441        0.066      344.235       20.910      859.799
09/08/2014  11:02:00       -2.476      137.761       -4.755       36.354       50.781       27.955     1321.642     2578.727      781.492        1.184        0.234      137.784       29.702        0.046      344.269       20.968      859.755
09/08/2014  11:03:00      -14.669      102.559       -1.702       35.732       65.022       30.067     1276.762     4227.909      903.995        0.857        0.320      103.603       33.913        0.107      344.378       21.155      859.722
09/08/2014  11:04:00      -12.803       98.991        0.797       27.206       58.852       34.856      740.145     3463.504     1214.963        0.769        0.271       99.816       33.271        0.111      344.631       21.587      859.686
09/08/2014  11:05:00       16.813      148.937      -13.140       44.479       60.295       33.789     1978.363     3635.429     1141.715        1.470        0.338      149.882       25.433        0.029      344.362       21.126      859.678
09/08/2014  11:06:00       51.329       68.862        5.137       38.507       47.513       40.190     1482.783     2257.450     1615.253        0.638        0.268       85.888       31.970        0.139      344.666       21.647      859.665
09/08/2014  11:07:00      120.561       91.474        4.900       43.307       29.354       38.995     1875.480      861.648     1520.626        1.359        0.213      151.335       21.220        0.020      344.345       21.097      859.653
09/08/2014  11:08:00       94.130       51.773        9.845       34.987       41.932       28.091     1224.067     1758.271      789.091        0.770        0.189      107.428       18.912        0.031      344.299       21.020      859.642
09/08/2014  11:09:00       48.447       53.434       41.351       42.973       35.519       18.066     1846.660     1261.581      326.370        0.517        0.172       72.127       10.910        0.023      344.695       21.697      859.658
09/08/2014  11:10:00       46.034       47.205       21.485       54.351       48.676       39.443     2954.065     2369.356     1555.752        0.584        0.344       65.935       15.674        0.057      344.842       21.948      859.656
09/08/2014  11:11:00       84.741       50.113       13.749       45.376       37.835       40.135     2058.939     1431.502     1610.807        0.749        0.255       98.450       14.744        0.022      344.833       21.931      859.664
09/08/2014  11:12:00       33.738       43.882       -3.978       34.483       30.082       17.690     1189.067      904.916      312.946        0.274        0.120       55.353        9.645        0.030      344.764       21.815      859.653
09/08/2014  11:13:00      -45.014       15.031       -0.337       21.875       20.843       16.839      478.533      434.428      283.538        0.172        0.060       47.457       13.212        0.078      344.712       21.727      859.650
09/08/2014  11:14:00      -37.339       11.858        3.309       31.716       18.895       18.480     1005.895      357.011      341.499        0.162        0.085       39.177       21.480        0.301      344.932       22.102      859.648
09/08/2014  11:15:00       19.002       -4.093       21.061       48.742       39.542       25.199     2375.753     1563.531      634.979        0.270        0.229       19.438       19.815        1.039      345.539       23.142      859.641
09/08/2014  11:16:00       52.128     -118.212       -6.694       60.345       44.101       31.060     3641.542     1944.941      964.702        1.164        0.328      129.195       29.223        0.051      345.007       22.231      859.617
09/08/2014  11:17:00       74.242       23.780       -0.381       46.502       65.322       38.959     2162.438     4266.914     1517.789        0.701        0.397       77.957       27.540        0.125      345.238       22.625      859.587
09/08/2014  11:18:00      141.741       82.887       46.239       63.887       42.955       49.080     4081.554     1845.113     2408.817        1.872        0.417      164.197       36.291        0.049      345.097       22.384      859.565
09/08/2014  11:19:00       87.929       98.406       83.027       64.177       52.092       51.594     4118.675     2713.565     2661.969        1.690        0.475      131.967       42.062        0.102      345.018       22.247      859.555
09/08/2014  11:20:00       33.951       52.715       70.568       50.760       45.488       30.217     2576.530     2069.141      913.047        0.723        0.278       62.702       27.946        0.199      345.216       22.588      859.567
09/08/2014  11:21:00       -8.069      -28.855       31.769       20.999       65.395       44.720      440.943     4276.560     1999.906        0.431        0.336       29.962       46.140        2.371      345.354       22.824      859.578
09/08/2014  11:22:00        5.857       -7.994        8.335       35.806       47.955       36.378     1282.047     2299.675     1323.365        0.254        0.245        9.910       30.301        9.350      345.360       22.835      859.579
09/08/2014  11:23:00       44.567       75.783       80.921       55.997       46.019       47.194     3135.619     2117.717     2227.295        1.088        0.374       87.916       40.398        0.211      345.450       22.988      859.573
09/08/2014  11:24:00       92.207       69.354       51.553       56.281       45.102       49.201     3167.596     2034.180     2420.705        1.179        0.381      115.378       34.578        0.090      345.458       23.003      859.573
09/08/2014  11:25:00       19.475       59.539       97.965       43.361       52.160       29.668     1880.140     2720.622      880.180        0.950        0.274       62.643       28.662        0.209      345.749       23.502      859.583
09/08/2014  11:26:00       60.890       29.660       39.604       59.932       56.055       37.492     3591.785     3142.206     1405.670        0.715        0.407       67.730       25.937        0.147      345.554       23.168      859.559
09/08/2014  11:27:00       45.622       65.077       84.656       68.016      118.921       74.243     4626.194    14142.136     5511.989        1.888        1.214       79.476       84.574        1.132      345.572       23.198      859.543
09/08/2014  11:28:00      123.981       92.954       43.761       51.566       45.064       48.701     2659.047     2030.750     2371.787        1.649        0.353      154.957       36.294        0.055      345.178       22.523      859.536
09/08/2014  11:29:00       56.981       61.135       66.420       46.381       36.373       37.284     2151.181     1323.026     1390.126        0.813        0.243       83.572       23.806        0.081      345.488       23.054      859.552
09/08/2014  11:30:00       15.432       45.949       69.730       34.796       37.179       32.014     1210.786     1382.248     1024.904        0.541        0.181       48.471       22.898        0.223      345.729       23.467      859.566
09/08/2014  11:31:00       80.392       85.894       75.881       58.275       38.987       40.108     3395.922     1519.970     1608.624        1.306        0.326      117.647       26.516        0.051      345.572       23.197      859.568
09/08/2014  11:32:00       49.431       52.135       60.714       50.725       63.297       33.935     2572.999     4006.459     1151.556        0.829        0.387       71.843       24.672        0.118      345.779       23.553      859.563
09/08/2014  11:33:00       35.941       76.107       86.270       45.261       37.621       27.917     2048.520     1415.349      779.339        0.938        0.212       84.166       20.115        0.057      345.707       23.429      859.562
09/08/2014  11:34:00       64.425       60.215       78.559       50.852       47.106       32.778     2585.882     2218.964     1074.388        0.991        0.294       88.184       30.417        0.119      345.680       23.382      859.572
09/08/2014  11:35:00       62.085       54.274       30.430       43.452       39.923       32.643     1888.090     1593.835     1065.592        0.614        0.227       82.463       25.139        0.093      345.635       23.307      859.578
09/08/2014  11:36:00       45.115       30.275       47.219       75.875       63.860       34.255     5757.051     4078.128     1173.432        0.809        0.550       54.332       38.298        0.497      345.768       23.536      859.566
09/08/2014  11:37:00       43.206       53.071       57.393       37.814       40.003       35.653     1429.906     1600.269     1271.112        0.614        0.215       68.435       22.240        0.106      345.935       23.822      859.546
09/08/2014  11:38:00       47.832       51.993       28.180       53.213       43.213       39.134     2831.626     1867.345     1531.479        0.601        0.312       70.648       36.261        0.263      345.861       23.694      859.510
09/08/2014  11:39:00       55.028       71.209       84.010       59.013       49.749       33.461     3482.516     2474.943     1119.628        1.112        0.354       89.994       22.617        0.063      346.356       24.545      859.459
09/08/2014  11:40:00       30.172       22.128       35.911       62.812       76.809       43.904     3945.295     5899.593     1927.597        0.723        0.589       37.417       32.118        0.737      346.327       24.495      859.406
09/08/2014  11:41:00       28.314       29.962       54.546       43.496       83.398       46.357     1891.889     6955.251     2148.993        0.783        0.550       41.224       43.603        1.119      346.388       24.600      859.368
09/08/2014  11:42:00       63.134      115.962      124.591      101.434       88.676       54.070    10288.869     7863.382     2923.568        2.701        1.054      132.034       43.358        0.108      346.341       24.518      859.335
09/08/2014  11:43:00      147.891      114.124       81.483       75.002       56.387       45.000     5625.321     3179.465     2024.974        2.618        0.541      186.805       34.471        0.034      345.524       23.113      859.311
09/08/2014  11:44:00       83.239       84.789       52.975       90.021       44.771       48.269     8103.696     2004.422     2329.855        1.468        0.622      118.819       23.672        0.040      346.012       23.952      859.269
09/08/2014  11:45:00       39.335       48.474       79.387       54.848      107.700       52.087     3008.352    11599.198     2713.053        1.376        0.866       62.426       49.086        0.618      346.184       24.248      859.240
09/08/2014  11:46:00       42.659       74.751      105.072       57.728       77.616       54.501     3332.473     6024.171     2970.339        1.539        0.616       86.067       53.238        0.383      346.381       24.587      859.232
09/08/2014  11:47:00       41.464       43.125       42.026       53.358       47.846       33.390     2847.109     2289.224     1114.923        0.580        0.313       59.825       23.233        0.151      346.412       24.640      859.209
09/08/2014  11:48:00       43.025       27.820       78.129       60.865       91.111       57.879     3704.512     8301.278     3349.980        1.204        0.768       51.236       59.397        1.344      346.656       25.061      859.171
09/08/2014  11:49:00      114.306      124.691      123.317      106.094       60.533       58.804    11255.969     3664.259     3457.901        3.110        0.919      169.156       44.339        0.069      346.335       24.506      859.161
09/08/2014  11:50:00       26.897       13.027       65.802       59.495      112.307       62.676     3539.627    12612.802     3928.223        1.265        1.004       29.886       76.827        6.608      346.130       24.155      859.149
09/08/2014  11:51:00        0.569        9.609       33.654       72.293       54.273       32.803     5226.239     2945.530     1076.022        0.523        0.462        9.626       16.325        2.877      346.709       25.152      859.117
09/08/2014  11:52:00      114.271      -18.299       59.727       82.053       94.321       62.038     6732.641     8896.469     3848.708        1.822        0.974      115.727       54.412        0.221      346.412       24.640      859.095
09/08/2014  11:53:00      101.271      105.349      107.797       92.873       77.079       67.299     8625.373     5941.144     4529.132        2.603        0.955      146.130       63.109        0.187      346.195       24.266      859.058
09/08/2014  11:54:00      115.182      -27.369       50.421      119.796      150.798       73.280    14350.963    22740.183     5369.951        2.950        2.123      118.389       84.586        0.510      346.516       24.819      859.024
09/08/2014  11:55:00       85.477      -17.040       62.300       97.936      148.358       79.980     9591.446    22010.038     6396.776        2.473        1.900       87.159       94.247        1.169      346.723       25.175      858.999
09/08/2014  11:56:00      106.820       20.183      103.761      115.424      109.082       78.868    13322.804    11898.892     6220.107        2.701        1.572      108.710       78.516        0.522      346.641       25.033      858.979
09/08/2014  11:57:00       84.112       97.111      142.467      109.765      103.270       74.678    12048.424    10664.670     5576.806        3.254        1.414      128.473       60.713        0.223      346.663       25.070      858.982
09/08/2014  11:58:00       23.504      113.006      173.834       82.956      107.513       91.852     6881.665    11559.051     8436.773        3.520        1.344      115.425       82.793        0.515      346.587       24.939      858.960
09/08/2014  11:59:00       23.072     -102.107       -9.941       85.491       50.978       53.548     7308.773     2598.777     2867.435        1.191        0.639      104.681       26.082        0.062      346.401       24.622      858.968
09/08/2014  12:00:00      179.769      -11.815       43.338      123.522      161.585       99.371    15257.806    26109.859     9874.558        4.278        2.562      180.157       93.004        0.266      346.674       25.089      858.932
09/08/2014  12:01:00       91.026       75.204       96.854      104.873      103.480       87.292    10998.283    10708.166     7619.864        2.632        1.466      118.073       74.020        0.393      346.805       25.314      858.917
09/08/2014  12:02:00      108.208     -105.355       15.997       88.090      136.247       76.428     7759.855    18563.244     5841.302        2.761        1.608      151.025       85.185        0.318      346.881       25.446      858.908
09/08/2014  12:03:00       88.466      -28.686       39.812       86.478       80.409       74.489     7478.424     6465.639     5548.637        1.486        0.975       93.000       72.484        0.607      346.975       25.609      858.931
09/08/2014  12:04:00       58.272        3.146       71.668       71.678       77.085       56.663     5137.708     5942.130     3210.727        1.141        0.715       58.356       59.357        1.035      346.972       25.605      858.915
09/08/2014  12:05:00       81.902      -77.232       24.297       79.374      117.462       67.274     6300.234    13797.214     4525.766        1.894        1.231      112.573       78.630        0.488      346.959       25.581      858.884
09/08/2014  12:06:00       90.212     -124.222        0.357       82.025       76.425       38.804     6728.094     5840.816     1505.783        1.882        0.704      153.523       45.214        0.087      346.921       25.514      858.881
09/08/2014  12:07:00      -44.397      -52.398       14.918       49.209       50.360       34.068     2421.539     2536.105     1160.658        0.553        0.306       68.677       31.884        0.216      347.059       25.755      858.872
09/08/2014  12:08:00       76.393     -116.134        1.171       70.442       98.277       50.128     4962.044     9658.340     2512.844        1.823        0.857      139.007       59.115        0.181      347.038       25.715      858.844
09/08/2014  12:09:00        6.305     -100.780      -21.094       48.399       49.550       43.280     2342.435     2455.218     1873.159        0.865        0.334      100.977       27.826        0.076      346.908       25.494      858.826
09/08/2014  12:10:00      -60.471      -83.533        9.488       61.775       93.854       32.328     3816.155     8808.537     1045.098        1.219        0.683      103.123       17.322        0.028      346.845       25.385      858.798
09/08/2014  12:11:00        5.716      -61.187       12.662       48.915       87.356       36.424     2392.655     7631.144     1326.735        0.764        0.568       61.454       42.700        0.483      347.100       25.824      858.764
09/08/2014  12:12:00       64.864     -146.105       -6.487       68.278       83.663       44.300     4661.934     6999.426     1962.468        1.961        0.681      159.856       44.881        0.079      346.794       25.296      858.752
09/08/2014  12:13:00       40.559     -130.021        1.917       76.276       75.077       44.894     5817.995     5636.534     2015.467        1.601        0.673      136.200       47.631        0.122      346.666       25.076      858.753
09/08/2014  12:14:00       92.416      -24.344       34.329       68.610       94.134       63.333     4707.339     8861.198     4011.089        1.394        0.879       95.569       70.681        0.547      346.869       25.428      858.733
09/08/2014  12:15:00       75.477     -112.381       38.973       72.040      190.734       82.575     5189.738    36379.428     6818.602        3.411        2.419      135.375      101.164        0.558      346.950       25.565      858.718
09/08/2014  12:16:00       94.811      -97.557       54.871      103.899      138.492       92.144    10794.994    19179.954     8490.595        2.999        1.923      136.039       86.193        0.401      347.106       25.833      858.701
09/08/2014  12:17:00      -32.667     -152.428      -16.477       95.764       47.765       38.289     9170.671     2281.486     1466.073        1.874        0.646      155.889       23.619        0.023      346.877       25.440      858.731
09/08/2014  12:18:00       22.478     -145.993       -6.845       91.979       96.167       61.678     8460.203     9248.076     3804.221        2.169        1.076      147.713       48.637        0.108      346.938       25.543      858.718
09/08/2014  12:19:00       33.036      -55.918       23.778       85.014      128.057       69.709     7227.394    16398.579     4859.363        1.663        1.424       64.948       71.217        1.202      347.068       25.768      858.734
09/08/2014  12:20:00       34.731      -42.964        8.360       57.652      115.389       42.503     3323.762    13314.728     1806.480        1.078        0.922       55.246       58.247        1.112      346.838       25.371      858.740
09/08/2014  12:21:00       21.332      -25.652       37.351       45.843       71.844       45.505     2101.619     5161.580     2070.662        0.592        0.467       33.363       56.239        2.842      346.948       25.563      858.713
09/08/2014  12:22:00      150.902     -149.075      -10.495       76.821       96.095       58.069     5901.525     9234.312     3371.951        3.180        0.925      212.120       65.549        0.095      346.771       25.255      858.721
09/08/2014  12:23:00       53.439     -179.297       -1.509      106.527      131.693       82.319    11348.041    17343.033     6776.487        3.523        1.773      187.091       67.060        0.128      346.819       25.338      858.709
09/08/2014  12:24:00      114.966     -143.893       19.357      113.529      166.812       91.948    12888.743    27826.272     8454.434        4.173        2.458      184.180      107.945        0.343      346.873       25.431      858.716
09/08/2014  12:25:00      129.386     -195.181      -37.048       89.664       86.128       46.975     8039.695     7418.037     2206.663        3.693        0.883      234.172       41.946        0.032      346.692       25.120      858.691
09/08/2014  12:26:00       37.021      -92.594        6.921       62.876       70.676       42.110     3953.377     4995.081     1773.228        1.036        0.536       99.720       33.367        0.112      346.869       25.425      858.656
09/08/2014  12:27:00      -31.469      -72.090       10.559       88.950       57.288       45.299     7912.152     3281.920     2052.028        0.977        0.662       78.659       25.059        0.101      346.781       25.276      858.647
09/08/2014  12:28:00       62.855      -34.514       23.866       53.314       56.181       43.558     2842.421     3156.344     1897.341        0.680        0.395       71.708       45.214        0.398      346.903       25.487      858.645
09/08/2014  12:29:00       17.361       -5.618       10.905       74.308       69.358       41.424     5521.737     4810.469     1715.931        0.625        0.602       18.247       36.152        3.925      346.819       25.339      858.631
09/08/2014  12:30:00      -13.292      -39.070       -1.273       42.352       78.379       25.172     1793.706     6143.272      633.641        0.514        0.429       41.269       32.275        0.612      346.674       25.092      858.630
09/08/2014  12:31:00       83.310       72.047       28.169       53.200       69.571       58.413     2830.217     4840.110     3412.088        1.200        0.554      110.143       26.076        0.056      346.726       25.180      858.586
09/08/2014  12:32:00      138.279       49.038       71.475       80.009       51.560       56.690     6401.378     2658.444     3213.705        1.945        0.614      146.717       50.909        0.120      346.760       25.238      858.587
09/08/2014  12:33:00      115.146      -13.018       38.645       92.627      143.869       62.180     8579.747    20698.360     3866.322        2.403        1.657      115.879       83.794        0.523      346.771       25.256      858.574
09/08/2014  12:34:00        7.489        7.965       28.186       40.697       57.355       34.403     1656.267     3289.560     1183.593        0.352        0.306       10.933       29.085        7.077      347.012       25.672      858.595
09/08/2014  12:35:00       22.213      -43.496       14.855       31.728       56.190       38.700     1006.694     3157.311     1497.684        0.413        0.283       48.840       39.768        0.663      347.003       25.659      858.587
09/08/2014  12:36:00        2.442       16.857       41.040       30.254       34.619       26.212      915.285     1198.469      687.060        0.239        0.140       17.033       23.234        1.861      346.925       25.523      858.563
09/08/2014  12:37:00       12.696      -40.942        2.550       35.562       34.284       28.527     1264.688     1175.362      813.798        0.255        0.163       42.865       23.905        0.311      346.871       25.431      858.559
09/08/2014  12:38:00      -25.144      -68.671       -8.845       55.145       34.913       25.477     3040.938     1218.884      649.090        0.517        0.245       73.129       16.969        0.054      346.823       25.348      858.545
09/08/2014  12:39:00      -38.777      -34.183        1.101       55.805       30.799       24.529     3114.223      948.603      601.671        0.367        0.233       51.693       20.741        0.161      346.881       25.447      858.541
09/08/2014  12:40:00      -74.135      -91.932        2.695       45.488       53.939       24.888     2069.125     2909.394      619.426        0.978        0.280      118.099       20.738        0.031      346.787       25.286      858.534
09/08/2014  12:41:00      -49.447      -35.355        6.972       76.571       37.369       33.301     5863.098     1396.444     1108.924        0.605        0.418       60.787       37.123        0.373      347.024       25.695      858.526
09/08/2014  12:42:00      -33.829      -17.997        9.244       47.283       41.262       28.571     2235.654     1702.544      816.328        0.315        0.238       38.318       28.361        0.548      347.151       25.912      858.508
09/08/2014  12:43:00      -29.001      -43.856        2.274       38.466       36.458       28.523     1479.604     1329.167      813.535        0.320        0.181       52.577       24.129        0.211      347.155       25.920      858.483
09/08/2014  12:44:00      -46.688       -8.337       12.319       44.789       25.086       24.537     2006.082      629.286      602.087        0.282        0.162       47.426       26.942        0.323      347.114       25.849      858.454
09/08/2014  12:45:00      -46.624     -100.423       -5.773       47.608       60.340       31.164     2266.567     3640.935      971.211        0.958        0.344      110.718       26.521        0.057      346.930       25.532      858.442
09/08/2014  12:46:00      -58.871      -43.871       -2.650       49.769       53.323       33.001     2476.918     2843.313     1089.054        0.590        0.320       73.420       24.054        0.107      346.921       25.517      858.427
09/08/2014  12:47:00       45.988      -47.621       17.521       48.709       65.579       43.402     2372.564     4300.626     1883.739        0.662        0.428       66.202       46.500        0.493      347.302       26.174      858.418
09/08/2014  12:48:00       73.538      -47.884       27.966       49.085       81.097       36.860     2409.301     6576.683     1358.633        0.941        0.517       87.753       46.624        0.282      347.177       25.958      858.397
09/08/2014  12:49:00      -18.203       35.173       30.379       30.848       34.631       21.322      951.593     1199.276      454.607        0.255        0.130       39.604       19.262        0.237      347.551       26.603      858.373
09/08/2014  12:50:00      -40.100      -33.075       -1.832       28.709       30.513       25.172      824.212      931.043      633.613        0.255        0.119       51.980       13.185        0.064      347.349       26.254      858.349
09/08/2014  12:51:00      -73.078      -32.822        2.795       49.094       29.938       21.639     2410.223      896.277      468.258        0.510        0.189       80.111       18.685        0.054      347.430       26.393      858.332
09/08/2014  12:52:00     -114.545      -37.325      -16.400       56.055       29.677       15.649     3142.112      880.739      244.904        0.952        0.213      120.473       10.280        0.007      347.019       25.684      858.332
09/08/2014  12:53:00      -36.629      -55.310        5.078       45.848       52.945       25.924     2102.025     2803.215      672.067        0.500        0.279       66.339       19.898        0.090      347.703       26.865      858.323
09/08/2014  12:54:00       18.138     -166.998      -13.866       97.652       68.306       44.093     9535.955     4665.671     1944.204        2.227        0.807      167.980       24.410        0.021      347.287       26.145      858.295
09/08/2014  12:55:00      131.549     -233.963      -16.856      100.873      102.048       61.635    10175.279    10413.844     3798.916        4.835        1.219      268.410       55.635        0.043      347.373       26.292      858.274
09/08/2014  12:56:00       85.778     -147.708      -12.634       70.696      105.882       55.654     4997.909    11210.959     3097.332        2.432        0.965      170.808       48.227        0.080      347.451       26.427      858.252
09/08/2014  12:57:00      134.253     -112.839       28.375      116.363      120.772       71.291    13540.248    14585.865     5082.478        3.238        1.660      175.375       81.041        0.214      347.671       26.809      858.223
09/08/2014  12:58:00      183.108     -230.494      -23.124      151.067      102.122       59.584    22821.094    10428.996     3550.305        6.199        1.840      294.374       69.968        0.056      347.429       26.389      858.195
09/08/2014  12:59:00      144.638     -240.637      -16.936       96.361      116.415       64.694     9285.381    13552.346     4185.366        5.306        1.351      280.760       57.805        0.042      347.185       25.967      858.200
09/08/2014  13:00:00      133.283       16.108       66.840       94.632      172.849       89.452     8955.183    29876.852     8001.721        3.465        2.342      134.253      104.917        0.611      347.300       26.167      858.182
09/08/2014  13:01:00       71.335       25.699       49.388       80.261       98.257       46.347     6441.874     9654.508     2148.059        1.321        0.912       75.823       53.132        0.491      347.489       26.495      858.149
09/08/2014  13:02:00       25.561       70.001       83.189       54.574       69.317       53.884     2978.343     4804.885     2903.469        1.158        0.534       74.522       36.727        0.243      347.976       27.335      858.132
09/08/2014  13:03:00        3.699       15.935       36.393       48.045       37.742       24.493     2308.285     1424.473      599.901        0.296        0.217       16.358       21.674        1.756      347.837       27.097      858.145
09/08/2014  13:04:00       49.131       17.310       43.070       64.627       58.535       42.046     4176.649     3426.355     1767.904        0.697        0.469       52.091       37.748        0.525      347.651       26.775      858.144
09/08/2014  13:05:00      122.915       58.866       28.651       37.995       60.114       41.571     1443.648     3613.712     1728.179        1.309        0.339      136.284       39.137        0.082      347.260       26.099      858.112
09/08/2014  13:06:00       53.135       34.507       65.193       58.033       75.123       46.522     3367.780     5643.462     2164.303        0.972        0.559       63.357       53.404        0.711      347.762       26.966      858.095
09/08/2014  13:07:00       29.632       -1.076       18.157       67.721       63.491       46.387     4586.101     4031.158     2151.792        0.599        0.538       29.652       41.704        1.978      347.469       26.460      858.073
09/08/2014  13:08:00       28.498       64.067        7.655       58.164       45.585       25.740     3383.038     2078.010      662.557        0.555        0.306       70.119       22.000        0.098      347.477       26.474      858.030
09/08/2014  13:09:00       64.516       41.637        3.112       44.343       36.531       31.333     1966.281     1334.544      981.753        0.509        0.214       76.785       19.091        0.062      347.517       26.544      858.016
09/08/2014  13:10:00      178.568      124.955       64.882       93.819       73.310       70.724     8802.090     5374.402     5001.927        3.544        0.959      217.945       25.340        0.014      347.616       26.712      857.987
09/08/2014  13:11:00       99.325     -112.044       18.079       70.987      121.385       63.692     5039.146    14734.289     4056.730        2.328        1.192      149.731       58.082        0.150      347.728       26.906      857.926
09/08/2014  13:12:00       97.439       54.693       91.744       92.775       88.984       67.249     8607.268     7918.206     4522.380        2.097        1.052      111.739       65.064        0.339      347.772       26.983      857.915
09/08/2014  13:13:00      144.959       95.109       49.641      115.089       81.954       66.044    13245.385     6716.516     4361.777        2.842        1.216      173.375       56.774        0.107      347.740       26.925      857.912
09/08/2014  13:14:00       74.831       33.147        8.581       51.182       72.736       29.190     2619.570     5290.585      852.036        0.777        0.438       81.844       25.845        0.100      347.877       27.164      857.909
09/08/2014  13:15:00       21.511      -21.452       12.113       39.981       61.302       42.297     1598.470     3757.969     1789.020        0.411        0.357       30.379       25.985        0.732      348.143       27.625      857.903
09/08/2014  13:16:00       55.896        0.873        4.261       41.493       42.167       36.296     1721.706     1778.076     1317.402        0.398        0.241       55.903       24.381        0.190      348.139       27.617      857.897
09/08/2014  13:17:00       27.263      -43.184       31.550       60.187       63.348       56.291     3622.425     4012.923     3168.694        0.720        0.540       51.069       43.685        0.732      348.188       27.701      857.866
09/08/2014  13:18:00       38.419       64.483        1.712       45.270       49.828       38.347     2049.413     2482.800     1470.515        0.582        0.300       75.061       26.219        0.122      347.853       27.125      857.846
09/08/2014  13:19:00     -117.988      119.055      -24.904      102.325       64.028       33.648    10470.387     4099.537     1132.158        2.221        0.785      167.617       18.457        0.012      347.767       26.974      857.833
09/08/2014  13:20:00     -182.523       10.051       -9.616       87.570      102.199       49.411     7668.516    10444.709     2441.424        2.703        1.028      182.800       36.739        0.040      347.903       27.207      857.799
09/08/2014  13:21:00     -294.526       40.944      -29.293      167.404       94.075       53.432    28023.995     8850.152     2854.972        6.450        1.986      297.358       64.733        0.047      347.682       26.825      857.791
09/08/2014  13:22:00     -373.799      -41.234      -37.517      137.114      128.267       59.154    18800.171    16452.536     3499.242        9.079        1.938      376.066       58.023        0.024      347.862       27.135      857.787
09/08/2014  13:23:00     -226.203      -40.583      -10.779       95.807       67.796       45.623     9179.032     4596.350     2081.448        3.439        0.793      229.815       45.187        0.039      348.109       27.565      857.788
09/08/2014  13:24:00     -390.020     -133.087      -22.575      203.412      139.281       66.580    41376.273    19399.286     4432.877       11.776        3.260      412.101       80.792        0.038      348.056       27.472      857.775
09/08/2014  13:25:00     -376.141      -94.216      -10.082      194.059      132.050       68.114    37658.873    17437.123     4639.536       10.509        2.987      387.761       87.195        0.051      347.909       27.218      857.784
09/08/2014  13:26:00     -402.502      -52.262       -9.497      142.928       97.286       65.230    20428.461     9464.599     4254.998        9.948        1.707      405.880       72.174        0.032      347.725       26.898      857.784
09/08/2014  13:27:00     -449.510     -107.631      -24.620      152.479      133.419       81.056    23249.902    17800.757     6570.080       13.093        2.381      462.216       84.575        0.033      347.675       26.811      857.780
09/08/2014  13:28:00     -428.839     -105.508      -12.230      112.677       86.919       57.447    12696.068     7554.837     3300.183       10.936        1.178      441.628       56.909        0.017      347.417       26.366      857.785
09/08/2014  13:29:00     -313.117      -93.634      -19.943       72.294       61.248       39.770     5226.408     3751.332     1581.633        5.888        0.528      326.817       23.958        0.005      347.284       26.137      857.784
09/08/2014  13:30:00     -208.216      -17.854      -14.901       97.124       80.471       43.535     9433.016     6475.635     1895.331        3.085        0.890      208.980       36.560        0.031      347.664       26.794      857.770
09/08/2014  13:31:00     -293.496     -164.666        2.709      160.052      132.120       70.032    25616.608    17455.611     4904.492        8.061        2.399      336.534       79.640        0.056      347.723       26.896      857.746
09/08/2014  13:32:00     -230.340     -102.492      -36.411      147.020      124.427       60.759    21614.822    15482.198     3691.693        5.283        2.039      252.113       37.995        0.023      347.294       26.156      857.783
09/08/2014  13:33:00       17.205       91.100       16.380       62.408       87.438       52.635     3894.703     7645.446     2770.494        1.158        0.716       92.710       46.801        0.255      347.669       26.804      857.750
09/08/2014  13:34:00      -61.076      118.458      -15.265       76.482      110.719       47.471     5849.435    12258.709     2253.479        1.918        1.018      133.276       35.364        0.070      347.849       27.114      857.722
09/08/2014  13:35:00      -47.575       89.129        9.433       43.283       55.862       37.262     1873.460     3120.608     1388.444        0.834        0.319      101.032       30.283        0.090      348.075       27.508      857.690
09/08/2014  13:36:00      -76.648       51.043       -0.527       55.038       53.075       42.013     3029.135     2816.983     1765.119        0.804        0.381       92.089       26.192        0.081      348.130       27.604      857.682
09/08/2014  13:37:00      -88.652       15.416       -4.106       99.338      104.768       49.200     9868.100    10976.274     2420.609        1.569        1.163       89.982       43.303        0.232      348.164       27.659      857.645
09/08/2014  13:38:00      -15.902        0.928       29.337       40.589       89.292       46.927     1647.502     7973.019     2202.118        0.647        0.591       15.929       19.856        1.554      348.376       28.028      857.635
09/08/2014  13:39:00     -151.495       16.679       -6.384      110.897       81.273       54.791    12298.080     6605.356     3002.066        2.258        1.095      152.411       59.843        0.154      348.152       27.639      857.617
09/08/2014  13:40:00     -258.035      -25.621       -8.009      102.339      108.849       45.242    10473.293    11848.177     2046.837        4.583        1.218      259.304       38.045        0.022      347.737       26.919      857.621
09/08/2014  13:41:00     -189.749     -100.661       -4.595      116.202       76.364       55.732    13502.893     5831.426     3106.023        3.430        1.122      214.796       51.803        0.058      347.639       26.752      857.631
09/08/2014  13:42:00     -148.796      -66.634        4.561      104.722       54.012       44.885    10966.786     2917.253     2014.697        2.125        0.795      163.034       50.832        0.097      347.726       26.903      857.651
09/08/2014  13:43:00      -75.589     -117.109       -1.424       40.507       56.589       26.798     1640.839     3202.319      718.132        1.249        0.278      139.385       24.033        0.030      347.684       26.830      857.647
09/08/2014  13:44:00      -81.086     -118.568       -5.028       56.963       41.207       22.394     3244.818     1698.003      501.492        1.305        0.272      143.642       13.393        0.009      347.589       26.667      857.638
09/08/2014  13:45:00      -36.724      -65.261       15.074       51.492       36.760       31.601     2651.419     1351.281      998.632        0.542        0.250       74.885       31.466        0.177      347.891       27.190      857.603
09/08/2014  13:46:00      -41.821     -153.608       -0.738       48.211       28.429       23.432     2324.340      808.188      549.075        1.451        0.184      159.199       23.129        0.021      347.489       26.495      857.593
09/08/2014  13:47:00       25.283        0.462       46.156       38.701       55.836       25.788     1497.759     3117.709      665.005        0.402        0.264       25.287       30.107        1.418      348.024       27.419      857.583
09/08/2014  13:48:00        2.026       -6.181       21.638       42.421       53.905       32.596     1799.543     2905.714     1062.476        0.314        0.288        6.505       10.379        2.546      348.175       27.680      857.545
09/08/2014  13:49:00      -66.871      -68.696       -2.169       74.330       41.910       23.002     5524.875     1756.450      529.073        0.850        0.391       95.869       14.614        0.023      347.886       27.179      857.522
09/08/2014  13:50:00     -151.912      -55.200       -6.212       47.007       51.054       28.071     2209.696     2606.505      788.005        1.588        0.280      161.630       26.655        0.027      348.024       27.419      857.496
09/08/2014  13:51:00     -206.212      -31.502      -22.620       41.302       26.226       28.649     1705.844      687.809      820.785        2.362        0.161      208.605       23.526        0.013      347.832       27.084      857.519
09/08/2014  13:52:00     -109.640      -25.641      -23.916       52.842       70.387       25.687     2792.262     4954.395      659.815        1.083        0.420      112.598       29.486        0.069      347.791       27.017      857.538
09/08/2014  13:53:00     -170.051      -76.487       -3.496      117.121      108.730       49.381    13717.312    11822.109     2438.502        3.137        1.399      186.460       48.018        0.066      348.286       27.870      857.544
09/08/2014  13:54:00     -424.567     -220.664      -24.474      163.395      142.803       85.634    26698.026    20392.795     7333.122       14.198        2.721      478.487       75.906        0.025      347.943       27.276      857.530
09/08/2014  13:55:00     -324.907     -170.980      -13.847      206.343      156.329       85.742    42577.610    24438.809     7351.747       10.467        3.718      367.149       95.073        0.067      348.054       27.465      857.471
09/08/2014  13:56:00     -200.484     -103.573        8.090      218.360      117.069       77.746    47681.147    13705.083     6044.518        5.920        3.372      225.657       81.063        0.129      348.388       28.046      857.468
09/08/2014  13:57:00     -128.717     -176.374       21.271      176.803      157.191       80.042    31259.176    24709.107     6406.668        5.524        3.119      218.348       99.115        0.206      348.211       27.739      857.532
09/08/2014  13:58:00       27.244     -251.098      -18.632      147.886      108.575       56.529    21870.132    11788.527     3195.548        5.049        1.843      252.571       45.169        0.032      348.085       27.520      857.516
09/08/2014  13:59:00       -0.474     -290.523       -3.269      143.199      173.700       83.844    20506.034    30171.826     7029.791        7.105        2.885      290.524       81.452        0.079      347.979       27.337      857.484
09/08/2014  14:00:00      -85.713      -91.027       10.897      103.892       71.032       50.627    10793.518     5045.601     2563.048        1.707        0.920      125.031       53.186        0.181      348.532       28.294      857.497
09/08/2014  14:01:00     -170.247      -79.514       10.843      126.691      104.711       56.955    16050.542    10964.341     3243.867        3.284        1.513      187.900       59.223        0.099      348.467       28.182      857.494
09/08/2014  14:02:00     -146.138      -45.084       15.181      103.752       96.945       48.584    10764.443     9398.321     2360.403        2.307        1.126      152.934       49.983        0.107      348.431       28.120      857.486
09/08/2014  14:03:00     -157.098     -142.438       -1.127      102.927      105.370       52.396    10593.869    11102.745     2745.385        3.470        1.222      212.057       42.945        0.041      348.429       28.117      857.479
09/08/2014  14:04:00     -171.183     -289.369      -15.712      120.612      145.705       50.047    14547.358    21229.934     2504.724        7.578        1.914      336.211       60.847        0.033      347.939       27.269      857.465
09/08/2014  14:05:00     -187.091     -204.504       22.697      159.830      121.249       80.440    25545.741    14701.275     6470.597        6.202        2.336      277.173       80.734        0.085      348.209       27.734      857.460
09/08/2014  14:06:00     -298.724     -183.785       -8.193      123.088      131.729       68.205    15150.711    17352.647     4651.917        8.011        1.858      350.732       53.158        0.023      347.763       26.965      857.460
09/08/2014  14:07:00     -266.145     -211.685      -16.756      166.073      129.685       81.974    27580.126    16818.197     6719.811        8.351        2.556      340.064       86.432        0.065      348.057       27.471      857.410
09/08/2014  14:08:00     -326.383     -148.862      -17.920      159.577      130.422       73.086    25464.836    17009.848     5341.620        8.840        2.391      358.728       66.721        0.035      348.290       27.875      857.412
09/08/2014  14:09:00     -402.819      -60.587      -10.269      189.237      107.226       74.029    35810.527    11497.329     5480.363       10.941        2.639      407.350       84.134        0.043      348.001       27.377      857.448
09/08/2014  14:10:00     -235.648     -123.236       -7.224      119.645       99.595       53.700    14314.832     9919.095     2883.658        4.894        1.356      265.927       54.975        0.043      348.404       28.071      857.443
09/08/2014  14:11:00     -199.776     -231.245        2.069      153.167      180.591       83.698    23460.249    32613.010     7005.369        7.822        3.154      305.589      101.671        0.111      348.286       27.870      857.460
09/08/2014  14:12:00     -296.884     -161.236      -23.254      134.564       83.280       54.868    18107.564     6935.506     3010.497        7.136        1.403      337.842       58.121        0.030      348.011       27.394      857.455
09/08/2014  14:13:00     -158.970     -111.458      -12.620      101.974       71.632       57.042    10398.741     5131.127     3253.767        2.832        0.939      194.150       59.236        0.093      348.198       27.719      857.436
09/08/2014  14:14:00     -181.219      -49.071      -10.212      108.568      169.225       60.841    11786.904    28637.086     3701.612        3.973        2.206      187.745       49.884        0.071      348.244       27.796      857.427
09/08/2014  14:15:00     -174.371     -241.935       11.260      149.394      108.212       71.370    22318.456    11709.731     5093.626        6.409        1.956      298.224       77.517        0.068      347.863       27.136      857.411
09/08/2014  14:16:00     -218.445     -116.819      -12.719       96.899       74.527       54.662     9389.342     5554.263     2987.901        3.973        0.897      247.719       41.069        0.027      347.761       26.962      857.376
09/08/2014  14:17:00     -159.470      -20.538       -9.133       78.011       91.718       38.316     6085.648     8412.257     1468.143        2.095        0.798      160.787       28.848        0.032      348.124       27.589      857.391
09/08/2014  14:18:00     -278.297     -160.375       -2.157      195.390      110.674       77.748    38177.209    12248.667     6044.788        7.981        2.824      321.200       85.828        0.071      347.969       27.321      857.371
09/08/2014  14:19:00     -163.729     -159.352       22.067      180.651      139.312       64.353    32634.896    19407.936     4141.259        5.443        2.809      228.473       68.746        0.091      348.146       27.627      857.332
09/08/2014  14:20:00     -401.176     -201.405        1.219      199.971      118.182       73.585    39988.225    13966.885     5414.730       13.043        2.968      448.895       89.267        0.040      347.929       27.251      857.338
09/08/2014  14:21:00     -342.839     -165.617      -23.941      147.857      121.993       76.187    21861.826    14882.310     5804.447        9.404        2.127      380.746       75.893        0.040      348.046       27.453      857.334
09/08/2014  14:22:00     -229.504     -166.665        1.815      147.801      147.036       67.150    21845.021    21619.514     4509.162        6.421        2.399      283.636       67.672        0.057      348.141       27.617      857.351
09/08/2014  14:23:00     -255.825      -89.624       -6.006      141.726      160.778       67.691    20086.234    25849.422     4582.048        6.201        2.526      271.070       76.103        0.079      348.178       27.680      857.333
09/08/2014  14:24:00     -454.288     -258.162      -16.296      220.839      154.548       92.013    48769.660    23885.178     8466.305       17.719        4.056      522.519      105.218        0.041      347.882       27.170      857.348
09/08/2014  14:25:00     -532.417     -277.942      -21.891      207.324      174.735      105.721    42983.047    30532.211    11177.032       22.293        4.235      600.599      112.347        0.035      347.759       26.958      857.321
09/08/2014  14:26:00     -282.611     -174.719       -0.649      217.217      162.255       86.163    47183.440    26326.772     7424.123        9.565        4.047      332.259      112.020        0.114      348.035       27.435      857.324
09/08/2014  14:27:00     -300.108     -240.333        7.768      196.841      167.180       99.803    38746.476    27949.140     9960.651       11.226        3.833      384.479      113.269        0.087      347.929       27.251      857.288
09/08/2014  14:28:00     -538.969     -275.409      -16.787      124.262      106.820       86.114    15441.134    11410.565     7415.564       20.044        1.713      605.258       71.318        0.014      347.853       27.120      857.260
09/08/2014  14:29:00     -337.313     -139.343      -30.975      134.462      123.940       63.782    18080.124    15361.008     4068.164        8.583        1.875      364.961       52.409        0.021      348.092       27.532      857.261
09/08/2014  14:30:00     -464.830       18.728      -33.919      144.546      137.181       72.090    20893.411    18818.631     5196.907       13.123        2.245      465.207       68.094        0.021      348.010       27.390      857.281
09/08/2014  14:31:00     -199.998      -90.360        0.058      118.007       81.989       53.670    13925.594     6722.166     2880.424        3.584        1.176      219.464       61.757        0.079      348.230       27.772      857.270
09/08/2014  14:32:00     -383.542     -127.470      -32.893      170.376      117.025       70.002    29028.111    13694.762     4900.341       10.602        2.381      404.170       60.371        0.022      347.949       27.285      857.239
09/08/2014  14:33:00     -303.643     -168.475      -13.677      140.138      156.291       77.609    19638.690    24426.938     6023.204        8.542        2.504      347.250       66.139        0.036      348.023       27.413      857.204
09/08/2014  14:34:00     -399.600     -159.546       -9.629      165.788      103.305       72.214    27485.668    10672.011     5214.806       11.429        2.169      430.273       71.221        0.027      348.103       27.549      857.166
09/08/2014  14:35:00     -326.783     -222.612      -15.235      200.116      207.556       88.921    40046.325    43079.698     7906.915       12.379        4.552      395.403      100.249        0.064      348.090       27.529      857.176
09/08/2014  14:36:00     -382.997     -115.680      -23.347      172.332      126.591       83.092    29698.488    16025.222     6904.269       10.661        2.631      400.086       95.398        0.057      348.042       27.447      857.172
09/08/2014  14:37:00     -129.701     -105.479       11.608      168.912      137.480       81.938    28531.329    18900.659     6713.886        4.111        2.707      167.177       99.201        0.352      348.091       27.532      857.141
09/08/2014  14:38:00     -415.815     -260.121       -2.902      269.042      196.850       91.569    72383.563    38749.862     8384.973       18.003        5.976      490.474      115.613        0.056      347.977       27.333      857.142
09/08/2014  14:39:00     -503.662     -300.931      -23.137      244.816      186.026      100.874    59935.100    34605.765    10175.621       22.473        5.236      586.715      113.259        0.037      347.637       26.747      857.151
09/08/2014  14:40:00     -390.035     -275.716      -13.496      200.932      185.446       89.374    40373.536    34390.134     7987.633       15.553        4.138      477.647      106.031        0.049      347.641       26.754      857.161
09/08/2014  14:41:00     -326.827     -221.435       -5.389      209.056      138.766       94.797    43704.462    19255.934     8986.468       11.390        3.597      394.778       99.873        0.064      347.675       26.813      857.168
09/08/2014  14:42:00     -317.982     -193.908        9.066      200.951      168.772       72.841    40381.314    28484.106     5305.821       10.647        3.709      372.442       82.176        0.049      347.712       26.877      857.176
09/08/2014  14:43:00     -370.572     -153.369      -28.506      156.008      158.646       76.241    24338.583    25168.452     5812.731       10.848        2.766      401.056       82.728        0.043      347.598       26.680      857.172
09/08/2014  14:44:00     -354.750     -206.138      -14.970      161.624      122.832       79.371    26122.273    15087.752     6299.781       10.803        2.375      410.293       84.096        0.042      347.664       26.793      857.156
09/08/2014  14:45:00     -380.445     -292.942       -0.214      251.654      173.850       88.493    63329.807    30223.877     7830.973       16.595        5.069      480.160      116.105        0.058      347.590       26.668      857.161
09/08/2014  14:46:00     -314.514     -217.384        4.545      169.428      151.423       92.377    28705.841    22929.007     8533.476       10.317        3.008      382.328       90.691        0.056      347.582       26.651      857.143
09/08/2014  14:47:00     -357.465     -186.161      -10.716      159.014      143.297       70.046    25285.532    20534.107     4906.471       10.663        2.536      403.035       78.332        0.038      347.561       26.617      857.126
09/08/2014  14:48:00     -375.459     -186.034       -1.612      213.586      185.924       84.685    45618.853    34567.595     7171.506       13.145        4.368      419.021       96.628        0.053      347.644       26.759      857.111
09/08/2014  14:49:00     -432.249     -226.228       -4.210      238.644      137.347       91.990    56950.927    18864.288     8462.080       16.114        4.214      487.871      105.884        0.047      347.659       26.784      857.102
09/08/2014  14:50:00     -500.531     -153.406      -18.328      205.287      160.574       98.067    42142.868    25783.889     9617.210       17.596        3.877      523.511      111.107        0.045      347.706       26.864      857.120
09/08/2014  14:51:00     -266.251      -99.252      -19.769      186.229      181.730       72.511    34681.253    33025.723     5257.782        7.704        3.648      284.149       91.464        0.104      347.907       27.213      857.107
09/08/2014  14:52:00     -283.048     -120.205      -14.135      164.150      119.788       68.692    26945.373    14349.241     4718.642        7.038        2.301      307.514       76.127        0.061      347.985       27.347      857.085
09/08/2014  14:53:00     -330.199     -219.501      -26.653      176.185      118.045       78.117    31040.998    13934.653     6102.277       10.449        2.554      396.500       82.948        0.044      347.905       27.209      857.071
09/08/2014  14:54:00     -202.653     -168.240       -7.119      110.973      116.009       57.323    12314.986    13458.095     3285.938        4.924        1.453      263.388       58.186        0.049      348.001       27.375      857.070
09/08/2014  14:55:00     -107.330      -66.014        7.352      106.066       74.875       43.034    11250.029     5606.311     1851.936        1.732        0.935      126.007       53.391        0.180      348.420       28.101      857.035
09/08/2014  14:56:00     -331.977     -138.588        0.842      177.903      100.143       61.384    31649.501    10028.539     3767.990        8.742        2.272      359.744       60.768        0.029      348.300       27.893      857.011
09/08/2014  14:57:00     -304.156      -80.253        7.390      155.548      114.103       73.332    24195.274    13019.561     5377.588        7.079        2.130      314.565       71.741        0.052      348.304       27.900      857.017
09/08/2014  14:58:00     -397.137     -179.941      -20.188      159.964      142.425       81.683    25588.382    20284.817     6672.144       12.152        2.627      436.000       77.713        0.032      348.056       27.470      857.013
09/08/2014  14:59:00     -373.689     -275.602      -16.667      189.643      151.346       83.750    35964.515    22905.469     7014.125       14.087        3.294      464.327       84.062        0.033      347.843       27.102      857.002
09/08/2014  15:00:00     -344.612     -239.009      -13.576      180.505      125.055       78.686    32582.203    15638.779     6191.444       11.523        2.721      419.384       81.978        0.038      347.765       26.968      857.005
09/08/2014  15:01:00     -304.142     -216.303        0.059      171.910      154.111       77.298    29553.210    23750.225     5975.014        9.927        2.964      373.215       86.803        0.054      347.757       26.955      856.984
09/08/2014  15:02:00     -243.553     -143.173       -2.228      164.365      175.162       79.804    27015.860    30681.644     6368.637        7.193        3.203      282.519       93.526        0.110      347.734       26.914      857.011
09/08/2014  15:03:00     -230.778     -143.996       -6.762      161.812      121.214       70.274    26183.268    14692.860     4938.400        5.992        2.291      272.018       84.456        0.096      347.734       26.914      857.015
09/08/2014  15:04:00     -264.268     -166.417      -14.937      138.632       90.045       61.302    19218.854     8108.024     3757.943        6.441        1.554      312.302       64.386        0.043      347.708       26.869      857.029
09/08/2014  15:05:00     -224.718      -61.033        0.966      115.819      125.407       53.678    13413.946    15726.905     2881.309        4.312        1.601      232.859       51.872        0.050      347.741       26.926      857.030
09/08/2014  15:06:00     -292.674      -99.741       -7.765      227.968      124.956       51.253    51969.361    15613.956     2626.873        8.293        3.511      309.203       50.446        0.027      347.814       27.054      857.023
09/08/2014  15:07:00     -364.221     -142.554      -18.555      167.301      115.322       70.841    27989.684    13299.259     5018.483        9.981        2.315      391.125       78.584        0.040      347.700       26.854      857.016
09/08/2014  15:08:00     -361.495     -110.234       -1.168      188.892      134.908       72.654    35680.064    18200.244     5278.621       10.099        2.958      377.929       78.415        0.043      347.813       27.051      857.014
09/08/2014  15:09:00     -227.333      -36.957      -12.068       87.086      108.417       52.446     7584.044    11754.193     2750.537        3.764        1.104      230.317       31.843        0.019      347.911       27.220      857.033
09/08/2014  15:10:00     -174.593      -95.866       -2.466      109.153       66.962       42.984    11914.416     4483.878     1847.626        2.896        0.912      199.181       49.420        0.062      347.964       27.312      857.039
09/08/2014  15:11:00     -164.455      -36.234        5.540      117.258       86.174       42.778    13749.493     7425.874     1829.970        2.569        1.150      168.400       59.150        0.123      347.998       27.371      857.021
09/08/2014  15:12:00     -140.767     -215.001       -4.259      166.650      104.682       59.908    27772.106    10958.341     3588.967        5.418        2.116      256.984       54.363        0.045      348.054       27.467      857.013
09/08/2014  15:13:00      -59.266     -199.999       14.564       93.913      149.641       64.698     8819.709    22392.359     4185.783        3.956        1.770      208.596       71.226        0.117      348.025       27.417      857.014
09/08/2014  15:14:00     -199.919     -310.017      -10.868      127.919      168.291       70.211    16363.352    28321.809     4929.629        9.290        2.481      368.888       62.499        0.029      347.802       27.031      856.996
09/08/2014  15:15:00     -177.234     -242.986       -7.854      133.586      117.235       65.790    17845.327    13744.035     4328.331        6.321        1.796      300.756       65.391        0.047      347.986       27.351      856.969
09/08/2014  15:16:00      -58.098     -307.176       20.150       91.991      129.838       53.813     8462.360    16857.865     2895.844        6.317        1.411      312.622       54.129        0.030      347.949       27.285      856.979
09/08/2014  15:17:00      -87.132     -160.359       -4.578       81.804      143.786       59.712     6691.890    20674.551     3565.569        3.212        1.547      182.503       63.613        0.121      347.922       27.240      856.986
09/08/2014  15:18:00     -206.269     -262.966       -8.287      101.070      179.373       65.294    10215.232    32174.818     4263.363        7.920        2.333      334.212       62.802        0.035      347.642       26.756      856.987
09/08/2014  15:19:00     -336.563     -252.578       -8.438      184.947      178.863       81.126    34205.307    31991.856     6581.457       12.495        3.639      420.798       89.023        0.045      347.639       26.751      856.964
09/08/2014  15:20:00     -300.901     -257.362        3.930      172.005      199.767       83.052    29585.741    39906.669     6897.693       11.658        3.820      395.950       86.427        0.048      347.660       26.786      856.978
09/08/2014  15:21:00     -505.695     -348.986       -9.698      189.165      140.574       91.360    35783.219    19760.978     8346.567       22.074        3.195      614.426       93.836        0.023      347.528       26.559      856.978
09/08/2014  15:22:00     -277.954     -132.963       -5.401      163.989      121.649       60.178    26892.465    14798.402     3621.437        7.013        2.266      308.120       65.324        0.045      347.557       26.610      856.987
09/08/2014  15:23:00     -150.417     -141.111        6.723      130.491       74.780       58.537    17027.897     5591.987     3426.600        3.431        1.302      206.246       61.890        0.090      347.737       26.920      856.982
09/08/2014  15:24:00     -184.689      -53.076      -12.277      135.351       90.404       50.129    18319.988     8172.834     2512.878        3.304        1.450      192.164       64.686        0.113      347.738       26.922      856.982
09/08/2014  15:25:00     -235.267     -125.138      -24.620       95.858       81.880       53.979     9188.818     6704.404     2913.703        4.521        0.940      266.477       46.605        0.031      347.663       26.793      856.983
09/08/2014  15:26:00     -193.197     -196.057       -0.534      146.336      108.428       56.722    21414.165    11756.644     3217.352        5.607        1.819      275.252       65.903        0.057      347.611       26.702      856.974
09/08/2014  15:27:00     -227.196       -0.391       -8.411      130.955       89.700       50.634    17149.245     8046.036     2563.810        3.972        1.388      227.197       58.822        0.067      347.651       26.773      856.972
09/08/2014  15:28:00     -141.808       -0.348        0.158       95.381       58.151       42.198     9097.470     3381.551     1780.684        1.718        0.713      141.808       40.368        0.081      347.801       27.032      856.953
09/08/2014  15:29:00      -95.816      -59.804        9.540      103.845       76.034       40.766    10783.714     5781.151     1661.832        1.553        0.911      112.948       45.382        0.161      348.094       27.538      856.953
09/08/2014  15:30:00     -187.951     -135.926       -3.716      121.276       91.867       51.775    14707.963     8439.505     2680.674        3.982        1.291      231.951       53.991        0.054      347.700       26.857      856.945
09/08/2014  15:31:00     -167.336      -69.947       -6.826       91.965       74.270       35.608     8457.516     5516.013     1267.959        2.409        0.762      181.367       35.608        0.039      347.760       26.961      856.930
09/08/2014  15:32:00     -161.210       79.039       -6.846       87.453       71.665       47.957     7648.063     5135.891     2299.920        2.368        0.754      179.543       47.000        0.069      347.822       27.067      856.880
09/08/2014  15:33:00     -153.818      143.827      -39.056       46.916       46.553       31.613     2201.108     2167.142      999.373        2.562        0.268      210.585       24.665        0.014      347.672       26.807      856.838
09/08/2014  15:34:00     -188.616      -60.261      -19.016       89.334      119.497       47.755     7980.590    14279.528     2280.531        3.205        1.227      198.009       40.422        0.042      347.949       27.285      856.849
09/08/2014  15:35:00     -229.394     -168.689      -19.394      207.486      104.338       82.588    43050.375    10886.436     6820.818        7.110        3.038      284.741       99.725        0.123      347.914       27.226      856.834
09/08/2014  15:36:00     -330.593      -49.724      -12.107      180.231      134.312       80.140    32483.207    18039.596     6422.432        8.442        2.847      334.311       97.083        0.084      347.920       27.234      856.821
09/08/2014  15:37:00     -373.271     -214.297      -25.498      140.045      149.915       68.290    19612.688    22474.388     4663.488       11.632        2.338      430.412       56.918        0.017      347.818       27.060      856.806
09/08/2014  15:38:00     -265.556     -185.343        7.191      135.240      117.390       63.260    18289.800    13780.369     4001.871        7.049        1.804      323.839       40.289        0.015      347.797       27.024      856.840
09/08/2014  15:39:00     -286.106     -185.045       -3.454      171.767      108.500       72.058    29503.795    11772.166     5192.396        8.128        2.323      340.732       70.154        0.042      347.705       26.864      856.842
09/08/2014  15:40:00     -221.164     -243.217       -6.649      112.373      145.335       59.928    12627.622    21122.383     3591.347        7.272        1.867      328.737       57.712        0.031      347.660       26.786      856.853
09/08/2014  15:41:00     -134.193      -77.992        1.924      123.404       93.019       47.451    15228.448     8652.565     2251.597        2.511        1.307      155.211       58.381        0.141      347.699       26.856      856.843
09/08/2014  15:42:00     -215.740     -212.246       -6.211      160.516      132.497       64.505    25765.493    17555.546     4160.896        6.955        2.374      302.642       67.645        0.050      347.651       26.770      856.824
09/08/2014  15:43:00     -233.699     -127.062       -6.829      163.326      123.862       66.111    26675.318    15341.907     4370.667        5.859        2.319      266.007       73.115        0.076      347.575       26.640      856.825
09/08/2014  15:44:00     -136.803     -221.048        2.484      126.060       94.557       57.323    15891.232     8941.066     3285.953        4.785        1.406      259.956       60.159        0.054      347.529       26.561      856.841
09/08/2014  15:45:00     -218.720     -252.720      -10.027      108.463      152.804       60.040    11764.235    23348.973     3604.816        7.526        1.936      334.224       59.814        0.032      347.453       26.428      856.823
09/08/2014  15:46:00     -227.946     -170.992       -1.662      136.268      101.204       64.955    18569.021    10242.171     4219.204        5.711        1.652      284.951       66.969        0.055      347.521       26.545      856.816
09/08/2014  15:47:00     -179.664     -102.870       13.725      142.971      127.395       80.751    20440.804    16229.373     6520.711        4.311        2.160      207.030       86.541        0.175      347.552       26.600      856.837
09/08/2014  15:48:00     -226.421     -180.394        5.722      130.486      105.969       66.178    17026.497    11229.517     4379.496        5.823        1.632      289.497       63.230        0.048      347.587       26.662      856.856
09/08/2014  15:49:00      -67.469      -48.462       15.177       71.119       73.974       34.110     5057.869     5472.154     1163.516        0.941        0.585       83.070       34.614        0.174      347.733       26.915      856.854
09/08/2014  15:50:00     -116.984     -212.736       -0.909       52.998       96.805       40.506     2808.747     9371.158     1640.715        3.638        0.691      242.780       37.963        0.024      347.759       26.957      856.834
09/08/2014  15:51:00      -43.536     -116.640       18.998       73.400       67.329       34.746     5387.548     4533.245     1207.275        1.349        0.556      124.500       33.248        0.071      347.917       27.233      856.821
09/08/2014  15:52:00      -82.717      -40.018        1.312       51.558       53.853       31.346     2658.216     2900.131      982.582        0.749        0.327       91.889       14.997        0.027      347.981       27.343      856.814
09/08/2014  15:53:00      -83.316      -74.379        2.140      128.449       58.215       52.405    16499.214     3388.939     2746.303        1.755        1.132      111.687       61.458        0.303      347.873       27.157      856.808
09/08/2014  15:54:00      -57.014      -79.026        6.419       60.799       83.994       44.487     3696.517     7054.934     1979.072        1.113        0.637       97.446       42.119        0.187      347.911       27.222      856.805
09/08/2014  15:55:00      -19.291     -115.918       -0.218       82.736       85.549       52.828     6845.182     7318.591     2790.839        1.538        0.848      117.512       49.634        0.178      347.648       26.769      856.790
09/08/2014  15:56:00     -201.809     -209.909        9.247      141.522      142.549       64.859    20028.523    20320.310     4206.714        6.471        2.228      291.185       77.921        0.072      347.730       26.909      856.819
09/08/2014  15:57:00     -294.508     -195.188       -3.761      185.508      134.908       86.437    34413.266    18200.159     7471.275        9.246        3.004      353.318      103.485        0.086      347.584       26.657      856.825
09/08/2014  15:58:00     -394.750     -117.155       -4.691      130.118      118.411       69.941    16930.735    14021.245     4891.798       10.270        1.792      411.768       72.265        0.031      347.567       26.627      856.827
09/08/2014  15:59:00     -320.373      -89.731      -10.791      145.413      144.587       66.453    21144.813    20905.270     4416.014        7.863        2.323      332.702       65.635        0.039      347.533       26.567      856.837
09/08/2014  16:00:00     -152.597      -80.864        9.024       86.873       72.788       43.227     7546.990     5298.120     1868.591        2.231        0.736      172.699       39.089        0.051      347.608       26.698      856.806
09/08/2014  16:01:00     -354.869      -60.650      -11.090      247.740      166.381       81.822    61375.341    27682.724     6694.906       11.273        4.788      360.015      108.704        0.091      347.581       26.652      856.782
09/08/2014  16:02:00     -362.415     -125.530      -18.413      153.712      161.837       68.067    23627.314    26191.098     4633.162       10.094        2.723      383.540       61.510        0.026      347.510       26.529      856.765
09/08/2014  16:03:00     -330.897      -78.214      -16.865      235.798      107.519       73.950    55600.573    11560.253     5468.586        9.425        3.631      340.015       83.845        0.061      347.530       26.565      856.769
09/08/2014  16:04:00     -337.780     -110.734       -4.008      185.350      145.050       91.980    34354.588    21039.557     8460.237        9.510        3.193      355.468      104.247        0.086      347.497       26.506      856.747
09/08/2014  16:05:00     -417.779      -31.533      -16.986      222.290      158.011       81.086    49412.867    24967.429     6574.995       12.838        4.048      418.967      105.619        0.064      347.477       26.470      856.726
09/08/2014  16:06:00     -537.859     -117.938      -27.781      214.237      216.074      103.656    45897.490    46687.991    10744.501       20.363        5.166      550.638      117.501        0.046      347.444       26.414      856.714
09/08/2014  16:07:00     -385.603     -298.783      -19.493      198.131      164.090       98.914    39255.957    26925.483     9784.076       15.714        3.798      487.813      101.534        0.043      347.454       26.431      856.707
09/08/2014  16:08:00     -254.321      -57.008       12.556      187.228      131.071       78.774    35054.304    17179.604     6205.394        6.325        2.922      260.632       94.332        0.131      347.496       26.505      856.723
09/08/2014  16:09:00     -514.406      -48.324      -20.747      233.197      140.411       90.257    54380.673    19715.248     8146.356       17.480        4.112      516.671      101.030        0.038      347.486       26.487      856.725
09/08/2014  16:10:00     -291.827      -81.653      -16.353      192.402      116.532       77.715    37018.709    13579.752     6039.553        7.436        2.832      303.035       94.053        0.096      347.483       26.482      856.752
09/08/2014  16:11:00     -170.420      -45.075       25.344      189.041      119.382       66.392    35736.672    14252.112     4407.856        4.305        2.720      176.281       71.955        0.167      347.547       26.592      856.740
09/08/2014  16:12:00     -281.427      -40.642        1.351      202.238      143.288       77.175    40900.075    20531.363     5955.925        7.411        3.369      284.346       89.534        0.099      347.587       26.661      856.717
09/08/2014  16:13:00     -203.897      -44.699        0.501      163.067      101.453       64.400    26590.984    10292.689     4147.374        4.229        2.052      208.739       73.948        0.125      347.684       26.831      856.733
09/08/2014  16:14:00     -202.282     -177.896      -11.664      149.309      119.756       70.283    22293.270    14341.610     4939.767        5.713        2.079      269.379       84.487        0.098      347.562       26.618      856.737
09/08/2014  16:15:00     -463.864     -174.144      -24.391      192.206      169.309       92.559    36943.000    28665.375     8567.117       16.012        3.709      495.476       96.189        0.038      347.509       26.526      856.718
09/08/2014  16:16:00     -392.335     -185.729       -7.939      188.944      131.329       79.938    35699.844    17247.343     6390.015       12.390        2.967      434.076       89.518        0.043      347.530       26.563      856.714
09/08/2014  16:17:00     -200.757     -112.705       -9.661      143.903      105.524       64.977    20708.137    11135.215     4222.022        4.458        1.803      230.230       68.129        0.088      347.532       26.566      856.685
09/08/2014  16:18:00     -389.169     -121.892       -9.289      167.964      160.454       79.883    28211.997    25745.384     6381.248       11.336        3.017      407.812       82.137        0.041      347.507       26.523      856.683
09/08/2014  16:19:00     -256.576     -177.097       -8.378      167.181      164.501       82.413    27949.339    27060.554     6791.863        7.952        3.090      311.760       90.572        0.084      347.570       26.633      856.672
09/08/2014  16:20:00     -513.797     -398.730      -15.744      210.502      171.473      111.049    44310.891    29402.911    12331.956       25.462        4.302      650.364      109.653        0.028      347.456       26.434      856.682
09/08/2014  16:21:00     -433.461     -224.145      -28.683      150.348      139.168       73.336    22604.520    19367.866     5378.160       14.314        2.368      487.985       72.541        0.022      347.485       26.483      856.685
09/08/2014  16:22:00     -254.228      -98.256       12.766      252.795      151.450       77.446    63905.393    22936.991     5997.946        8.363        4.642      272.555      106.121        0.152      347.607       26.697      856.668
09/08/2014  16:23:00     -491.754     -163.488      -17.197      221.639      142.794       94.551    49123.722    20390.247     8939.943       17.364        3.923      518.218      102.859        0.039      347.508       26.524      856.679
09/08/2014  16:24:00     -229.652      -79.735        0.701      198.146      130.001       75.118    39261.690    16900.133     5642.766        6.044        3.090      243.100       90.953        0.140      347.571       26.634      856.677
09/08/2014  16:25:00     -342.198     -183.780       -6.145      231.199      199.923       89.963    53452.944    39969.279     8093.424       12.620        5.076      388.426      101.743        0.069      347.481       26.475      856.659
09/08/2014  16:26:00     -490.186     -253.574       -5.303      233.769      166.156      111.314    54648.115    27607.701    12390.829       19.961        4.732      551.890      123.646        0.050      347.436       26.399      856.639
09/08/2014  16:27:00     -497.965     -179.262       -4.526      267.355      161.174      121.831    71478.725    25977.121    14842.735       19.619        5.615      529.248      142.242        0.072      347.449       26.422      856.646
09/08/2014  16:28:00     -316.480      -84.224       -5.064      149.933      121.365       75.497    22479.945    14729.406     5699.827        7.509        2.145      327.495       67.350        0.042      347.564       26.621      856.646
09/08/2014  16:29:00     -283.883      -83.808       26.576      189.704      145.561       88.888    35987.623    21187.887     7901.144        7.669        3.254      295.995       82.154        0.077      347.662       26.791      856.631
09/08/2014  16:30:00     -276.528     -146.503       13.066      187.496      191.367       81.258    35154.617    36621.444     6602.931        8.823        3.919      312.939       90.658        0.084      347.637       26.747      856.663
09/08/2014  16:31:00     -421.409     -229.753      -16.869      172.162      167.269       82.832    29639.701    27978.975     6861.125       14.756        3.224      479.970       95.392        0.039      347.577       26.644      856.650
09/08/2014  16:32:00     -322.730     -198.100       12.702      193.109      164.649       77.133    37291.277    27109.178     5949.512       10.694        3.517      378.680       90.863        0.058      347.689       26.837      856.649
09/08/2014  16:33:00     -471.577     -295.445       -7.941      217.452      166.969       91.085    47285.586    27878.810     8296.431       19.658        4.173      556.482       84.395        0.023      347.620       26.719      856.645
09/08/2014  16:34:00     -306.137     -232.195        2.209      166.870      154.050       93.150    27845.727    23731.472     8676.848       10.394        3.013      384.232       98.617        0.066      347.592       26.670      856.666
09/08/2014  16:35:00     -235.760     -127.981        2.600      125.612      103.195       55.814    15778.444    10649.183     3115.206        5.075        1.477      268.257       59.434        0.049      347.546       26.591      856.665
09/08/2014  16:36:00     -227.600     -226.854        1.092      171.356      116.557       80.825    29362.775    13585.543     6532.750        7.636        2.474      321.348       88.917        0.077      347.581       26.651      856.659
09/08/2014  16:37:00     -280.726     -101.080      -11.315       99.259       79.504       45.236     9852.349     6320.859     2046.318        5.368        0.911      298.369       38.933        0.017      347.614       26.707      856.653
09/08/2014  16:38:00     -517.817     -160.603      -22.650      219.970      170.677       89.145    48387.013    29130.556     7946.838       18.994        4.273      542.151      112.395        0.043      347.624       26.725      856.673
09/08/2014  16:39:00     -302.906      -68.621        9.940      195.884      148.384       82.551    38370.727    22017.828     6814.729        8.187        3.360      310.582       86.410        0.077      347.638       26.748      856.681
09/08/2014  16:40:00     -192.117      -47.979        1.577      141.945       74.659       57.573    20148.508     5573.927     3314.609        3.412        1.452      198.017       62.991        0.101      347.634       26.743      856.702
09/08/2014  16:41:00     -236.400     -119.631      -13.800      135.654      144.926       58.936    18402.061    21003.413     3473.455        5.663        2.144      264.946       56.447        0.045      347.650       26.769      856.694
09/08/2014  16:42:00     -209.898     -194.628       28.984      160.730      205.900       89.349    25834.155    42394.774     7983.267        7.948        3.811      286.247       98.673        0.119      347.553       26.602      856.669
09/08/2014  16:43:00     -442.252     -231.480        0.422      194.296      161.182       87.478    37750.913    25979.750     7652.416       16.026        3.569      499.169       92.830        0.035      347.536       26.571      856.671
09/08/2014  16:44:00     -364.404     -283.446       -2.601      202.512      143.642       78.824    41010.950    20633.156     6213.165       14.049        3.393      461.662       92.445        0.040      347.532       26.565      856.692
09/08/2014  16:45:00     -321.926     -215.433       -2.557      211.007      130.279      101.048    44523.787    16972.747    10210.694       11.087        3.585      387.360      112.593        0.084      347.617       26.712      856.669
09/08/2014  16:46:00     -358.245     -209.738      -10.581      152.011      115.974       68.876    23107.328    13449.951     4743.959       10.686        2.065      415.126       58.797        0.020      347.661       26.789      856.691
09/08/2014  16:47:00     -255.820     -212.155       -0.034      137.878      125.873       76.908    19010.352    15843.900     5914.881        7.560        2.038      332.346       79.593        0.057      347.728       26.903      856.704
09/08/2014  16:48:00     -282.954      -77.936        2.138      160.295      129.125       77.203    25694.401    16673.267     5960.262        6.723        2.416      293.491       83.635        0.081      347.795       27.017      856.704
09/08/2014  16:49:00     -280.248     -106.317        9.473      141.257      143.668       72.170    19953.661    20640.487     5208.544        6.786        2.290      299.737       72.270        0.058      347.747       26.935      856.710
09/08/2014  16:50:00     -429.916     -378.079      -14.404      278.620      182.751      125.575    77629.215    33398.093    15769.093       22.737        6.340      572.513      142.968        0.062      347.488       26.489      856.696
09/08/2014  16:51:00     -333.061     -201.785        5.231      217.533      195.904      108.833    47320.560    38378.198    11844.637       12.459        4.877      389.418      115.718        0.088      347.497       26.505      856.718
09/08/2014  16:52:00     -363.729      -72.101       -1.086      214.170      150.073       76.866    45868.912    22521.833     5908.432       10.589        3.715      370.806       95.181        0.066      347.450       26.426      856.706
09/08/2014  16:53:00     -390.465     -293.061      -23.041      156.165      120.921       80.393    24387.405    14621.840     6463.051       14.217        2.274      488.209       84.438        0.030      347.424       26.380      856.699
09/08/2014  16:54:00     -381.055     -243.390      -14.603      227.886      129.048       87.721    51932.143    16653.301     7694.905       14.045        3.814      452.152       99.970        0.049      347.471       26.460      856.678
09/08/2014  16:55:00     -276.112     -143.175       -5.914      138.492       97.608       58.947    19179.931     9527.341     3474.787        6.447        1.609      311.025       64.318        0.043      347.628       26.731      856.682
09/08/2014  16:56:00     -250.387     -135.501        1.114      132.509      111.502       75.992    17558.506    12432.657     5774.744        5.840        1.788      284.700       73.519        0.067      347.689       26.835      856.694
09/08/2014  16:57:00     -345.059      -40.916      -27.801      171.958      134.414       71.664    29569.556    18067.072     5135.780        8.713        2.639      347.476       68.727        0.039      347.640       26.750      856.698
09/08/2014  16:58:00     -273.246      -86.092        3.010      282.701      157.187       97.668    79919.789    24707.727     9539.002        9.811        5.708      286.488      126.808        0.196      347.695       26.847      856.667
09/08/2014  16:59:00     -509.095     -114.194      -23.729      233.093      171.996       91.700    54332.375    29582.673     8408.932       18.254        4.616      521.745       95.776        0.034      347.693       26.844      856.632
09/08/2014  17:00:00     -408.625      -58.791      -19.442      178.421      147.242       81.747    31833.897    21680.237     6682.584       11.549        3.010      412.833       86.266        0.044      347.750       26.943      856.680
09/08/2014  17:01:00     -321.528      -72.133       -4.714      225.806      128.562      105.029    50988.527    16528.192    11031.085        9.356        3.927      329.520      107.737        0.107      347.663       26.791      856.704
09/08/2014  17:02:00     -376.340     -125.627      -26.540      275.323      150.762       90.900    75802.818    22729.314     8262.830       13.244        5.340      396.754      109.041        0.076      347.624       26.724      856.734
09/08/2014  17:03:00     -350.600     -246.514       -0.422      197.215      152.204       93.251    38893.687    23166.069     8695.824       12.721        3.538      428.590      106.814        0.062      347.391       26.323      856.717
09/08/2014  17:04:00     -481.827     -217.683       -7.762      248.739      198.961       98.391    61871.123    39585.549     9680.821       19.535        5.557      528.719      118.714        0.050      347.425       26.381      856.706
09/08/2014  17:05:00     -478.072     -293.629      -24.448      189.679      171.803       89.039    35977.980    29516.441     7927.871       19.438        3.671      561.044       81.198        0.021      347.297       26.161      856.715
09/08/2014  17:06:00     -399.233     -299.862      -10.373      181.190      138.501       88.488    32829.764    19182.546     7830.071       15.462        2.992      499.304       96.501        0.037      347.223       26.033      856.687
09/08/2014  17:07:00     -229.040     -188.478       -9.336      184.148      134.451       85.332    33910.320    18077.108     7281.531        7.366        2.963      296.619      100.595        0.115      347.443       26.413      856.680
09/08/2014  17:08:00     -378.011     -173.070       -3.080      253.288      170.021       94.326    64154.572    28906.979     8897.386       13.739        5.098      415.747      115.228        0.077      347.516       26.539      856.674
09/08/2014  17:09:00     -242.712      -99.852       -1.057      267.820      158.139       83.154    71727.559    25008.011     6914.649        8.625        5.183      262.449      109.289        0.173      347.613       26.707      856.692
09/08/2014  17:10:00     -531.938      -49.184      -22.406      227.041      137.956      110.619    51547.523    19031.943    12236.520       18.433        4.141      534.207      119.349        0.050      347.455       26.434      856.696
09/08/2014  17:11:00     -657.733       -4.422      -44.257      195.232      217.125       86.963    38115.693    47143.296     7562.516       26.369        4.641      657.748       77.096        0.014      347.460       26.441      856.696
09/08/2014  17:12:00     -590.361     -122.110       -9.788      245.723      202.671       99.997    60379.685    41075.372     9999.340       23.747        5.573      602.857      108.529        0.032      347.393       26.325      856.702
09/08/2014  17:13:00     -513.065      -36.971      -33.553      196.739      187.982       86.807    38706.294    35337.376     7535.455       17.364        4.079      514.395       83.294        0.026      347.425       26.381      856.717
09/08/2014  17:14:00     -380.419     -113.438      -25.546      223.649      110.606       66.721    50018.866    12233.718     4451.723       11.246        3.335      396.972       76.973        0.038      347.338       26.231      856.700
09/08/2014  17:15:00     -273.565      -90.842       -9.652      105.667       78.596       48.165    11165.548     6177.254     2319.894        5.142        0.983      288.253       44.027        0.023      347.391       26.323      856.670
09/08/2014  17:16:00     -142.623     -109.068      -19.539      118.123      135.677       63.440    13952.940    18408.113     4024.693        3.450        1.819      179.547       62.571        0.121      347.574       26.639      856.667
09/08/2014  17:17:00     -439.863     -290.176      -13.737      252.308      169.338       72.380    63659.127    28675.352     5238.828       18.771        4.879      526.955       79.946        0.023      347.416       26.365      856.731
09/08/2014  17:18:00     -393.930     -190.150      -18.236      206.562      127.954       70.120    42667.784    16372.112     4916.873       12.780        3.198      437.422       75.483        0.030      347.335       26.226      856.739
09/08/2014  17:19:00     -365.424     -100.863      -19.348      197.276      122.337       90.429    38917.912    14966.225     8177.364       10.306        3.103      379.089      101.142        0.071      347.454       26.431      856.730
09/08/2014  17:20:00     -490.660     -116.266       -9.977      300.478      133.244       99.494    90286.964    17753.974     9899.072       18.613        5.897      504.247      118.873        0.056      347.406       26.349      856.728
09/08/2014  17:21:00     -423.985     -236.527      -31.028      186.762      147.622       95.011    34880.110    21792.186     9027.024       15.117        3.285      485.498       91.096        0.035      347.411       26.357      856.727
09/08/2014  17:22:00     -303.120      -82.138        9.633      167.493      142.826       69.014    28053.916    20399.344     4762.934        7.596        2.661      314.052       67.307        0.046      347.460       26.442      856.739
09/08/2014  17:23:00     -384.609     -126.293        5.317      201.780      145.361       94.436    40714.974    21129.764     8918.066       11.732        3.538      404.814      104.836        0.067      347.499       26.509      856.744
09/08/2014  17:24:00     -343.477     -207.379      -27.008      174.148      114.142       68.079    30327.557    13028.345     4634.720       10.484        2.400      401.226       80.313        0.040      347.502       26.513      856.744
09/08/2014  17:25:00     -222.634      -58.157       -7.999      105.737      104.347       44.259    11180.405    10888.310     1958.828        3.852        1.201      230.104       43.274        0.035      347.655       26.778      856.750
09/08/2014  17:26:00     -177.214     -105.190       22.048      171.655      135.221       83.435    29465.273    18284.752     6961.402        4.882        2.736      206.082       93.772        0.207      347.609       26.700      856.756
09/08/2014  17:27:00     -373.135     -338.890       21.901      307.782      207.130      119.233    94729.615    42902.846    14216.583       20.318        7.592      504.060      137.506        0.074      347.353       26.256      856.737
09/08/2014  17:28:00     -380.782     -243.459        6.711      274.140      199.402      117.044    75152.517    39760.995    13699.267       16.644        6.431      451.959      133.943        0.088      347.360       26.270      856.728
09/08/2014  17:29:00     -495.127     -325.088       -7.257      236.006      173.367      104.248    55698.974    30056.067    10867.702       22.374        4.831      592.311      119.104        0.040      347.145       25.897      856.724
09/08/2014  17:30:00     -451.716     -218.444      -13.087      212.680      190.470       91.082    45232.695    36278.751     8295.949       17.086        4.490      501.762      100.412        0.040      347.253       26.087      856.737
09/08/2014  17:31:00     -325.447     -164.380       -1.399      235.664      141.273       87.623    55537.365    19958.013     7677.816       10.804        4.159      364.604      107.288        0.087      347.315       26.191      856.746
09/08/2014  17:32:00     -326.719     -242.861       -3.273      225.581      153.937       84.994    50886.900    23696.679     7223.896       12.376        4.090      407.095      104.059        0.065      347.301       26.168      856.747
09/08/2014  17:33:00     -342.291     -292.389      -15.248      238.673      203.014      113.149    56964.951    41214.648    12802.603       15.692        5.549      450.172      113.578        0.064      347.338       26.232      856.714
09/08/2014  17:34:00     -285.105     -148.783      -19.218      228.509      172.459       79.200    52216.156    29742.191     6272.627        9.600        4.412      321.592       87.176        0.073      347.444       26.414      856.741
09/08/2014  17:35:00     -425.409      -57.486       -9.712      224.922      174.458       99.973    50589.899    30435.719     9994.563       13.768        4.551      429.275      114.057        0.071      347.318       26.196      856.720
09/08/2014  17:36:00     -490.167     -184.823       -3.574      176.821      188.336       83.817    31265.667    35470.290     7025.284       17.409        3.688      523.854       92.564        0.031      347.312       26.186      856.710
09/08/2014  17:37:00     -212.682     -101.859        9.920      164.820      119.710       75.890    27165.786    14330.517     5759.235        5.147        2.363      235.815       83.336        0.125      347.417       26.368      856.736
09/08/2014  17:38:00     -345.506     -227.826      -17.314      262.564      201.150       92.783    68939.956    40461.492     8608.726       14.477        5.901      413.859      102.570        0.061      347.355       26.259      856.762
09/08/2014  17:39:00     -391.696     -162.765      -12.271      189.537      169.908       93.000    35924.210    28868.852     8648.991       12.674        3.672      424.168       99.882        0.055      347.264       26.102      856.768
09/08/2014  17:40:00     -358.101     -179.884      -11.814      210.690      186.534       96.210    44390.174    34794.879     9256.274       12.457        4.422      400.743       99.169        0.061      347.217       26.023      856.761
09/08/2014  17:41:00     -329.899     -204.527       -1.122      281.302      231.124      119.883    79130.723    53418.198    14372.016       14.877        7.346      388.156      155.494        0.160      347.192       25.980      856.744
09/08/2014  17:42:00     -250.986     -174.121       12.237      249.021      184.326       98.738    62011.688    33976.097     9749.144        9.958        5.287      305.470      126.596        0.172      347.204       26.002      856.757
09/08/2014  17:43:00     -519.846     -212.849      -18.569      249.149      223.240      100.000    62075.268    49836.184    10000.004       21.888        6.096      561.733      105.459        0.035      347.020       25.683      856.793
09/08/2014  17:44:00     -497.751     -329.316      -18.634      219.812      174.614      102.798    48317.468    30489.936    10567.441       22.295        4.469      596.829      112.919        0.036      346.959       25.578      856.766
09/08/2014  17:45:00     -369.508     -159.237      -13.644      249.496      142.462       82.529    62248.096    20295.506     6811.073       12.570        4.468      402.359       95.944        0.057      347.109       25.836      856.794
09/08/2014  17:46:00     -576.320       17.560      -43.435      230.542      155.201       94.797    53149.809    24087.307     8986.469       21.027        4.311      576.587      110.370        0.037      347.122       25.857      856.786
09/08/2014  17:47:00     -486.919      -64.813      -11.802      220.756      201.024      105.585    48733.118    40410.567    11148.199       17.084        5.015      491.214      109.654        0.050      347.106       25.832      856.790
09/08/2014  17:48:00     -543.754     -158.783      -20.429      225.046      158.037       97.304    50645.610    24975.782     9468.052       20.318        4.254      566.463       94.308        0.028      347.036       25.713      856.850
09/08/2014  17:49:00     -355.940     -238.524      -12.040      219.933      238.063      107.876    48370.337    56674.128    11637.125       15.019        5.834      428.471      126.131        0.087      347.036       25.711      856.853
09/08/2014  17:50:00     -326.390     -123.386      -11.454      158.186      125.515       75.221    25022.862    15753.983     5658.198        8.415        2.322      348.934       77.687        0.050      347.079       25.786      856.882
09/08/2014  17:51:00     -529.184     -117.263      -15.530      244.211      175.210      101.349    59639.211    30698.717    10271.667       19.730        5.030      542.020      112.804        0.043      347.029       25.700      856.901
09/08/2014  17:52:00     -561.259     -185.760      -17.934      184.871      210.825       93.856    34177.160    44447.006     8808.877       21.862        4.372      591.201       69.438        0.014      346.950       25.563      856.925
09/08/2014  17:53:00     -548.200     -236.100      -26.400      221.696      181.100       99.922    49149.112    32797.108     9984.386       22.443        4.597      596.881      103.989        0.030      346.917       25.506      856.964
09/08/2014  17:54:00     -251.124     -125.196      -16.750      150.646      122.860       66.285    22694.288    15094.557     4393.712        6.059        2.109      280.602       63.734        0.052      347.014       25.673      856.971
09/08/2014  17:55:00     -298.535      -32.221       -5.573      185.551      101.397       76.051    34429.086    10281.253     5783.804        7.033        2.525      300.269       90.407        0.091      347.082       25.789      856.977
09/08/2014  17:56:00     -522.861      -49.413      -46.820      182.300      142.682       91.378    33233.264    20358.094     8350.016       16.997        3.097      525.190      103.821        0.039      346.938       25.542      857.002
09/08/2014  17:57:00     -276.999     -127.022       11.647      230.809      178.234       91.451    53272.599    31767.209     8363.369        9.319        4.670      304.735      111.909        0.135      346.987       25.627      857.000
09/08/2014  17:58:00     -133.905      -56.667       23.839      167.424      123.724       80.081    28030.778    15307.647     6412.914        3.572        2.488      145.402       90.200        0.385      347.067       25.767      857.033
09/08/2014  17:59:00     -241.978     -106.376       12.898      219.015      153.236       85.412    47967.745    23481.371     7295.236        7.438        3.937      264.328       97.609        0.136      346.978       25.611      857.039
09/08/2014  18:00:00     -302.071      -74.889      -10.504      217.346      197.416       91.910    47239.374    38973.009     8447.484        9.580        4.733      311.216      107.253        0.119      347.003       25.654      857.035
09/08/2014  18:01:00     -465.297     -201.725       -6.212      244.681      217.740      111.221    59868.625    47410.907    12370.180       18.842        5.982      507.143      121.236        0.057      346.883       25.447      857.049
09/08/2014  18:02:00     -287.511      -98.724        8.759      224.810      148.503       75.942    50539.464    22053.069     5767.118        8.541        3.918      303.988       93.666        0.095      346.883       25.449      857.077
09/08/2014  18:03:00     -360.856     -177.348      -31.002      157.232      183.874       95.689    24721.802    33809.826     9156.391       11.515        3.384      402.081       83.920        0.044      346.854       25.397      857.110
09/08/2014  18:04:00     -357.332       11.052      -22.485      167.628      128.561       68.207    28098.989    16527.936     4652.166        8.879        2.464      357.502       69.861        0.038      346.935       25.537      857.130
09/08/2014  18:05:00     -236.621      -34.084       -1.626      227.263      148.027       88.909    51648.657    21911.858     7904.729        6.930        4.073      239.063      107.528        0.202      346.912       25.499      857.144
09/08/2014  18:06:00     -291.477      -36.704       14.583      267.027      199.742      119.444    71303.331    39896.695    14266.802       10.597        6.273      293.779      146.728        0.249      346.846       25.384      857.145
09/08/2014  18:07:00     -436.910      -77.928        3.647      284.247      195.025       92.044    80796.562    38034.650     8472.163       16.212        6.365      443.805      108.290        0.060      346.799       25.303      857.147
09/08/2014  18:08:00     -496.284      -14.848       -9.859      237.169      147.870       92.384    56248.933    21865.617     8534.777       16.662        4.332      496.506      106.439        0.046      346.757       25.230      857.169
09/08/2014  18:09:00     -384.188      -32.211      -16.638      175.241      129.522       73.685    30709.567    16775.981     5429.464       10.091        2.646      385.536       76.297        0.039      346.790       25.287      857.158
09/08/2014  18:10:00     -396.216      -95.539       -9.699      267.335      151.633       94.178    71468.182    22992.442     8869.543       13.475        5.167      407.572      129.464        0.101      346.789       25.285      857.163
09/08/2014  18:11:00     -434.078      -50.309       -1.603      211.800      142.639       91.976    44859.359    20345.976     8459.609       13.230        3.683      436.984      108.912        0.062      346.810       25.322      857.179
09/08/2014  18:12:00     -366.654      -89.332       -0.956      198.525      134.818       88.490    39412.133    18175.978     7830.533       10.391        3.271      377.379      103.146        0.075      346.850       25.390      857.209
09/08/2014  18:13:00     -216.929      -44.489        7.582      190.718      104.487       71.917    36373.406    10917.623     5172.061        5.077        2.623      221.444       93.968        0.180      346.865       25.418      857.223
09/08/2014  18:14:00     -475.552     -109.630      -18.650      205.643      196.791       83.964    42288.920    38726.571     7050.004       16.328        4.403      488.025       92.049        0.036      346.765       25.245      857.211
09/08/2014  18:15:00     -333.393     -193.066       -0.732      205.436      154.664      105.959    42204.107    23920.967    11227.305       11.288        3.868      385.260      104.749        0.074      346.732       25.186      857.207
09/08/2014  18:16:00     -394.494     -173.034        0.496      203.660      192.719       86.330    41477.203    37140.600     7452.818       13.580        4.304      430.774       98.192        0.052      346.671       25.080      857.247
09/08/2014  18:17:00     -458.608     -311.730      -14.338      246.197      204.542      101.812    60612.761    41837.615    10365.692       21.024        5.641      554.524      117.431        0.045      346.621       24.997      857.237
09/08/2014  18:18:00     -427.972     -189.275       -8.630      274.542      184.017      112.197    75373.492    33862.276    12588.084       17.042        6.091      467.958      140.764        0.090      346.623       24.999      857.235
09/08/2014  18:19:00     -480.651     -148.720      -16.878      197.921      168.233       98.035    39172.843    28302.441     9610.817       16.524        3.854      503.134       97.066        0.037      346.614       24.986      857.260
09/08/2014  18:20:00     -426.380     -136.077       -9.706      183.327      164.601       90.798    33608.883    27093.406     8244.246       13.467        3.447      447.568      106.744        0.057      346.585       24.936      857.267
09/08/2014  18:21:00     -229.184     -122.937        7.934      179.962      136.124       75.842    32386.459    18529.738     5752.073        6.218        2.833      260.075       87.235        0.113      346.618       24.992      857.285
09/08/2014  18:22:00     -493.636     -173.924      -30.758      188.198      173.646       76.754    35418.433    30152.802     5891.176       17.316        3.573      523.379       88.883        0.029      346.612       24.982      857.281
09/08/2014  18:23:00     -442.821     -210.947      -20.733      211.080      180.351       92.936    44554.859    32526.427     8637.116       16.335        4.286      490.499       94.575        0.037      346.583       24.931      857.289
09/08/2014  18:24:00     -316.664     -102.294       12.851      240.458      143.840       95.035    57819.967    20689.972     9031.735        9.921        4.377      332.776      119.777        0.130      346.548       24.871      857.309
09/08/2014  18:25:00     -444.469     -232.368       -6.490      253.068      161.387      100.270    64043.633    26045.645    10054.111       17.585        5.007      501.545      118.877        0.056      346.468       24.735      857.318
09/08/2014  18:26:00     -351.364     -139.967       -8.840      236.733      170.582       87.241    56042.443    29098.124     7610.928       11.792        4.638      378.216      101.109        0.071      346.487       24.766      857.308
09/08/2014  18:27:00     -457.083     -133.865      -17.378      225.280      204.492      101.037    50750.957    41816.838    10208.520       16.494        5.139      476.282      112.454        0.056      346.472       24.741      857.303
09/08/2014  18:28:00     -413.022     -268.574      -16.067      251.623      191.550      128.215    63314.291    36691.569    16439.091       17.969        5.822      492.665      130.913        0.071      346.419       24.649      857.312
09/08/2014  18:29:00     -369.654     -203.165      -12.226      233.947      157.907      103.764    54731.387    24934.500    10766.954       13.424        4.522      421.806      118.352        0.079      346.395       24.609      857.342
09/08/2014  18:30:00     -368.608     -187.292        4.830      274.952      154.818      101.845    75598.346    23968.744    10372.378       14.044        5.497      413.461      123.271        0.089      346.379       24.581      857.353
09/08/2014  18:31:00     -505.760     -104.602      -22.302      280.476      166.242       85.731    78666.908    27636.511     7349.871       19.042        5.683      516.464      101.647        0.039      346.349       24.529      857.341
09/08/2014  18:32:00     -383.932      -78.777      -32.032      191.709      142.516       73.461    36752.225    20310.805     5396.591       10.854        3.123      391.931       77.615        0.039      346.341       24.515      857.345
09/08/2014  18:33:00     -428.963     -200.655       -1.425      267.354      171.514       95.218    71478.059    29417.066     9066.558       16.710        5.498      473.573      114.991        0.059      346.311       24.463      857.356
09/08/2014  18:34:00     -360.319     -236.707        7.211      218.209      207.276       96.833    47615.288    42963.483     9376.567       14.292        4.998      431.115       99.409        0.053      346.247       24.354      857.344
09/08/2014  18:35:00     -506.106     -197.345       -7.678      229.906      203.703      105.704    52856.751    41495.098    11173.277       20.032        5.276      543.221      104.948        0.037      346.219       24.304      857.333
09/08/2014  18:36:00     -373.523     -113.340      -11.915      206.235      183.661       81.239    42532.717    33731.401     6599.758       11.767        4.143      390.340       83.576        0.046      346.228       24.322      857.355
09/08/2014  18:37:00     -323.084     -104.180       -5.000      187.588      148.256       79.056    35189.093    21979.721     6249.814        8.933        3.171      339.465       91.262        0.072      346.220       24.307      857.373
09/08/2014  18:38:00     -169.247      -98.855        2.724      119.592      133.591       65.435    14302.184    17846.519     4281.766        3.742        1.822      196.003       60.155        0.094      346.212       24.293      857.371
09/08/2014  18:39:00     -221.606     -109.455        3.205      164.480      134.760       81.130    27053.629    18160.126     6582.128        5.644        2.590      247.163       86.834        0.123      346.207       24.286      857.345
09/08/2014  18:40:00     -355.260     -213.805      -11.962      263.329      178.013       86.756    69342.085    31688.674     7526.609       14.029        5.428      414.635      113.807        0.075      346.166       24.213      857.345
09/08/2014  18:41:00     -381.090     -154.980      -17.799      183.389      215.171      108.684    33631.393    46298.560    11812.188       13.064        4.587      411.398      111.342        0.073      346.126       24.146      857.343
09/08/2014  18:42:00     -400.057     -119.032      -21.135      161.563      132.855       67.144    26102.611    17650.369     4508.324       11.145        2.413      417.390       62.826        0.023      346.108       24.114      857.367
09/08/2014  18:43:00     -377.185     -236.425      -20.286      201.398      149.018       86.882    40561.297    22206.343     7548.501       13.443        3.516      445.157      100.808        0.051      346.073       24.054      857.376
09/08/2014  18:44:00     -405.775     -133.925      -32.321      235.859      158.164       92.593    55629.687    25015.779     8573.542       13.641        4.461      427.304      103.434        0.059      346.092       24.087      857.372
09/08/2014  18:45:00     -281.397     -142.221        8.928      198.463      162.839       91.653    39387.568    26516.679     8400.315        8.689        3.715      315.295       90.693        0.083      346.037       23.993      857.389
09/08/2014  18:46:00     -166.012     -101.110       22.517      170.492      135.052       72.966    29067.679    18239.168     5323.993        4.545        2.632      194.379       74.966        0.149      346.051       24.017      857.434
09/08/2014  18:47:00     -224.149      -99.209       -2.856      138.800      118.315       63.077    19265.370    13998.361     3978.749        4.866        1.862      245.123       64.551        0.069      346.054       24.022      857.461
09/08/2014  18:48:00     -219.024     -142.097        3.421      172.836      137.308       91.638    29872.118    18853.470     8397.456        6.264        2.856      261.080       94.958        0.132      346.021       23.965      857.449
09/08/2014  18:49:00     -334.175     -268.163      -15.376      215.464      152.317      109.433    46424.582    23200.483    11975.482       13.270        4.080      428.468      105.301        0.060      346.000       23.931      857.458
09/08/2014  18:50:00     -374.961     -217.886      -18.920      237.899      160.297       92.726    56595.931    25695.103     8598.108       13.964        4.544      433.671      110.519        0.065      345.976       23.890      857.499
09/08/2014  18:51:00     -367.821     -176.815      -19.340      242.569      149.178      101.838    58839.650    22254.077    10370.893       12.918        4.573      408.112      122.288        0.090      345.981       23.898      857.517
09/08/2014  18:52:00     -372.960     -200.797       -4.891      212.447      166.273       79.466    45133.789    27646.856     6314.832       12.926        3.955      423.578       86.463        0.042      345.949       23.842      857.542
09/08/2014  18:53:00     -411.909     -175.943      -16.361      179.656      152.627       81.744    32276.362    23294.869     6682.104       13.156        3.113      447.912       83.207        0.035      345.932       23.812      857.578
09/08/2014  18:54:00     -280.050      -78.894        8.007      208.475      190.121       95.934    43461.911    36146.086     9203.319        8.675        4.441      290.951      107.107        0.136      345.926       23.802      857.577
09/08/2014  18:55:00     -284.820     -233.619        0.585      192.417      164.836      106.315    37024.448    27170.850    11302.860       10.559        3.775      368.375      106.300        0.083      345.877       23.719      857.589
09/08/2014  18:56:00     -235.836     -107.894        8.986      136.743       93.444       65.573    18698.755     8731.740     4299.852        4.953        1.587      259.344       65.693        0.064      345.887       23.736      857.629
09/08/2014  18:57:00     -322.328     -222.980      -13.069      171.709      141.840       96.038    29483.946    20118.466     9223.290       10.630        2.941      391.938       90.616        0.053      345.867       23.702      857.635
09/08/2014  18:58:00     -360.822     -277.687      -10.812      173.166      188.319       74.324    29986.457    35464.162     5524.117       13.919        3.549      455.305       64.250        0.020      345.832       23.642      857.641
09/08/2014  18:59:00     -290.436     -122.874      -32.971      161.740      116.410       68.161    26159.896    13551.262     4645.891        7.244        2.218      315.358       80.446        0.065      345.814       23.610      857.667
09/08/2014  19:00:00     -353.428     -105.834       -9.244      157.293      129.523       72.632    24740.978    16776.275     5275.425        9.149        2.340      368.934       69.142        0.035      345.782       23.555      857.684
09/08/2014  19:01:00     -252.848     -102.576      -17.819      130.064      115.860       54.622    16916.552    13423.576     2983.596        5.404        1.666      272.863       54.288        0.040      345.764       23.525      857.685
09/08/2014  19:02:00     -213.605     -186.494        5.775      163.445      117.595       73.130    26714.338    13828.467     5347.979        6.316        2.295      283.562       89.129        0.099      345.729       23.465      857.686
09/08/2014  19:03:00     -210.640      -21.069        5.328      194.764       82.281       60.551    37933.002     6770.223     3666.374        4.660        2.418      211.691       79.928        0.143      345.685       23.391      857.681
09/08/2014  19:04:00     -241.223     -147.039      -11.812       91.855      103.359       51.371     8437.416    10683.162     2638.929        5.085        1.088      282.505       45.615        0.026      345.719       23.446      857.685
09/08/2014  19:05:00     -176.479      -84.676        8.968      157.643      121.403       75.181    24851.329    14738.597     5652.209        4.181        2.262      195.742       78.206        0.160      345.668       23.362      857.671
09/08/2014  19:06:00     -313.808     -183.744       -6.670      206.572      168.238       85.130    42671.956    28304.002     7247.163       10.524        3.911      363.645      100.746        0.077      345.622       23.280      857.665
09/08/2014  19:07:00     -475.157     -140.022      -30.477      183.498      155.599       82.238    33671.340    24210.959     6763.156       15.547        3.232      495.359       85.580        0.030      345.599       23.240      857.658
09/08/2014  19:08:00     -234.162     -188.437        6.653      190.091      171.314       96.615    36134.589    29348.590     9334.544        8.259        3.741      300.567       93.072        0.096      345.590       23.226      857.640
09/08/2014  19:09:00     -239.480     -154.630        9.855      168.980      161.554       94.873    28554.369    26099.678     9000.947        7.250        3.183      285.063       99.248        0.121      345.562       23.176      857.636
09/08/2014  19:10:00     -379.404     -208.209      -14.629      166.760      157.550       81.270    27809.026    24822.137     6604.755       12.336        2.962      432.780       81.471        0.035      345.556       23.167      857.629
09/08/2014  19:11:00     -417.203     -200.149      -21.033      264.606      190.200      114.903    70016.290    36175.921    13202.665       16.696        5.970      462.729      132.137        0.082      345.539       23.138      857.591
09/08/2014  19:12:00     -368.016     -100.857      -12.418      218.800      185.036       99.628    47873.567    34238.355     9925.803       11.888        4.602      381.587       96.632        0.064      345.511       23.091      857.593
09/08/2014  19:13:00     -338.692     -172.117      -10.350      170.556      169.328       83.064    29089.406    28671.913     6899.620       10.454        3.233      379.917       88.240        0.054      345.486       23.046      857.593
09/08/2014  19:14:00     -478.056     -205.691      -21.545      331.984      200.365      101.101   110213.686    40145.956    10221.373       21.592        8.029      520.429      132.965        0.065      345.465       23.012      857.576
09/08/2014  19:15:00     -385.952      -98.240      -31.647      239.089      146.473       85.431    57163.560    21454.332     7298.515       12.275        4.296      398.259       91.704        0.053      345.456       22.996      857.558
09/08/2014  19:16:00     -326.949     -163.177        6.327      252.557      175.916       93.158    63785.155    30946.409     8678.422       11.847        5.170      365.408      106.663        0.085      345.417       22.929      857.559
09/08/2014  19:17:00     -233.306     -153.400       28.157      223.099      142.726      100.736    49773.380    20370.669    10147.707        7.951        4.015      279.219      117.836        0.178      345.392       22.888      857.587
09/08/2014  19:18:00     -337.331     -184.658       -3.521      159.242      127.002       70.057    25357.895    16129.551     4907.990        9.714        2.320      384.566       59.508        0.024      345.372       22.851      857.614
09/08/2014  19:19:00     -398.607     -290.945      -11.028      218.468      169.807      105.514    47728.213    28834.294    11133.243       16.566        4.385      493.494      103.702        0.044      345.333       22.785      857.619
09/08/2014  19:20:00     -431.642     -196.186       -2.586      236.231      174.814       97.935    55804.881    30559.917     9591.342       16.037        4.798      474.135      114.590        0.058      345.333       22.784      857.620
09/08/2014  19:21:00     -420.119     -343.733      -22.661      234.888      247.310      111.723    55172.488    61162.363    12481.941       21.197        6.441      542.819      124.481        0.053      345.329       22.778      857.634
09/08/2014  19:22:00     -532.583     -331.307      -33.533      176.441      157.481       92.874    31131.331    24800.183     8625.660       22.953        3.228      627.223       68.889        0.012      345.348       22.810      857.652
09/08/2014  19:23:00     -514.091     -318.212      -29.540      254.214      204.965      108.079    64624.517    42010.729    11681.057       24.235        5.916      604.607      120.410        0.040      345.331       22.781      857.676
09/08/2014  19:24:00     -403.683     -305.614      -13.634      236.801      192.384      105.231    56074.865    37011.520    11073.601       18.034        5.208      506.320      116.336        0.053      345.305       22.737      857.696
09/08/2014  19:25:00     -304.046     -169.706       -5.675      185.788      130.634       89.770    34517.310    17065.130     8058.742        9.045        2.982      348.201      104.777        0.091      345.268       22.674      857.753
09/08/2014  19:26:00     -258.330     -144.782        0.661      202.066      156.268       93.585    40830.566    24419.580     8758.226        8.084        3.700      296.135      112.687        0.145      345.231       22.610      857.783
09/08/2014  19:27:00     -426.724     -291.309      -18.634      216.897      204.076      112.293    47044.259    41646.889    12609.766       18.428        5.065      516.677      122.356        0.056      345.242       22.628      857.780
09/08/2014  19:28:00     -502.363     -181.298      -28.520      299.970      240.931      101.439    89982.058    58047.920    10289.944       22.216        7.916      534.077      125.970        0.056      345.219       22.589      857.796
09/08/2014  19:29:00     -492.340     -316.412       -6.862      213.523      172.796      101.716    45592.283    29858.595    10346.177       21.417        4.290      585.248       99.281        0.029      345.200       22.557      857.805
09/08/2014  19:30:00     -309.807     -163.524        0.663      212.636      150.087      101.267    45214.003    22526.195    10255.064       10.034        3.900      350.314      110.364        0.099      345.161       22.491      857.818
09/08/2014  19:31:00     -477.612     -204.654      -14.097      184.237      177.133      104.687    33943.294    31376.249    10959.464       17.322        3.814      519.611      106.540        0.042      345.153       22.476      857.830
09/08/2014  19:32:00     -392.700     -233.206      -26.539      244.295      224.936      102.160    59680.204    50596.279    10436.652       16.499        6.036      456.726      133.960        0.086      345.119       22.420      857.807
09/08/2014  19:33:00     -511.102     -164.588      -14.305      216.207      175.899       87.331    46745.595    30940.336     7626.752       18.690        4.266      536.949      104.856        0.038      345.107       22.397      857.816
09/08/2014  19:34:00     -413.903     -223.931      -12.249      211.967      176.447      103.714    44930.147    31133.633    10756.649       15.420        4.341      470.597      111.069        0.056      345.078       22.348      857.800
09/08/2014  19:35:00     -419.304     -119.734       10.291      233.301      179.142      107.413    54429.344    32091.754    11537.577       14.414        4.903      436.065      129.590        0.088      345.060       22.317      857.773
09/08/2014  19:36:00     -417.552      -91.018        1.876      264.318      165.840      111.806    69864.194    27502.747    12500.585       14.623        5.493      427.356      127.212        0.089      345.039       22.283      857.756
09/08/2014  19:37:00     -480.322     -305.480      -18.799      247.094      178.724      103.870    61055.628    31942.268    10789.056       21.407        5.189      569.234      103.568        0.033      345.034       22.275      857.762
09/08/2014  19:38:00     -460.476     -186.418      -16.271      221.579      207.002      100.410    49097.177    42849.762    10082.157       17.452        5.101      496.780       96.943        0.038      345.024       22.257      857.759
09/08/2014  19:39:00     -422.476     -225.103      -15.588      219.966      189.757      105.155    48385.081    36007.863    11057.535       16.241        4.773      478.703      108.801        0.052      344.999       22.214      857.776
09/08/2014  19:40:00     -483.051     -262.821      -14.794      210.287      219.147      119.809    44220.522    48025.193    14354.193       20.460        5.330      549.921      125.116        0.052      344.984       22.187      857.783
09/08/2014  19:41:00     -487.092     -334.647      -37.939      266.214      190.747      110.394    70869.854    36384.538    12186.808       23.504        5.972      590.972       95.648        0.026      344.957       22.141      857.768
09/08/2014  19:42:00     -481.757     -196.269      -24.958      221.555      164.108       88.321    49086.731    26931.507     7800.572       17.751        4.191      520.203      102.684        0.039      344.924       22.085      857.812
09/08/2014  19:43:00     -449.720     -321.379      -14.434      219.987      213.481      116.211    48394.313    45573.928    13504.992       20.659        5.374      552.750      120.840        0.048      344.891       22.028      857.823
09/08/2014  19:44:00     -371.841     -140.865        7.657      226.397      173.392       83.447    51255.604    30064.901     6963.398       12.321        4.414      397.629      109.546        0.076      344.863       21.982      857.805
09/08/2014  19:45:00     -439.734     -188.622       17.777      257.460      251.692      117.685    66285.634    63348.673    13849.810       18.635        7.174      478.481      133.429        0.078      344.860       21.975      857.830
09/08/2014  19:46:00     -393.012     -273.678       -7.654      241.553      193.760      118.942    58347.998    37542.831    14147.144       16.971        5.502      478.913      126.474        0.070      344.855       21.966      857.850
09/08/2014  19:47:00     -395.534     -235.571      -12.931      279.786      178.117      112.946    78279.950    31725.797    12756.847       16.742        6.138      460.371      129.746        0.079      344.848       21.954      857.865
09/08/2014  19:48:00     -432.209     -258.369      -19.143      212.545      129.818       93.472    45175.519    16852.614     8736.960       16.233        3.538      503.546      101.522        0.041      344.841       21.943      857.914
09/08/2014  19:49:00     -487.930     -168.721      -18.785      264.889      176.130       91.287    70165.955    31021.769     8333.401       18.819        5.476      516.277      114.225        0.049      344.833       21.928      857.925
09/08/2014  19:50:00     -528.620     -355.116      -22.617      252.776      220.401      118.029    63895.661    48576.500    13930.754       26.621        6.320      636.825      133.577        0.044      344.833       21.928      857.915
09/08/2014  19:51:00     -461.972     -268.782      -34.256      217.698      181.231      102.523    47392.561    32844.796    10510.968       18.878        4.537      534.473      116.763        0.048      344.823       21.914      857.922
09/08/2014  19:52:00     -538.913     -227.169      -36.497      248.570      191.118      115.268    61787.152    36526.020    13286.678       22.746        5.580      584.836      117.210        0.040      344.803       21.877      857.952
09/08/2014  19:53:00     -380.020     -179.617       -3.198      217.867      174.569      108.757    47466.006    30474.390    11828.074       13.321        4.488      420.330      112.279        0.071      344.804       21.878      857.960
09/08/2014  19:54:00     -301.604     -177.436       23.331      245.808      181.770      105.359    60421.522    33040.505    11100.464       11.376        5.228      349.927      132.945        0.144      344.762       21.808      857.962
09/08/2014  19:55:00     -362.746     -252.385        8.183      289.008      207.316      137.261    83525.775    42980.022    18840.634       17.032        7.267      441.908      158.334        0.128      344.761       21.805      857.938
09/08/2014  19:56:00     -402.501     -252.218      -11.379      246.170      176.174      103.974    60599.534    31037.353    10810.683       16.408        5.122      474.996      109.269        0.053      344.749       21.785      857.940
09/08/2014  19:57:00     -370.469     -249.887       -2.926      298.747      198.723      126.487    89249.711    39490.900    15998.968       17.220        7.237      446.868      133.630        0.089      344.734       21.759      857.969
09/08/2014  19:58:00     -467.138     -263.544      -12.153      251.457      200.492      121.433    63230.521    40196.857    14745.938       20.298        5.909      536.352      137.924        0.066      344.730       21.752      857.974
09/08/2014  19:59:00     -290.401      -96.463       -9.483      187.537      165.292       84.281    35170.047    27321.383     7103.257        8.165        3.480      306.004       88.325        0.083      344.685       21.674      857.986
09/08/2014  20:00:00     -291.340     -247.709       12.717      254.429      207.505      106.832    64733.922    43058.433    11413.132       13.278        5.960      382.412      130.215        0.116      344.658       21.630      858.001
09/08/2014  20:01:00     -427.051     -164.240      -25.459      308.269      175.679      106.663    95030.078    30863.250    11376.943       17.361        6.864      457.545      148.099        0.105      344.658       21.630      857.986
09/08/2014  20:02:00     -599.139     -198.461      -22.828      283.061      168.357      102.288    80123.441    28343.950    10462.793       25.888        5.947      631.153      115.077        0.033      344.651       21.617      857.997
09/08/2014  20:03:00     -450.846     -202.903       -1.798      232.573      213.697      118.111    54090.353    45666.243    13950.131       17.905        5.685      494.400      133.177        0.073      344.642       21.600      857.972
09/08/2014  20:04:00     -444.724     -185.010      -12.125      300.894      191.576       93.458    90536.987    36701.419     8734.471       18.404        6.799      481.672      121.948        0.064      344.624       21.571      857.988
09/08/2014  20:05:00     -350.229     -244.574       -7.051      243.536      247.219       99.334    59309.646    61116.991     9867.258       15.639        6.515      427.173      120.161        0.079      344.595       21.522      858.006
09/08/2014  20:06:00     -252.240     -153.920       30.261      222.921      204.573      124.161    49693.690    41850.153    15415.962        9.758        5.348      295.494      124.530        0.178      344.580       21.496      857.986
09/08/2014  20:07:00     -433.110     -186.161      -23.436      241.986      256.896      106.592    58557.096    65995.491    11361.889       17.933        6.796      471.424      112.300        0.057      344.557       21.457      858.031
09/08/2014  20:08:00     -641.952     -282.690      -34.264      222.704      208.382      117.785    49597.169    43423.171    13873.267       30.002        5.345      701.438      102.720        0.021      344.584       21.502      858.040
09/08/2014  20:09:00     -470.814     -197.197        0.918      234.933      210.868      106.685    55193.549    44465.469    11381.610       18.578        5.552      510.443      122.231        0.057      344.563       21.467      858.069
09/08/2014  20:10:00     -661.627     -255.580      -40.196      281.769      215.489      115.249    79393.924    46435.473    13282.274       32.188        6.956      709.275      120.082        0.029      344.551       21.446      858.104
09/08/2014  20:11:00     -498.730     -283.280      -49.674      173.265      161.920       87.748    30020.719    26218.065     7699.697       19.768        3.197      573.567       60.684        0.011      344.558       21.458      858.114
09/08/2014  20:12:00     -408.248     -199.277       -9.004      266.634      223.120      110.838    71093.545    49782.454    12285.141       16.979        6.658      454.288      137.565        0.092      344.528       21.407      858.114
09/08/2014  20:13:00     -397.555     -176.782       11.998      245.033      179.563       95.989    60041.290    32242.832     9213.895       14.545        5.075      435.088      107.538        0.061      344.514       21.383      858.129
09/08/2014  20:14:00     -498.230     -273.995      -16.925      235.900      187.345      108.880    55648.963    35098.038    11854.795       21.308        5.130      568.601      120.210        0.045      344.520       21.393      858.146
09/08/2014  20:15:00     -416.263     -155.554      -14.937      222.461      180.500       96.024    49489.081    32580.188     9220.564       14.448        4.564      444.378      104.233        0.055      344.482       21.329      858.187
09/08/2014  20:16:00     -396.554     -252.854       17.875      293.284      240.368      136.995    86015.611    57776.715    18767.567       19.201        8.128      470.308      152.442        0.105      344.456       21.284      858.163
09/08/2014  20:17:00     -360.597     -160.749        4.572      247.459      171.658       96.540    61236.096    29466.492     9319.926       12.794        5.001      394.805      127.301        0.104      344.432       21.246      858.211
09/08/2014  20:18:00     -264.703      -64.878        2.329      189.163      145.449       91.920    35782.669    21155.556     8449.303        6.982        3.269      272.538       96.103        0.124      344.403       21.193      858.238
09/08/2014  20:19:00     -417.380     -273.155      -13.168      233.929      160.603       93.230    54722.662    25793.318     8691.753       16.909        4.460      498.818      106.838        0.046      344.410       21.204      858.255
09/08/2014  20:20:00     -259.644     -110.375       22.378      190.017      156.831       92.013    36106.475    24595.964     8466.406        7.462        3.458      282.131      107.493        0.145      344.351       21.103      858.268
09/08/2014  20:21:00     -384.840     -207.278      -17.312      279.559      231.373       94.671    78153.077    53533.540     8962.529       16.598        7.032      437.111      123.222        0.079      344.348       21.100      858.285
09/08/2014  20:22:00     -426.407     -200.043       -4.453      238.224      165.564       96.597    56750.848    27411.376     9331.012       15.766        4.675      470.999      113.153        0.058      344.322       21.056      858.304
09/08/2014  20:23:00     -435.153     -123.885      -15.394      238.073      163.742       87.427    56678.831    26811.279     7643.435       14.802        4.557      452.444      109.153        0.058      344.334       21.076      858.328
09/08/2014  20:24:00     -494.307     -181.008       -7.637      217.016      176.540       83.277    47096.096    31166.453     6935.033       18.117        4.260      526.406       88.590        0.028      344.328       21.065      858.364
09/08/2014  20:25:00     -443.242     -228.466      -16.048      185.488      198.278       91.566    34405.903    39313.981     8384.290       16.550        4.105      498.659       96.773        0.038      344.326       21.062      858.384
09/08/2014  20:26:00     -361.629     -134.877      -15.600      175.400      136.580       81.645    30765.277    18654.074     6665.881       10.264        2.804      385.963       80.466        0.043      344.288       20.997      858.427
09/08/2014  20:27:00     -330.118     -223.194        0.326      219.897      166.405      103.497    48354.512    27690.500    10711.706       12.276        4.338      398.489      106.298        0.071      344.268       20.964      858.443
09/08/2014  20:28:00     -369.848     -139.702        8.430      234.818      137.779       99.563    55139.448    18983.133     9912.841       12.019        4.202      395.354      118.158        0.089      344.263       20.955      858.470
09/08/2014  20:29:00     -269.689     -136.447        0.167      181.149      159.705       90.320    32814.936    25505.713     8157.779        7.890        3.324      302.241      105.675        0.122      344.247       20.929      858.503
09/08/2014  20:30:00     -342.195     -180.271      -12.557      186.627      133.077       93.668    34829.823    17709.466     8773.775       10.552        3.066      386.775       99.141        0.066      344.249       20.930      858.504
09/08/2014  20:31:00     -357.254     -157.643      -22.793      208.744      173.962       77.943    43573.974    30262.644     6075.168       11.644        3.996      390.490       89.438        0.052      344.231       20.900      858.533
09/08/2014  20:32:00     -499.256     -236.708      -22.963      249.605      170.715       99.472    62302.796    29143.750     9894.667       20.356        5.067      552.528      109.078        0.039      344.266       20.960      858.499
09/08/2014  20:33:00     -246.617     -136.570       -5.221      192.543      146.825       83.252    37072.992    21557.450     6930.836        7.252        3.278      281.906       97.275        0.119      344.256       20.943      858.518
09/08/2014  20:34:00     -305.813     -154.974        2.630      137.055      119.908       64.468    18784.110    14377.964     4156.177        7.743        1.866      342.839       59.662        0.030      344.216       20.874      858.533
09/08/2014  20:35:00     -371.269     -291.363       -9.780      214.722      151.806      104.724    46105.367    23045.172    10967.015       15.146        4.006      471.946      107.908        0.052      344.228       20.894      858.544
09/08/2014  20:36:00     -444.173     -157.804       -2.712      219.943      172.795       94.120    48374.874    29858.161     8858.660       15.463        4.355      471.373       82.739        0.031      344.226       20.891      858.546
09/08/2014  20:37:00     -504.052     -186.996      -21.942      210.773      187.080       95.779    44425.384    34998.884     9173.554       18.904        4.430      537.620      105.286        0.038      344.226       20.891      858.559
09/08/2014  20:38:00     -367.777      -40.885      -10.494      181.478      147.423       78.824    32934.349    21733.455     6213.265        9.895        3.044      370.043       95.934        0.067      344.175       20.802      858.565
09/08/2014  20:39:00     -260.471     -158.082       -1.671      214.925      149.506       92.924    46192.812    22351.902     8634.790        8.500        3.859      304.689      106.226        0.122      344.176       20.806      858.561
09/08/2014  20:40:00     -251.915     -192.412        5.367      204.074      185.277       93.321    41646.232    34327.593     8708.806        9.258        4.234      316.992      101.855        0.103      344.152       20.766      858.572
09/08/2014  20:41:00     -373.323     -279.321      -15.727      234.954      139.583       91.215    55203.216    19483.429     8320.105       15.031        4.150      466.251      107.441        0.053      344.164       20.786      858.555
09/08/2014  20:42:00     -322.765     -171.131        8.689      196.791      137.078       89.183    38726.692    18790.329     7953.621        9.949        3.274      365.326       90.144        0.061      344.146       20.753      858.591
09/08/2014  20:43:00     -267.803     -168.825       -5.752      170.312      149.563       78.734    29006.040    22369.076     6198.989        7.890        2.879      316.576       80.036        0.064      344.150       20.762      858.588
09/08/2014  20:44:00     -314.881     -176.283        1.355      167.677      156.183       91.126    28115.524    24393.121     8303.934        9.551        3.041      360.868       74.205        0.042      344.120       20.710      858.615
09/08/2014  20:45:00     -328.191     -163.987      -11.248      234.826      170.575       83.991    55143.349    29095.760     7054.501       11.300        4.565      366.880       93.137        0.064      344.135       20.735      858.645
09/08/2014  20:46:00     -265.367     -114.311       15.036      178.172      148.666       92.201    31745.099    22101.695     8501.025        7.302        3.117      288.940      106.124        0.135      344.118       20.706      858.671
09/08/2014  20:47:00     -288.921     -199.855       -7.622      182.802      139.397       81.829    33416.643    19431.647     6696.061        9.150        2.977      351.308       94.755        0.073      344.103       20.682      858.713
09/08/2014  20:48:00     -392.875     -148.148      -29.331      177.949      133.992       76.973    31665.725    17953.835     5924.770       11.634        2.777      419.879       77.813        0.034      344.121       20.711      858.746
09/08/2014  20:49:00     -259.636      -88.232       -4.892      181.065      129.907       67.280    32784.504    16875.699     4526.615        6.469        2.709      274.218       48.539        0.031      344.108       20.689      858.754
09/08/2014  20:50:00     -318.397      -94.891      -10.768      199.680      121.216       77.930    39872.070    14693.296     6073.036        8.556        3.032      332.236       93.307        0.079      344.094       20.666      858.734
09/08/2014  20:51:00     -194.505      -22.487       21.387      190.060      152.180       84.377    36122.670    23158.792     7119.507        5.259        3.320      195.800       85.786        0.192      344.072       20.632      858.714
09/08/2014  20:52:00     -366.841     -163.014      -18.379      211.383      138.235       85.602    44682.829    19108.852     7327.640       11.629        3.556      401.430       78.479        0.038      344.074       20.633      858.705
09/08/2014  20:53:00     -322.827     -155.303        1.348      218.335      162.026       86.591    47670.156    26252.389     7497.953       10.487        4.071      358.241      108.927        0.092      344.051       20.594      858.699
09/08/2014  20:54:00     -283.922     -115.626       -2.624      152.309      144.353       81.150    23197.948    20837.716     6585.301        7.230        2.531      306.564       80.464        0.069      344.036       20.568      858.683
09/08/2014  20:55:00     -300.771     -106.837       -5.199      182.613      154.757       75.966    33347.334    23949.755     5770.873        8.248        3.153      319.183       70.897        0.049      344.008       20.518      858.694
09/08/2014  20:56:00     -237.641     -115.076      -15.257      173.137      143.793       75.215    29976.251    20676.564     5657.255        6.312        2.816      264.037       95.930        0.132      344.004       20.512      858.682
09/08/2014  20:57:00     -433.034      -98.725      -29.731      205.895      156.252       87.495    42392.601    24414.538     7655.313       13.629        3.723      444.146       94.511        0.045      344.006       20.515      858.688
09/08/2014  20:58:00     -314.432      -46.346       15.445      234.036      165.299       95.493    54772.850    27323.815     9118.856        9.622        4.561      317.829      108.737        0.117      343.986       20.481      858.629
09/08/2014  20:59:00     -281.756     -164.258        4.250      200.149      151.114       79.805    40059.698    22835.457     6368.882        8.781        3.463      326.140       98.305        0.091      343.995       20.498      858.641
09/08/2014  21:00:00     -409.273     -125.821       -4.163      223.379      167.372       91.998    49897.999    28013.271     8463.565       13.485        4.319      428.176       98.858        0.053      344.014       20.530      858.705
09/08/2014  21:01:00     -259.475     -124.065       -1.816      188.229      198.016      108.697    35430.283    39210.380    11815.128        8.457        4.323      287.610      101.634        0.125      344.002       20.509      858.737
09/08/2014  21:02:00     -185.938      -86.827       11.728      172.954      139.154       90.872    29912.944    19363.744     8257.784        4.988        2.877      205.211       96.659        0.222      344.005       20.516      858.775
09/08/2014  21:03:00     -318.777     -137.983       -7.642      198.055      174.467       84.335    39225.706    30438.773     7112.368        9.873        3.839      347.358       99.677        0.082      344.009       20.520      858.826
09/08/2014  21:04:00     -307.392     -131.523        0.935      176.857      149.252       73.282    31278.378    22276.096     5370.278        8.535        2.946      334.347       80.402        0.058      343.966       20.446      858.827
09/08/2014  21:05:00     -286.826      -68.462      -20.456      134.067      174.419       63.626    17974.028    30421.977     4048.222        6.990        2.622      294.883       67.050        0.052      343.969       20.452      858.839
09/08/2014  21:06:00     -207.300      -35.485        1.640      122.898      138.696       69.946    15103.956    19236.674     4892.406        4.173        1.962      210.315       67.832        0.104      343.919       20.368      858.788
09/08/2014  21:07:00     -366.139      -76.120      -14.723      171.900      148.341       71.197    29549.745    22005.184     5069.067        9.834        2.831      373.968       78.727        0.044      343.923       20.374      858.744
09/08/2014  21:08:00     -231.991     -103.127       -9.495      150.064       89.583       61.929    22519.207     8025.031     3835.228        4.946        1.719      253.880       41.944        0.027      343.913       20.356      858.735
09/08/2014  21:09:00     -335.182      -42.381      -20.791      247.224      146.013       73.327    61119.523    21319.935     5376.877       10.118        4.391      337.850       91.837        0.074      343.893       20.323      858.731
09/08/2014  21:10:00     -363.351     -159.365      -13.061      212.527      172.917       84.992    45167.695    29900.294     7223.676       11.993        4.115      396.763      107.141        0.073      343.891       20.318      858.720
09/08/2014  21:11:00     -356.568     -179.607        2.270      214.891      193.449       85.662    46177.987    37422.511     7337.914       12.516        4.547      399.249       91.822        0.053      343.887       20.313      858.700
09/08/2014  21:12:00     -492.678     -106.247      -27.206      241.879      203.061       99.096    58505.261    41233.889     9820.047       18.214        5.478      504.004      116.534        0.053      343.878       20.295      858.717
09/08/2014  21:13:00     -367.725     -118.887       -6.389      213.537      181.450       84.633    45598.202    32924.093     7162.700       11.753        4.284      386.466       82.150        0.045      343.866       20.277      858.688
09/08/2014  21:14:00     -302.153      -79.317      -17.753      151.677      115.640       76.314    23005.909    13372.525     5823.831        7.005        2.110      312.390       74.394        0.057      343.856       20.259      858.737
09/08/2014  21:15:00     -261.008      -52.651      -10.704      267.147      168.926      105.442    71367.549    28536.091    11117.936        9.100        5.551      266.265      107.488        0.163      343.841       20.234      858.760
09/08/2014  21:16:00     -262.862      -36.401       -8.816      188.528      144.901       78.898    35542.749    20996.431     6224.844        6.662        3.138      265.371       87.225        0.108      343.812       20.185      858.811
09/08/2014  21:17:00     -161.513     -105.625       10.656      166.126      127.022       78.702    27597.743    16134.628     6193.965        4.363        2.496      192.985       86.190        0.199      343.837       20.228      858.802
09/08/2014  21:18:00     -284.329      -52.431       -5.766      183.639      135.637       83.179    33723.374    18397.421     6918.667        7.132        2.952      289.123       88.206        0.093      343.807       20.175      858.787
09/08/2014  21:19:00     -234.956      -59.452        1.059      208.924      108.896       77.077    43649.154    11858.387     5940.856        6.008        3.072      242.361       92.705        0.146      343.830       20.215      858.817
09/08/2014  21:20:00     -340.775     -231.293        0.611      254.129      242.231      111.863    64581.474    58675.743    12513.300       15.267        6.789      411.854      135.262        0.108      343.867       20.277      858.797
09/08/2014  21:21:00     -560.668       52.514      -28.733      259.381      193.975      110.101    67278.487    37626.411    12122.147       21.746        5.851      563.122      108.896        0.037      343.864       20.273      858.810
09/08/2014  21:22:00     -333.358     -129.574       -4.495      285.197      216.000      101.620    81337.384    46656.144    10326.563       13.311        6.916      357.654      112.525        0.099      343.864       20.272      858.831
09/08/2014  21:23:00     -451.760      -91.745      -18.167      240.334      156.157       84.573    57760.220    24385.145     7152.518       15.105        4.465      460.982       94.125        0.042      343.836       20.226      858.859
09/08/2014  21:24:00     -314.548     -120.212      -10.568      204.538      140.999       75.332    41835.727    19880.787     5674.895        9.044        3.370      336.736       79.663        0.056      343.822       20.202      858.935
09/08/2014  21:25:00     -397.704     -282.949      -15.715      259.522      236.113      118.264    67351.612    55749.460    13986.392       18.776        6.854      488.087      125.473        0.066      343.841       20.234      858.952
09/08/2014  21:26:00     -270.122     -199.475      -18.046      149.408      150.449       76.224    22322.653    22634.923     5810.120        8.192        2.538      335.792       76.536        0.052      343.843       20.237      858.979
09/08/2014  21:27:00     -231.813      -98.143       -0.607      177.358      119.369       65.989    31455.711    14248.918     4354.557        5.671        2.503      251.732       83.580        0.110      343.801       20.165      859.023
09/08/2014  21:28:00     -202.509      -86.245        6.530      152.828      124.816       76.471    23356.548    15579.127     5847.793        4.663        2.239      220.109       75.972        0.119      343.783       20.136      859.044
09/08/2014  21:29:00     -245.097     -127.233       -7.790      203.509      163.806       87.830    41416.037    26832.380     7714.120        7.613        3.798      276.153       98.824        0.128      343.784       20.137      859.059
09/08/2014  21:30:00     -298.311     -102.455      -11.204      279.022      143.201       79.548    77853.048    20506.422     6327.947       10.213        5.234      315.415      104.640        0.110      343.780       20.129      859.103
09/08/2014  21:31:00     -381.266     -156.170        0.417      269.018      141.487      107.226    72370.883    20018.583    11497.413       13.680        5.194      412.011      132.778        0.104      343.801       20.165      859.130
09/08/2014  21:32:00     -266.553      -91.588       23.065      202.697      139.968       99.586    41086.028    19590.919     9917.470        7.527        3.530      281.849      103.175        0.134      343.831       20.216      859.159
09/08/2014  21:33:00     -250.156     -116.712       17.164      249.982      116.599       91.030    62490.865    13595.412     8286.551        8.042        4.219      276.043      103.352        0.140      343.814       20.188      859.166
09/08/2014  21:34:00     -235.146     -190.802       -4.801      154.816      125.625       65.573    23968.127    15781.745     4299.870        6.788        2.202      302.818       77.088        0.065      343.822       20.202      859.202
09/08/2014  21:35:00     -352.787     -182.016       10.944      173.815      146.990       94.047    30211.823    21606.181     8844.876       10.918        3.033      396.974       96.918        0.060      343.786       20.138      859.194
09/08/2014  21:36:00     -329.011     -202.489       -9.987      200.416      158.849       95.970    40166.738    25232.847     9210.296       11.197        3.730      386.329      102.489        0.070      343.799       20.162      859.223
09/08/2014  21:37:00     -270.421      -77.343        1.756      180.753      126.824       72.536    32671.627    16084.211     5261.450        6.656        2.701      281.264       77.540        0.076      343.742       20.065      859.258
09/08/2014  21:38:00     -528.073       -8.231      -34.896      230.971      151.381       71.757    53347.530    22916.253     5149.086       18.077        4.071      528.137       83.024        0.025      343.794       20.154      859.290
09/08/2014  21:39:00     -256.746      -46.286       -3.543      152.997      110.044       60.737    23407.958    12109.623     3689.043        5.363        1.960      260.885       64.467        0.061      343.736       20.056      859.331
09/08/2014  21:40:00     -231.674     -153.084        0.923      154.929      161.305       67.291    24003.064    26019.263     4528.080        6.582        2.728      277.683       66.143        0.057      343.716       20.020      859.332
09/08/2014  21:41:00     -159.942      -55.147        1.575      111.628       94.916       46.425    12460.917     9008.972     2155.278        2.612        1.181      169.182       53.705        0.101      343.719       20.027      859.342
09/08/2014  21:42:00     -199.248     -141.135       -5.138      136.775      123.547       73.059    18707.469    15263.970     5337.634        4.947        1.965      244.170       80.278        0.108      343.696       19.985      859.352
09/08/2014  21:43:00     -362.527     -223.966      -23.125      172.387      160.291       82.831    29717.346    25693.199     6860.958       12.219        3.114      426.130       72.575        0.029      343.749       20.075      859.348
09/08/2014  21:44:00     -384.258     -189.411      -11.685      170.932      112.496       74.324    29217.707    12655.265     5524.057       11.552        2.370      428.405       56.325        0.017      343.749       20.077      859.371
09/08/2014  21:45:00     -266.480     -169.276      -10.798      140.231      127.046       69.319    19664.660    16140.580     4805.115        7.019        2.031      315.699       76.658        0.059      343.741       20.062      859.408
09/08/2014  21:46:00     -314.903     -184.256       -0.676      202.662      136.179       88.171    41071.731    18544.639     7774.156       10.024        3.370      364.848       97.047        0.071      343.734       20.051      859.418
09/08/2014  21:47:00     -285.401     -205.692      -16.652      169.128      128.937       78.629    28604.267    16624.647     6182.536        8.772        2.571      351.800       83.653        0.057      343.744       20.068      859.448
09/08/2014  21:48:00     -315.062     -126.457       -1.404      153.172      161.873       76.594    23461.799    26202.774     5866.639        8.538        2.777      339.493       79.960        0.055      343.732       20.047      859.452
09/08/2014  21:49:00     -261.798     -152.051       -9.237      199.143      142.626       82.638    39657.911    20342.282     6829.060        7.927        3.341      302.750       88.772        0.086      343.674       19.950      859.459
09/08/2014  21:50:00     -447.110      -66.445      -38.473      171.500      110.719       76.655    29412.367    12258.770     5876.025       12.667        2.377      452.021       83.407        0.034      343.692       19.978      859.473
09/08/2014  21:51:00     -233.399     -106.083       -9.952      110.314       98.979       47.832    12169.199     9796.937     2287.925        4.504        1.213      256.376       51.250        0.040      343.636       19.883      859.489
09/08/2014  21:52:00     -244.984     -151.500       -9.994      139.007      103.665       61.522    19322.855    10746.409     3784.991        5.846        1.693      288.044       69.661        0.058      343.632       19.878      859.482
09/08/2014  21:53:00     -317.413     -170.251      -14.800      200.282      118.438       93.490    40113.024    14027.593     8740.308        9.641        3.144      360.189      110.034        0.093      343.676       19.951      859.484
09/08/2014  21:54:00     -268.153     -174.078       -3.469      162.604      147.130       82.434    26440.135    21647.171     6795.393        7.854        2.744      319.702       82.668        0.067      343.601       19.825      859.483
09/08/2014  21:55:00     -180.723      -85.204       -0.716      162.645      131.027       85.788    26453.434    17168.111     7359.551        4.544        2.549      199.802       93.137        0.217      343.580       19.790      859.501
09/08/2014  21:56:00     -217.661     -136.470        1.283      130.663       96.006       60.745    17072.751     9217.151     3689.929        4.799        1.499      256.905       69.605        0.073      343.644       19.897      859.510
09/08/2014  21:57:00     -344.688      -52.313      -18.845      165.561      154.674       66.486    27410.594    23924.045     4420.435        8.882        2.788      348.635       64.308        0.034      343.660       19.926      859.513
09/08/2014  21:58:00     -327.135      -28.620       -5.759      161.665      113.371       68.349    26135.682    12852.974     4671.561        7.576        2.183      328.385       71.507        0.047      343.584       19.794      859.523
09/08/2014  21:59:00     -294.768     -156.521        1.954      116.163      142.316       60.066    13493.858    20253.785     3607.930        7.437        1.868      333.747       56.551        0.029      343.640       19.888      859.524
09/08/2014  22:00:00     -268.064     -171.853       -4.619      157.498      137.999       78.510    24805.638    19043.595     6163.826        7.570        2.501      318.421       86.308        0.073      343.632       19.876      859.534
09/08/2014  22:01:00     -266.598     -156.850       -9.453      153.957      112.587       69.034    23702.781    12675.733     4765.687        6.845        2.057      309.316       64.227        0.043      343.641       19.892      859.544
09/08/2014  22:02:00     -329.665     -179.721       -2.492      182.082      176.919       86.548    33153.899    31300.256     7490.571       10.645        3.597      375.471       89.213        0.056      343.628       19.870      859.549
09/08/2014  22:03:00     -283.707     -116.152      -17.278      165.524      115.513       54.935    27398.336    13343.302     3017.813        6.901        2.188      306.563       57.183        0.035      343.635       19.880      859.557
09/08/2014  22:04:00     -200.980      -60.599      -12.573      101.165       88.401       50.303    10234.364     7814.820     2530.401        3.240        1.029      209.917       55.069        0.069      343.555       19.745      859.573
09/08/2014  22:05:00     -291.030      -36.559       -4.100      116.981       86.698       58.519    13684.558     7516.584     3424.468        5.533        1.231      293.317       58.895        0.040      343.537       19.715      859.591
09/08/2014  22:06:00     -298.239      -11.014      -17.606      136.831      113.896       68.058    18722.792    12972.303     4631.843        6.285        1.816      298.442       68.944        0.053      343.494       19.642      859.640
09/08/2014  22:07:00     -151.381      -71.811       -0.958      114.757      123.454       63.966    13169.238    15240.955     4091.677        3.028        1.625      167.550       65.152        0.151      343.445       19.558      859.661
09/08/2014  22:08:00     -246.463        1.303        4.322      143.223       82.091       55.152    20512.713     6738.961     3041.745        4.552        1.515      246.467       70.916        0.083      343.474       19.607      859.675
09/08/2014  22:09:00     -322.939      -49.418      -25.738       94.503       85.817       48.643     8930.786     7364.634     2366.139        6.302        0.933      326.699       46.828        0.021      343.522       19.689      859.670
09/08/2014  22:10:00     -181.145      -81.072        9.402      127.520       86.857       56.716    16261.309     7544.064     3216.741        3.324        1.351      198.459       61.965        0.097      343.418       19.512      859.684
09/08/2014  22:11:00     -133.760      -77.716       19.173      138.572      104.328       70.843    19202.098    10884.376     5018.686        2.970        1.755      154.698       78.722        0.259      343.414       19.506      859.701
09/08/2014  22:12:00     -239.320      -80.064      -13.992      121.237      108.640       62.952    14698.430    11802.656     3962.973        4.717        1.523      252.358       55.734        0.049      343.434       19.541      859.722
09/08/2014  22:13:00     -229.251      -87.876       -3.496      141.523      133.199       64.121    20028.766    17741.843     4111.480        5.108        2.094      245.516       73.869        0.091      343.347       19.392      859.757
09/08/2014  22:14:00     -202.009     -105.262      -11.337      122.249       94.050       57.525    14944.872     8845.345     3309.136        3.955        1.355      227.789       55.641        0.060      343.437       19.545      859.767
09/08/2014  22:15:00     -279.593     -100.139      -17.652      107.148      120.559       50.065    11480.756    14534.362     2506.535        5.851        1.426      296.985       53.233        0.032      343.403       19.488      859.798
09/08/2014  22:16:00     -296.906     -146.650      -12.717      128.197      144.432       63.004    16434.373    20860.526     3969.450        7.554        2.063      331.149       63.861        0.037      343.532       19.706      859.812
09/08/2014  22:17:00     -253.307     -137.137      -12.197      143.627       93.522       53.444    20628.843     8746.406     2856.238        5.767        1.612      288.047       51.433        0.032      343.540       19.720      859.820
09/08/2014  22:18:00     -287.740      -39.323       -8.565       84.932       70.449       48.283     7213.500     4963.035     2331.283        4.946        0.725      290.414       44.925        0.024      343.456       19.578      859.839
09/08/2014  22:19:00     -255.536      -84.927      -15.328      109.746      100.594       59.695    12044.130    10119.207     3563.514        4.923        1.286      269.279       55.198        0.042      343.454       19.574      859.836
09/08/2014  22:20:00     -215.516      -50.193      -11.705       89.880       79.106       42.197     8078.487     6257.716     1780.579        3.261        0.806      221.284       45.680        0.043      343.358       19.409      859.857
09/08/2014  22:21:00     -286.719      -73.794       -8.360      109.544       82.721       55.264    11999.788     6842.744     3054.090        5.481        1.095      296.063       56.388        0.036      343.364       19.420      859.898
09/08/2014  22:22:00     -276.285      -24.993      -19.428       95.579       78.518       47.439     9135.259     6165.022     2250.454        4.744        0.878      277.413       46.274        0.028      343.363       19.419      859.914
09/08/2014  22:23:00     -337.195      -66.056      -33.461      101.671       81.765       48.345    10337.016     6685.587     2337.198        6.927        0.968      343.604       51.777        0.023      343.360       19.413      859.944
09/08/2014  22:24:00     -269.784      -39.266      -23.195      126.449       84.599       45.123    15989.282     7156.958     2036.127        5.002        1.259      272.627       50.415        0.034      343.367       19.426      859.937
09/08/2014  22:25:00     -369.809      -12.245      -32.645      213.027      146.048       69.738    45380.420    21329.978     4863.377       10.476        3.579      370.011       90.055        0.059      343.378       19.444      859.944
09/08/2014  22:26:00     -385.296      -86.177       -4.703      161.112      113.071       71.478    25957.184    12785.149     5109.163        9.987        2.193      394.815       76.542        0.038      343.381       19.450      859.974
09/08/2014  22:27:00     -306.301      -79.022      -14.281      124.513      107.053       63.088    15503.507    11460.264     3980.109        6.560        1.547      316.330       60.726        0.037      343.357       19.409      859.998
09/08/2014  22:28:00     -326.838      -15.553      -14.496      136.750      112.919       76.168    18700.538    12750.782     5801.631        7.226        1.863      327.208       67.408        0.042      343.354       19.404      860.019
09/08/2014  22:29:00     -308.992      -65.355        1.439      176.302      103.341       61.391    31082.358    10679.407     3768.795        7.263        2.277      315.828       72.110        0.052      343.344       19.388      860.039
09/08/2014  22:30:00     -163.919      -21.325        7.902      124.127      102.225       60.308    15407.421    10450.033     3637.078        2.844        1.475      165.300       57.959        0.123      343.333       19.369      860.039
09/08/2014  22:31:00     -147.354      -76.018       11.182      143.283       97.106       54.471    20529.981     9429.525     2967.130        3.027        1.646      165.807       64.495        0.151      343.344       19.386      860.037
09/08/2014  22:32:00     -140.554      -77.354        4.380      104.583       78.567       55.391    10937.648     6172.752     3068.147        2.297        1.009      160.434       55.704        0.121      343.395       19.476      860.042
09/08/2014  22:33:00     -222.623      -20.896       -3.667      142.657       95.068       64.083    20351.013     9038.012     4106.600        4.175        1.675      223.601       70.809        0.100      343.357       19.409      860.045
09/08/2014  22:34:00     -401.384      -68.023      -20.940      160.377      106.486       71.347    25720.764    11339.215     5090.373       10.416        2.108      407.107       75.953        0.035      343.421       19.517      860.056
09/08/2014  22:35:00     -214.173      -42.555       14.181      102.451      118.901       59.996    10496.202    14137.459     3599.498        3.805        1.412      218.360       53.710        0.061      343.330       19.364      860.063
09/08/2014  22:36:00     -274.385      -50.735       -9.103      120.810       92.994       57.271    14595.096     8647.967     3279.917        5.223        1.326      279.036       55.622        0.040      343.333       19.368      860.094
09/08/2014  22:37:00     -402.101      -22.293      -17.314      152.628      149.853       62.841    23295.319    22456.016     3949.000       10.608        2.485      402.719       64.672        0.026      343.393       19.470      860.111
09/08/2014  22:38:00     -471.288      -60.928      -17.087      143.982      116.261       82.176    20730.852    13516.561     6752.824       13.355        2.050      475.210       79.503        0.028      343.351       19.397      860.117
09/08/2014  22:39:00     -328.441      -85.873        1.542      175.588      112.731       69.999    30831.162    12708.334     4899.813        8.184        2.422      339.482       81.906        0.058      343.299       19.310      860.131
09/08/2014  22:40:00     -346.993      -73.074      -19.434      185.477      113.055       64.450    34401.619    12781.509     4153.776        8.872        2.567      354.604       71.647        0.041      343.318       19.342      860.152
09/08/2014  22:41:00     -432.466      -36.841      -12.891      178.829      121.027       78.515    31979.683    14647.604     6164.625       12.066        2.640      434.032       89.513        0.043      343.379       19.447      860.146
09/08/2014  22:42:00     -299.332      -68.377      -12.817      132.055       85.025       54.031    17438.468     7229.232     2919.388        6.101        1.379      307.042       57.919        0.036      343.346       19.391      860.175
09/08/2014  22:43:00     -294.347      -31.499      -13.166      112.700       80.843       58.389    12701.249     6535.637     3409.243        5.522        1.132      296.028       58.188        0.039      343.283       19.282      860.203
09/08/2014  22:44:00     -254.709      -57.826      -10.888      139.797       79.741       53.261    19543.096     6358.704     2836.697        4.853        1.437      261.191       60.924        0.054      343.292       19.299      860.217
09/08/2014  22:45:00     -325.944      -33.154      -19.774       98.809      109.690       64.696     9763.229    12031.811     4185.531        6.685        1.299      327.625       64.071        0.038      343.310       19.327      860.233
09/08/2014  22:46:00     -391.618       24.388      -22.081      153.518      108.154       59.524    23567.658    11697.217     3543.092        9.662        1.940      392.377       70.338        0.032      343.355       19.405      860.236
09/08/2014  22:47:00     -357.853      -29.926      -25.622      153.234      124.623       60.502    23480.761    15530.844     3660.458        8.613        2.134      359.102       69.512        0.037      343.337       19.374      860.259
09/08/2014  22:48:00     -304.738     -111.809       -5.254      110.844      111.692       62.782    12286.438    12475.049     3941.608        6.704        1.435      324.602       69.663        0.046      343.309       19.328      860.272
09/08/2014  22:49:00     -349.713     -111.552      -10.298      131.573      106.846       62.606    17311.543    11415.992     3919.540        8.374        1.632      367.074       71.351        0.038      343.316       19.339      860.286
09/08/2014  22:50:00     -401.435      -34.984      -18.757      176.705      130.623       63.136    31224.742    17062.427     3986.092       10.749        2.614      402.956       67.895        0.028      343.322       19.347      860.287
09/08/2014  22:51:00     -486.282      -78.923      -36.709      128.125      131.847       65.867    16416.091    17383.590     4338.408       14.109        1.907      492.645       71.704        0.021      343.341       19.381      860.306
09/08/2014  22:52:00     -383.990     -104.505      -24.913      143.385      138.496       78.147    20559.292    19181.011     6106.916       10.241        2.292      397.957       72.843        0.034      343.361       19.414      860.312
09/08/2014  22:53:00     -349.155      -99.119      -18.907      134.445      109.193       54.214    18075.474    11923.077     2939.152        8.251        1.647      362.952       49.639        0.019      343.371       19.432      860.299
09/08/2014  22:54:00     -339.042     -122.400      -10.141      174.485      120.135       66.430    30445.170    14432.443     4412.908        8.965        2.465      360.460       65.855        0.033      343.332       19.366      860.305
09/08/2014  22:55:00     -272.089      -72.285        0.032      161.921      107.651       62.214    26218.420    11588.724     3870.603        6.046        2.084      281.527       65.506        0.054      343.315       19.337      860.322
09/08/2014  22:56:00     -371.522      -72.842      -15.502      213.837      166.148       71.188    45726.187    27605.268     5067.703       11.097        3.920      378.595       83.779        0.049      343.374       19.436      860.338
09/08/2014  22:57:00     -398.142      -98.000      -16.911      186.202      145.720       80.514    34671.152    21234.434     6482.529       11.539        3.119      410.026       93.430        0.052      343.371       19.433      860.349
09/08/2014  22:58:00     -337.726      -34.739       -7.947      162.963      129.907       62.516    26556.922    16875.817     3908.249        8.133        2.367      339.508       78.512        0.053      343.342       19.383      860.354
09/08/2014  22:59:00     -295.669      -55.502      -20.105      123.969       97.604       68.989    15368.202     9526.468     4759.470        6.027        1.483      300.834       73.238        0.059      343.331       19.363      860.349
09/08/2014  23:00:00     -244.292      -40.206        5.093      132.899       96.012       57.234    17662.065     9218.300     3275.733        4.573        1.508      247.579       63.709        0.066      343.281       19.281      860.357
09/08/2014  23:01:00     -369.088      -92.514      -22.658      145.222       95.495       67.303    21089.499     9119.347     4529.739        9.001        1.737      380.506       64.397        0.029      343.287       19.287      860.346
09/08/2014  23:02:00     -291.255      -81.084       -7.555      130.437      113.173       61.631    17013.939    12808.169     3798.395        6.254        1.681      302.331       65.132        0.046      343.214       19.163      860.365
09/08/2014  23:03:00     -417.000     -112.477      -23.215      133.324      120.081       61.748    17775.221    14419.533     3812.876       11.154        1.800      431.903       64.981        0.023      343.366       19.424      860.355
09/08/2014  23:04:00     -539.311     -115.346      -40.619      170.948      121.107       80.781    29223.367    14666.952     6525.623       17.811        2.521      551.508       86.443        0.025      343.411       19.500      860.358
09/08/2014  23:05:00     -321.145     -137.789      -26.076      161.175      112.214       81.712    25977.238    12591.928     6676.878        8.402        2.262      349.457       88.646        0.064      343.384       19.454      860.345
09/08/2014  23:06:00     -340.867       13.545      -24.663      128.594      126.549       69.065    16536.462    16014.619     4770.013        7.715        1.866      341.136       60.084        0.031      343.367       19.425      860.387
09/08/2014  23:07:00     -293.352      -49.118      -16.639      169.114      123.337       63.319    28599.377    15211.918     4009.240        6.827        2.391      297.436       76.546        0.066      343.306       19.321      860.407
09/08/2014  23:08:00     -445.820      -80.862      -16.755      123.342      126.413       60.368    15213.142    15980.366     3644.262       12.020        1.742      453.094       66.611        0.022      343.344       19.386      860.421
09/08/2014  23:09:00     -358.159      -18.561      -26.134      127.052      100.958       58.231    16142.298    10192.579     3390.837        7.951        1.486      358.639       67.012        0.035      343.282       19.280      860.427
09/08/2014  23:10:00     -287.146      -37.367      -15.102      148.918      107.912       65.693    22176.690    11645.009     4315.590        6.110        1.907      289.567       68.000        0.055      343.226       19.185      860.420
09/08/2014  23:11:00     -384.195      -11.458      -32.404       93.683       73.603       53.011     8776.463     5417.415     2810.147        8.289        0.850      384.366       41.479        0.012      343.345       19.388      860.402
09/08/2014  23:12:00     -286.505      -78.841      -17.846       89.692       89.069       49.374     8044.573     7933.262     2437.764        5.351        0.921      297.154       44.037        0.022      343.271       19.261      860.394
09/08/2014  23:13:00     -387.110     -108.978      -37.755       93.205      100.972       53.931     8687.167    10195.279     2908.518        9.247        1.090      402.158       35.746        0.008      343.327       19.356      860.401
09/08/2014  23:14:00     -259.836      -65.559       -0.085      139.550       86.928       58.473    19474.229     7556.458     3419.110        5.113        1.522      267.979       62.438        0.054      343.240       19.208      860.414
09/08/2014  23:15:00     -334.216      -30.182      -24.822      134.410      109.375       60.627    18066.071    11962.798     3675.629        7.346        1.685      335.576       56.933        0.029      343.260       19.242      860.408
09/08/2014  23:16:00     -317.736      -26.158      -35.324      128.620       78.174       54.481    16543.100     6111.177     2968.150        6.425        1.281      318.811       66.141        0.043      343.193       19.127      860.400
09/08/2014  23:17:00     -350.268       50.746      -30.321      108.375      107.649       56.337    11745.110    11588.356     3173.912        7.634        1.325      353.925       43.016        0.015      343.204       19.146      860.399
09/08/2014  23:18:00     -332.831      -86.755      -13.992      104.431       89.804       56.505    10905.783     8064.801     3192.809        7.033        1.108      343.952       55.023        0.026      343.146       19.047      860.398
09/08/2014  23:19:00     -243.669      -64.761       -4.523       99.121      101.021       47.499     9825.014    10205.225     2256.133        4.293        1.114      252.129       41.987        0.028      343.097       18.966      860.397
09/08/2014  23:20:00     -283.796      -13.469      -21.252      134.700      102.792       44.649    18144.109    10566.137     1993.501        5.593        1.535      284.115       50.270        0.031      343.092       18.959      860.394
09/08/2014  23:21:00     -297.641      -55.923      -13.258       96.530       77.504       50.977     9318.089     6006.855     2598.673        5.491        0.896      302.849       58.215        0.037      343.077       18.929      860.393
09/08/2014  23:22:00     -205.450      -54.127      -12.056      134.908       78.484       47.132    18200.200     6159.757     2221.402        3.593        1.329      212.461       50.440        0.056      343.018       18.831      860.391
09/08/2014  23:23:00     -300.804      -39.563      -16.773      107.696       84.233       48.100    11598.501     7095.208     2313.573        5.666        1.050      303.394       50.539        0.028      343.022       18.837      860.397
09/08/2014  23:24:00     -249.446      -60.139      -11.638      102.041       89.448       58.311    10412.366     8000.984     3400.118        4.389        1.091      256.593       53.289        0.043      343.001       18.801      860.384
09/08/2014  23:25:00     -265.212      -41.304      -10.155      114.432       92.006       53.776    13094.614     8465.041     2891.864        4.829        1.223      268.409       53.265        0.039      342.976       18.759      860.376
09/08/2014  23:26:00     -327.257      -62.517      -16.305      103.438       90.774       51.561    10699.349     8239.873     2658.535        6.643        1.080      333.175       52.291        0.025      342.976       18.758      860.365
09/08/2014  23:27:00     -383.028      -82.513      -17.146      119.210       95.204       56.339    14211.102     9063.799     3174.119        9.013        1.322      391.815       60.138        0.024      342.992       18.786      860.372
09/08/2014  23:28:00     -321.943      -38.653      -10.788      152.964       96.482       72.415    23397.866     9308.738     5243.980        7.160        1.898      324.255       79.531        0.060      342.924       18.672      860.379
09/08/2014  23:29:00     -276.818      -31.897      -14.173      102.952       89.302       51.260    10599.187     7974.917     2627.547        4.952        1.060      278.650       47.274        0.029      342.913       18.653      860.378
09/08/2014  23:30:00     -365.232     -111.886      -20.095      186.997      127.702       74.261    34967.937    16307.777     5514.632       10.154        2.840      381.985       84.726        0.049      343.028       18.849      860.383
09/08/2014  23:31:00     -393.321      -87.643      -20.772      166.411      150.988       75.129    27692.747    22797.442     5644.335       10.946        2.807      402.967       72.391        0.032      343.088       18.950      860.376
09/08/2014  23:32:00     -250.561     -147.541      -14.348      107.197      111.065       65.578    11491.228    12335.477     4300.492        5.644        1.406      290.773       63.948        0.048      343.014       18.824      860.377
09/08/2014  23:33:00     -211.211     -113.380       -5.921      102.327       84.710       50.585    10470.791     7175.797     2558.869        3.885        1.010      239.719       41.531        0.030      342.994       18.791      860.385
09/08/2014  23:34:00     -254.961      -35.375       -2.682      136.375      123.420       64.818    18598.024    15232.471     4201.320        5.214        1.902      257.403       59.701        0.054      342.967       18.745      860.391
09/08/2014  23:35:00     -325.210      -74.125       -9.623      128.260      119.930       64.590    16450.753    14383.213     4171.896        7.317        1.750      333.551       70.083        0.044      342.927       18.676      860.396
09/08/2014  23:36:00     -262.351      -87.560      -23.688      131.331       94.360       60.542    17247.749     8903.867     3665.294        5.343        1.491      276.577       65.513        0.056      342.927       18.675      860.408
09/08/2014  23:37:00     -291.966      -86.986      -24.824      174.429      130.202       66.886    30425.519    16952.644     4473.729        7.263        2.593      304.648       89.775        0.087      342.942       18.702      860.409
09/08/2014  23:38:00     -286.899      -57.778       -6.821      117.573       92.925       57.870    13823.473     8635.028     3348.977        5.575        1.290      292.659       59.543        0.041      342.962       18.736      860.417
09/08/2014  23:39:00     -271.901     -119.837        3.235      110.239       88.775       54.521    12152.614     7881.003     2972.525        5.565        1.150      297.138       57.818        0.038      342.951       18.716      860.430
09/08/2014  23:40:00     -254.376     -101.177      -16.042      108.830       80.615       52.642    11843.965     6498.804     2771.174        4.815        1.056      273.759       54.651        0.040      342.945       18.707      860.424
09/08/2014  23:41:00     -311.361     -129.160      -16.574      152.849      103.531       68.888    23362.706    10718.754     4745.604        7.636        1.941      337.087       75.028        0.050      343.016       18.828      860.423
09/08/2014  23:42:00     -257.007     -100.216      -23.068      164.654      101.931       62.897    27110.788    10389.909     3956.012        5.904        2.073      275.855       64.297        0.054      342.993       18.789      860.434
09/08/2014  23:43:00     -304.733      -73.265       -0.145      149.191      102.311       69.689    22258.098    10467.523     4856.547        6.790        1.879      313.416       77.487        0.061      342.966       18.742      860.469
09/08/2014  23:44:00     -389.322      -55.063      -15.000      169.259      124.954       68.512    28648.509    15613.496     4693.877       10.188        2.448      393.196       72.609        0.034      343.196       19.132      860.484
09/08/2014  23:45:00     -216.381       28.351        4.092      145.835      136.122       69.568    21267.711    18529.256     4839.668        4.613        2.232      218.231       77.767        0.127      343.054       18.891      860.468
09/08/2014  23:46:00     -219.372      -42.192       -7.824       84.498       57.972       42.481     7139.865     3360.774     1804.644        3.113        0.615      223.392       43.019        0.037      343.039       18.866      860.483
09/08/2014  23:47:00     -236.822      -85.509      -23.648       62.788       64.278       40.918     3942.349     4131.612     1674.293        3.685        0.487      251.787       28.248        0.013      343.027       18.845      860.506
09/08/2014  23:48:00     -252.496      -99.892      -13.032      125.739       98.370       48.889    15810.264     9676.711     2390.099        5.089        1.394      271.538       47.464        0.031      343.015       18.825      860.524
09/08/2014  23:49:00     -285.473      -78.918      -11.897      110.364      108.985       57.851    12180.121    11877.794     3346.746        5.763        1.370      296.181       56.991        0.037      343.038       18.864      860.541
09/08/2014  23:50:00     -248.182      -69.197       -0.728      116.481      102.464       62.877    13567.829    10498.938     3953.469        4.720        1.401      257.649       52.766        0.042      343.100       18.969      860.548
09/08/2014  23:51:00     -279.107      -78.952      -12.711      110.270      117.423       62.148    12159.502    13788.111     3862.399        5.705        1.491      290.058       55.341        0.036      343.071       18.921      860.558
09/08/2014  23:52:00     -289.051      -83.031      -19.844       86.780      130.680       49.540     7530.810    17077.203     2454.181        5.895        1.353      300.740       47.970        0.025      343.089       18.950      860.592
09/08/2014  23:53:00     -231.581      -63.764       -4.489      138.589      102.192       48.208    19207.024    10443.189     2324.009        4.484        1.599      240.199       53.272        0.049      343.014       18.825      860.610
09/08/2014  23:54:00     -277.279      -14.169      -17.659       95.094       88.332       53.015     9042.886     7802.571     2810.611        4.852        0.983      277.640       49.496        0.032      343.082       18.939      860.601
09/08/2014  23:55:00     -230.507      -42.572      -15.059       96.688      100.771       45.736     9348.559    10154.851     2091.750        3.838        1.080      234.405       44.640        0.036      343.069       18.919      860.592
09/08/2014  23:56:00     -219.632      -46.793       -5.146      159.773       92.412       49.363    25527.439     8540.056     2436.708        4.347        1.825      224.562       61.044        0.074      342.974       18.756      860.592
09/08/2014  23:57:00     -225.909      -99.921        1.125      127.668       97.390       61.848    16299.065     9484.795     3825.165        4.531        1.480      247.021       68.992        0.078      342.974       18.757      860.604
09/08/2014  23:58:00     -331.078      -82.234      -18.160      138.718       99.251       66.033    19242.646     9850.693     4360.401        7.507        1.673      341.138       55.457        0.026      342.964       18.738      860.631
09/08/2014  23:59:00     -202.836      -60.022        4.743      124.024       95.150       53.222    15381.873     9053.454     2832.549        3.601        1.363      211.530       63.614        0.090      342.926       18.675      860.664
